GFSSGP_850_thetae_000.txt.gz
Theta_e
317 320 325 327 328 324 325 323 322 322 321 320 321 322 321 322 324 325 322 323 326 318 315 315 315 316 315 315 316 318 323 330 333 332 328 329 329 329 327 326 325 324 325 328 332 331 329 328 326
319 322 325 328 327 328 324 321 321 321 320 319 319 320 320 321 320 319 318 320 319 316 314 314 313 313 313 314 313 314 316 319 324 325 325 323 325 326 326 325 325 325 323 323 323 322 324 327 327
318 322 327 328 327 324 323 321 319 319 318 319 319 319 319 320 319 319 319 319 317 315 314 314 313 313 312 312 312 313 313 314 315 315 315 316 316 316 317 318 319 320 321 324 325 325 324 323 323
322 322 322 321 322 322 321 320 320 318 318 318 319 319 318 318 318 319 318 318 316 314 314 313 312 311 310 310 309 309 309 309 309 309 309 309 309 310 311 312 313 314 315 316 316 316 317 321 325
319 323 324 324 322 321 319 320 320 318 318 318 318 318 318 317 316 316 317 318 316 314 313 313 310 309 309 309 308 308 307 307 307 306 305 304 304 303 303 303 303 304 304 305 306 307 309 311 314
321 321 323 324 324 321 320 319 319 319 319 318 317 317 318 317 316 315 317 317 315 314 313 311 309 308 308 308 307 306 306 304 303 303 303 303 303 303 302 302 303 303 303 302 302 303 303 303 303
323 325 325 324 323 322 321 319 318 319 319 317 318 317 317 317 316 315 316 317 317 314 312 311 308 308 308 307 306 305 303 302 302 302 302 302 302 302 302 302 302 301 302 302 302 302 302 302 302
320 321 322 322 322 322 320 319 318 319 319 318 318 316 317 318 316 314 314 316 316 315 312 310 308 308 308 308 307 305 303 302 303 303 304 303 303 302 302 301 301 301 301 301 301 301 301 301 302
321 320 322 324 323 322 318 318 317 317 317 317 317 317 316 316 315 313 313 314 314 313 311 310 309 307 308 309 308 306 304 303 304 305 305 303 302 302 302 302 302 301 301 301 301 301 301 301 301
321 324 324 321 320 320 320 318 318 316 315 316 316 315 315 314 314 313 313 314 313 313 311 310 309 308 307 309 308 306 303 303 304 304 303 303 302 301 301 302 302 302 302 302 301 301 300 300 300
321 322 321 320 320 319 318 318 318 317 315 317 317 316 316 315 313 313 313 313 313 313 312 311 310 307 307 308 308 305 303 303 303 304 302 302 301 301 302 302 302 302 303 303 302 300 299 299 299
320 321 321 321 319 317 317 318 318 318 316 318 318 318 317 316 315 315 313 313 312 312 312 311 310 308 307 307 307 306 303 302 303 303 302 301 301 301 301 301 302 302 302 302 301 300 299 298 298
319 319 320 320 318 317 317 317 316 317 317 317 317 317 316 316 316 315 314 312 311 310 311 311 309 308 307 307 305 304 303 302 302 302 301 301 301 301 300 301 301 301 301 301 301 300 299 297 297
319 318 318 318 318 318 316 316 317 317 318 317 317 317 316 315 315 314 313 313 311 310 309 310 309 308 306 305 304 303 302 301 301 301 300 300 300 300 300 301 301 301 300 300 299 298 296 296 295
317 315 316 317 318 317 317 315 315 317 317 317 317 317 317 316 314 314 315 314 312 310 309 309 308 307 306 304 303 302 302 301 301 300 300 300 300 299 301 300 300 300 300 299 298 296 295 294 294
316 317 317 319 317 316 315 315 317 318 317 317 317 316 316 316 315 314 313 312 311 309 308 308 307 306 305 303 303 302 301 300 299 299 299 299 299 300 300 299 299 299 299 298 296 295 294 294 294
316 317 318 319 318 315 314 316 315 317 317 317 316 316 316 315 316 314 313 312 310 309 308 306 306 306 305 302 301 300 299 299 298 298 298 298 299 300 299 299 298 299 298 296 295 294 293 293 293
318 318 317 316 317 315 314 314 314 316 316 316 316 316 316 316 315 315 314 313 311 309 307 305 304 304 303 301 300 299 298 298 298 298 297 298 299 299 298 298 298 298 297 295 294 293 292 292 292
317 316 316 317 316 315 315 315 315 316 316 315 316 316 316 316 316 315 315 312 310 308 306 304 304 303 302 301 300 298 299 298 298 297 297 297 298 298 298 298 298 297 295 294 293 292 292 293 291
315 314 315 315 316 314 314 315 314 313 314 315 315 315 315 315 315 315 315 312 309 307 305 304 304 304 303 302 300 298 298 297 296 296 296 296 297 298 298 298 297 296 295 294 292 291 291 291 291
315 314 314 315 315 312 312 313 313 313 314 314 315 315 314 314 314 314 313 311 308 307 306 306 305 305 304 302 300 297 296 296 296 296 296 296 296 297 297 297 296 295 294 292 291 290 290 290 291
314 315 315 315 315 315 314 316 313 314 312 311 313 314 314 313 313 314 313 310 307 306 306 305 305 305 304 302 301 300 300 299 299 298 296 295 296 296 297 296 296 294 293 291 291 290 290 288 289
315 312 313 314 314 314 315 313 313 313 312 311 311 315 315 314 314 313 312 310 308 306 306 306 305 305 304 303 302 301 299 297 296 296 295 295 295 296 296 295 295 293 292 291 290 289 289 288 288
310 312 312 312 311 313 312 313 313 313 313 312 311 315 315 314 314 312 310 309 308 307 306 306 305 304 303 302 301 302 300 298 296 295 294 294 294 295 295 295 294 293 292 290 290 289 288 287 287
310 313 313 315 314 316 312 312 315 315 312 311 311 314 314 314 313 311 309 309 308 308 307 307 306 305 303 303 302 301 301 299 297 296 295 294 294 294 294 294 294 292 291 290 289 288 287 287 287
310 313 315 314 313 314 309 313 314 313 313 315 315 315 314 314 313 311 310 310 310 310 308 308 307 306 304 304 304 301 300 299 297 295 294 293 293 293 294 294 293 291 290 289 288 288 287 287 287
312 312 314 314 307 313 314 313 313 313 312 311 310 312 312 312 312 311 310 310 310 309 310 310 309 307 305 305 304 303 299 298 297 295 294 293 292 292 293 292 292 290 289 288 288 287 287 286 286
309 309 312 313 311 310 312 312 315 315 314 311 310 309 312 312 311 310 310 310 310 309 310 309 307 308 307 306 306 304 301 297 296 294 294 293 292 292 292 292 291 289 289 288 287 287 287 286 286
306 308 309 310 314 312 313 314 313 313 313 311 310 312 313 313 312 312 311 310 309 309 309 309 308 307 306 305 304 303 301 298 295 294 293 292 291 291 291 291 290 289 288 287 287 286 286 286 285
309 309 310 311 311 309 312 314 312 311 309 308 309 312 313 313 312 312 311 311 310 310 309 310 309 307 306 304 303 301 300 298 295 293 292 291 290 291 291 290 289 288 287 287 286 286 285 285 285

GFSSGP_850_thetae_003.txt.gz
Theta_e
316 319 324 327 321 316 320 322 319 319 319 319 321 320 319 321 322 322 326 327 327 320 316 315 316 316 316 316 316 317 319 322 322 320 324 324 325 326 325 324 323 322 322 322 330 326 327 327 326
319 322 325 326 321 321 320 319 319 318 319 319 320 320 319 319 320 321 322 325 326 322 315 315 315 315 315 315 315 315 315 317 319 319 317 319 320 322 323 323 323 325 325 324 324 324 323 322 322
318 323 326 321 320 320 318 318 315 317 319 318 318 318 319 319 319 320 319 320 323 318 314 314 313 313 313 313 313 314 314 316 317 316 315 314 314 314 315 315 317 318 318 319 319 320 321 322 324
320 321 322 316 317 316 318 316 316 316 318 318 318 317 318 319 320 318 318 319 319 315 314 314 313 313 312 311 311 311 311 311 311 311 310 309 309 308 309 309 310 311 311 312 312 312 312 314 315
320 322 319 318 317 317 317 318 317 316 316 317 318 316 317 317 318 317 317 318 318 315 314 314 314 311 310 309 309 308 308 308 308 306 305 304 303 303 303 303 303 303 303 303 303 303 303 303 303
320 319 316 318 320 318 317 319 318 317 317 317 317 316 317 318 318 317 316 317 318 316 314 314 313 310 309 309 309 308 308 306 304 303 303 303 303 303 303 303 302 302 302 302 302 302 302 302 302
320 318 320 320 319 318 318 318 317 316 316 316 317 314 316 317 317 316 315 316 317 316 314 313 312 309 308 309 309 309 307 304 303 304 304 304 304 303 302 302 302 302 302 302 302 302 302 302 302
320 315 318 317 318 320 317 318 318 317 316 317 318 314 315 318 317 316 315 316 317 317 315 313 312 309 308 308 310 309 305 303 303 304 305 305 303 303 302 302 302 303 303 303 303 303 302 302 302
320 315 315 318 320 320 318 316 317 317 317 317 317 317 317 318 317 316 314 315 316 317 317 314 312 310 308 308 309 308 304 303 303 305 306 306 305 303 303 303 303 304 304 304 304 304 303 303 302
319 317 319 319 318 317 317 316 317 316 316 315 316 317 317 316 316 316 315 315 315 316 316 315 313 311 308 307 309 309 306 304 304 305 306 305 304 303 303 303 303 303 303 304 304 305 304 303 302
318 315 317 319 320 318 317 316 317 315 312 316 317 317 316 316 315 315 315 314 315 315 314 315 313 311 309 308 308 309 308 306 305 305 306 306 304 303 302 302 303 303 303 304 304 304 304 304 303
319 319 319 320 320 319 316 316 317 317 317 317 318 317 317 317 317 317 316 315 314 314 314 314 313 311 310 309 308 308 309 307 305 304 305 305 304 303 302 302 302 303 303 303 303 304 304 304 302
318 317 319 319 318 318 318 316 315 316 317 317 317 317 317 316 316 317 316 315 314 313 313 313 312 312 310 309 308 308 308 307 305 304 304 304 303 302 302 301 302 302 303 302 302 303 303 302 301
317 317 316 317 318 317 316 315 316 317 317 317 317 317 317 317 317 316 316 315 314 313 313 312 311 311 310 309 308 307 307 306 304 303 303 303 302 302 302 301 301 302 302 302 302 301 301 300 298
317 315 312 315 316 314 317 313 313 318 316 317 317 317 317 317 317 316 316 315 315 313 312 312 311 309 309 308 307 307 306 305 304 302 302 302 301 301 301 301 301 301 301 301 300 300 299 298 298
315 314 314 313 314 316 316 314 313 317 316 316 316 317 317 317 316 316 316 316 315 313 312 311 311 309 308 307 306 305 304 303 303 301 301 300 300 300 300 301 301 301 300 300 299 299 299 298 297
312 312 313 315 315 313 313 313 312 317 316 316 317 317 317 317 317 316 315 315 315 314 312 311 310 309 308 306 305 303 303 302 302 301 301 300 300 299 300 300 300 300 300 299 298 297 298 297 295
311 313 313 313 314 313 312 313 313 315 314 314 316 316 316 316 317 316 316 315 315 314 313 310 309 308 307 305 303 301 300 300 300 300 300 299 299 298 299 300 300 299 299 298 297 297 296 295 295
312 312 311 313 313 314 315 314 314 313 313 312 315 317 317 316 317 316 316 316 315 313 312 310 309 307 307 305 303 301 301 301 300 300 299 298 298 298 299 299 299 299 298 297 297 296 295 295 294
312 312 312 312 311 311 312 313 313 310 312 314 314 315 316 314 315 315 315 315 314 314 311 309 308 307 307 305 305 304 303 301 300 299 298 298 297 297 298 299 298 298 298 297 296 295 295 294 292
313 312 313 312 312 311 310 311 311 311 311 314 315 315 315 314 315 314 314 314 314 312 311 310 308 307 307 306 304 302 299 298 298 298 297 297 297 296 297 298 297 297 297 297 296 295 294 292 291
314 311 312 312 313 313 311 314 311 311 310 310 312 316 314 314 314 314 314 314 314 312 311 309 308 307 306 305 304 304 303 303 303 302 300 298 296 296 296 297 296 296 296 297 295 294 292 291 291
313 312 312 312 312 311 313 312 314 310 310 311 311 314 316 315 314 314 313 314 313 311 310 309 308 307 306 305 304 304 302 301 301 300 299 297 296 295 295 296 296 296 296 296 295 293 292 291 290
310 311 311 310 308 312 310 311 311 309 311 311 311 314 317 316 313 313 313 313 312 310 308 307 307 307 307 306 305 304 303 302 300 299 298 298 297 295 295 295 295 295 295 295 294 293 291 290 289
310 310 310 310 310 314 309 309 313 312 310 310 311 315 317 317 313 314 313 313 311 309 308 307 307 307 307 307 307 306 304 301 300 300 298 298 297 296 295 295 295 294 294 294 294 293 291 289 288
308 311 311 310 312 313 306 312 313 311 311 313 315 317 316 313 314 313 313 312 311 309 308 307 307 307 308 309 308 307 305 302 300 299 298 298 297 297 295 294 294 294 294 294 293 292 290 289 288
309 311 311 311 298 308 313 311 311 311 310 309 309 309 312 314 314 313 312 311 310 310 310 311 310 310 309 310 308 307 305 303 301 300 299 296 296 295 294 293 293 293 293 293 293 291 289 288 287
309 308 311 310 311 311 313 310 313 312 313 312 308 306 311 313 312 312 311 311 311 311 311 310 309 309 309 308 308 308 307 305 302 300 298 296 293 293 293 292 292 292 292 293 292 290 288 287 287
307 309 309 310 311 314 313 314 312 312 312 311 308 308 310 311 312 312 312 311 311 310 310 309 309 308 308 307 307 307 307 305 303 300 298 295 293 292 292 292 292 292 292 292 291 289 288 286 286
308 309 309 312 311 309 312 314 312 308 309 306 309 311 312 312 312 312 312 311 311 311 310 311 310 308 309 308 306 305 304 303 301 299 297 295 293 292 291 291 291 291 292 292 290 288 287 286 285

GFSSGP_850_thetae_006.txt.gz
Theta_e
317 318 322 326 319 315 318 321 318 319 318 319 320 320 318 320 321 320 325 325 323 322 318 315 315 317 323 332 325 325 326 327 326 324 322 322 323 323 322 322 321 320 320 322 321 320 322 324 326
318 321 324 326 320 319 318 317 318 317 318 319 320 319 318 319 321 322 323 324 323 319 316 314 315 316 316 316 316 317 318 319 319 317 317 318 318 319 320 321 323 324 324 324 322 322 323 323 322
318 322 326 319 317 319 317 316 315 317 318 318 318 319 319 319 319 320 321 321 323 323 316 315 315 315 315 315 315 315 315 315 316 315 315 315 314 315 315 315 316 317 318 317 317 317 317 318 320
319 321 320 317 320 317 316 315 315 315 317 317 318 317 317 319 319 319 319 319 320 322 315 314 314 313 313 313 313 313 313 313 314 313 313 312 311 310 310 310 310 310 311 310 310 309 309 310 311
320 322 317 318 316 314 314 316 316 314 316 316 317 315 317 317 318 318 317 317 318 320 315 314 313 313 313 311 311 311 310 309 309 308 307 306 305 304 304 304 304 304 304 303 303 303 303 303 303
319 318 315 317 316 317 315 318 316 315 316 316 316 315 317 318 318 318 317 316 317 318 315 314 314 313 311 310 309 309 309 309 308 305 304 304 304 304 303 303 303 303 302 302 302 302 303 302 303
318 316 318 317 318 318 316 317 315 315 315 316 317 313 316 317 317 317 316 316 317 318 315 314 314 313 310 309 309 309 309 307 304 304 305 305 306 305 304 303 303 303 303 303 303 303 303 303 303
319 313 316 315 316 318 317 316 317 316 315 317 317 314 315 318 317 316 315 315 316 317 316 314 313 313 310 308 309 309 309 305 304 304 305 306 306 305 304 303 303 304 304 304 304 304 304 304 303
319 312 313 315 319 317 317 315 317 317 317 316 317 317 317 317 317 316 315 314 315 316 316 315 313 312 309 308 308 309 308 305 304 304 305 305 305 304 304 304 304 304 304 304 305 305 305 305 305
318 312 313 314 317 316 317 316 317 316 315 315 316 317 317 317 317 317 317 316 315 315 316 316 315 313 310 308 308 309 308 305 303 304 305 306 306 306 304 303 303 303 304 304 305 305 305 305 305
317 314 314 318 319 319 316 315 317 315 312 315 317 318 317 316 316 316 316 316 316 315 315 315 316 314 311 309 308 308 309 306 304 304 306 307 307 306 305 304 303 303 303 304 304 304 304 305 305
317 317 317 319 320 317 316 317 315 315 317 317 317 317 317 316 316 316 316 316 316 315 314 314 315 314 311 309 308 307 308 307 305 305 306 307 307 306 304 303 303 303 303 303 304 303 303 304 304
316 316 319 319 318 318 317 315 314 316 317 317 317 316 317 317 317 317 316 316 315 315 314 314 313 313 312 309 308 307 307 307 306 305 304 305 305 305 304 303 303 302 302 303 303 303 303 303 303
316 316 316 317 317 317 315 315 316 317 316 317 316 317 316 316 316 316 316 316 316 316 315 313 312 312 311 311 308 307 307 307 306 304 303 303 304 304 304 304 303 302 302 302 302 302 302 303 303
316 314 312 314 315 313 314 313 312 317 316 317 317 317 316 316 316 316 316 317 316 316 315 314 313 312 310 310 309 307 306 306 306 305 303 302 303 303 303 303 303 302 302 302 302 302 302 301 301
314 313 312 312 311 314 314 314 312 318 316 317 317 317 317 316 317 317 316 316 316 316 315 314 313 312 310 310 309 307 306 305 305 304 302 302 302 302 301 302 301 302 302 301 301 301 301 301 301
310 310 310 312 312 313 311 313 312 316 316 316 317 318 318 317 317 317 317 317 316 316 315 315 313 312 311 309 308 307 305 304 304 303 302 301 300 300 300 301 301 301 301 301 301 301 300 300 300
311 310 310 311 312 312 311 312 313 315 314 314 316 317 317 317 317 317 317 317 317 316 315 314 313 312 310 308 306 305 304 303 303 302 301 300 300 299 299 300 300 300 300 300 300 300 299 298 299
309 309 310 310 311 313 312 312 313 314 313 311 313 314 315 317 318 317 317 316 315 315 315 314 313 312 310 308 306 304 305 304 303 302 301 300 299 299 299 299 299 300 300 300 299 299 298 297 297
311 311 311 311 310 309 311 311 312 311 313 313 313 314 315 316 318 317 316 315 315 315 315 314 313 312 311 309 308 306 307 305 304 302 301 299 299 298 298 298 299 299 299 299 298 298 297 297 296
311 311 312 312 310 308 308 311 309 309 311 312 313 314 315 316 316 316 316 315 315 315 315 314 313 312 310 309 307 305 304 303 302 301 300 299 298 297 297 297 298 298 298 298 297 297 297 296 295
313 310 311 310 310 312 309 313 310 309 310 309 311 314 314 316 315 316 315 315 315 314 314 313 312 311 309 308 307 307 307 306 306 304 303 300 298 298 297 297 297 297 297 297 297 296 297 296 295
313 310 310 310 310 309 310 311 312 309 309 310 311 314 316 316 316 316 315 315 314 314 313 312 311 310 309 308 307 306 305 306 306 305 302 299 298 297 296 296 296 296 296 296 296 295 296 296 295
309 311 309 306 307 312 310 310 312 308 310 310 310 313 315 317 318 316 314 314 314 313 313 312 311 310 309 308 306 306 306 306 305 304 302 300 298 297 296 295 295 295 295 295 295 295 295 295 294
310 310 310 309 308 313 308 308 313 310 311 308 310 313 316 317 317 315 314 314 314 313 313 311 310 309 308 307 307 308 307 306 306 305 303 301 299 298 296 296 295 295 294 294 294 294 294 295 294
308 309 313 310 312 314 304 310 312 309 310 312 311 312 313 314 314 314 315 315 313 313 312 311 310 309 308 308 309 308 308 307 306 305 303 301 300 298 297 296 295 294 294 294 293 293 293 294 293
308 309 309 311 296 305 312 310 311 310 309 308 309 310 311 313 312 313 314 314 314 313 312 311 310 310 309 308 307 308 307 307 306 306 303 300 298 298 296 295 294 293 293 293 293 293 293 294 293
308 308 311 309 313 311 311 311 313 311 311 307 307 308 311 310 311 311 312 312 312 312 311 310 310 310 310 307 307 307 308 307 305 305 303 301 299 297 295 294 293 293 292 292 292 292 293 293 292
307 309 308 309 312 315 315 314 308 308 308 308 307 312 311 309 312 312 312 312 311 311 310 310 310 310 309 309 309 308 308 307 305 305 304 302 299 297 295 293 293 293 292 292 292 292 292 293 292
305 309 311 312 313 309 312 313 313 312 311 311 309 313 312 311 312 312 312 312 312 312 311 311 311 310 310 311 310 309 307 307 305 305 304 302 299 297 295 293 293 292 292 291 291 292 292 292 290

GFSSGP_850_thetae_009.txt.gz
Theta_e
316 318 320 325 318 315 317 318 316 318 318 318 318 318 317 319 319 319 323 325 325 324 319 317 314 318 330 331 329 331 331 331 333 335 333 326 325 324 326 325 325 325 325 326 321 320 321 324 325
316 318 323 325 319 316 316 316 316 315 317 319 319 319 319 318 321 323 323 322 323 323 320 317 312 314 327 335 331 332 333 332 331 329 324 323 321 320 320 322 322 322 322 322 323 322 323 323 322
318 321 325 317 315 318 317 314 314 317 317 317 317 318 319 319 320 321 322 322 322 322 318 315 314 315 318 321 321 318 322 327 329 319 316 316 315 314 315 316 316 316 317 316 316 315 316 317 318
318 321 318 318 320 317 316 314 314 316 317 317 316 315 317 319 319 320 320 320 321 322 318 315 315 316 316 316 316 316 316 316 315 314 314 313 313 312 312 312 313 312 312 312 311 310 309 310 310
320 321 314 316 315 313 311 314 314 314 315 316 316 314 316 317 318 318 317 317 317 320 320 315 315 315 315 315 315 314 314 313 313 312 311 309 308 307 306 305 305 304 304 304 304 304 304 304 304
318 317 315 316 315 314 314 315 315 314 315 315 315 315 316 317 317 318 317 316 316 318 320 315 314 314 313 313 313 312 311 310 309 308 307 305 304 304 304 304 304 304 303 303 303 303 303 303 303
317 314 316 314 316 316 316 315 314 314 314 315 316 314 317 317 317 317 317 316 316 318 320 316 314 313 313 313 311 310 309 309 308 307 304 304 305 305 304 304 303 303 303 303 304 304 304 304 304
319 312 315 313 315 317 316 315 316 315 315 317 317 314 315 317 317 317 317 316 316 316 318 316 314 314 313 312 310 309 309 309 307 305 304 305 305 305 304 303 303 304 304 304 304 305 305 306 305
318 310 311 313 315 317 316 315 316 316 315 315 317 317 317 317 317 317 316 316 316 315 316 317 315 314 313 312 309 308 309 308 305 304 304 306 306 306 305 304 304 304 304 304 304 305 305 305 306
317 309 311 311 314 316 316 315 316 316 315 314 316 317 317 317 316 317 317 317 316 315 315 316 316 315 313 312 309 308 308 308 305 303 304 305 306 306 305 304 304 304 304 304 304 304 304 305 305
315 314 313 316 318 317 316 315 317 314 311 315 316 317 317 317 316 316 316 316 317 316 315 315 316 315 314 312 310 308 308 308 306 304 303 304 306 305 305 304 304 304 304 304 304 304 304 304 304
316 316 316 317 318 318 315 316 314 315 317 317 317 317 317 317 316 316 316 316 316 316 316 315 315 315 314 313 310 308 307 308 308 305 303 305 306 306 305 305 304 304 304 304 304 304 304 304 304
315 315 318 319 317 318 317 315 313 315 317 317 317 317 316 316 316 316 316 316 316 315 315 315 314 314 314 314 312 309 307 307 307 305 303 304 305 305 305 304 304 305 304 304 303 303 303 303 303
315 315 315 315 316 316 315 315 314 316 316 316 316 316 316 316 316 316 316 316 316 316 316 315 314 313 313 313 313 310 308 307 306 305 303 303 304 305 304 303 303 303 303 303 303 303 303 303 303
315 313 310 311 313 312 314 311 310 316 315 317 317 317 318 317 316 316 316 316 316 316 315 315 315 314 313 312 312 311 309 307 306 306 304 303 303 304 303 302 302 302 303 303 303 302 302 302 302
311 311 311 311 309 312 313 312 313 315 316 317 318 318 318 318 317 317 317 316 316 316 316 315 315 314 313 312 311 310 309 307 306 305 304 303 302 302 302 301 301 302 302 302 303 302 302 302 301
308 309 309 309 310 311 310 312 311 315 316 316 317 317 317 317 317 317 317 317 316 316 316 316 315 315 314 312 311 310 309 307 306 305 304 303 302 301 301 301 300 301 301 302 302 302 301 301 301
310 308 308 309 311 309 311 310 311 316 312 314 315 315 316 316 316 316 316 316 317 316 316 316 315 315 314 311 310 309 307 306 305 304 304 303 302 301 300 300 299 300 300 301 301 301 301 301 301
309 308 308 308 309 310 310 311 311 312 313 313 312 313 313 314 315 315 315 315 315 315 315 315 315 315 313 312 310 308 308 306 305 305 304 303 302 300 299 299 298 299 299 300 300 300 300 300 300
309 310 310 311 310 308 309 310 309 309 310 312 313 313 312 313 315 316 315 315 315 315 315 315 314 314 313 312 311 309 308 307 306 305 303 302 301 300 299 298 298 298 299 299 300 299 299 299 298
309 309 311 311 309 307 307 311 310 308 309 311 312 312 313 314 315 316 315 315 314 315 314 315 315 314 313 312 310 309 307 305 304 303 303 303 301 299 298 298 297 297 298 299 299 299 298 298 298
311 308 309 309 309 311 309 312 311 310 310 309 310 312 313 315 316 316 316 314 314 315 314 314 314 313 311 311 310 310 310 309 308 307 305 303 301 299 298 297 296 296 297 298 298 298 298 297 297
311 310 308 308 308 308 309 308 311 309 309 308 308 312 315 316 316 316 316 314 315 315 315 314 313 312 311 310 310 310 309 308 308 307 306 303 301 300 298 297 296 296 296 296 297 297 296 296 296
308 310 308 305 306 310 309 309 311 308 309 310 309 314 315 314 314 314 314 315 315 315 314 314 313 312 311 310 309 309 309 309 308 307 305 304 302 301 299 297 296 296 295 295 296 296 296 295 295
309 308 309 308 307 311 307 308 313 311 311 307 310 311 313 313 313 314 313 313 313 315 314 313 312 312 311 310 310 309 308 308 307 307 307 305 303 302 301 298 296 295 295 295 295 295 295 295 295
307 308 309 309 311 314 304 309 314 309 309 309 311 311 312 314 313 312 313 312 312 313 312 313 312 311 311 311 310 309 308 307 306 306 305 306 305 304 302 299 297 296 294 294 294 294 294 294 294
307 307 308 310 300 306 311 309 310 308 310 309 307 309 311 313 314 312 311 312 311 311 312 312 311 311 310 310 310 309 307 307 306 306 304 304 304 304 302 299 298 296 294 294 293 294 294 294 294
307 307 309 307 311 312 310 311 312 311 312 310 307 309 313 314 313 311 311 311 311 312 312 311 311 310 310 309 309 309 308 307 307 306 305 305 304 304 301 299 297 296 294 293 293 293 293 293 293
306 307 307 308 311 314 315 314 313 311 308 307 307 310 312 312 313 314 311 311 311 311 311 310 311 311 310 310 310 309 308 308 307 308 306 305 304 304 302 299 297 296 294 293 292 292 292 292 292
306 309 308 310 312 311 313 314 313 313 311 308 310 312 312 311 312 313 312 312 310 310 311 310 311 311 311 311 310 309 308 307 306 308 308 305 304 304 302 300 298 296 295 294 293 292 292 292 292

GFSSGP_850_thetae_012.txt.gz
Theta_e
316 317 319 324 317 314 317 316 316 316 317 317 317 316 316 318 318 317 322 323 325 317 314 314 316 318 325 331 329 328 328 332 332 333 333 332 331 328 324 325 325 326 328 328 323 321 321 322 325
316 318 322 324 318 315 312 315 317 314 316 317 318 318 318 317 321 322 323 322 323 323 319 316 317 314 326 326 327 328 333 333 333 333 333 328 330 325 324 324 324 323 322 320 321 322 322 322 321
317 319 322 315 313 314 316 314 314 315 317 317 317 318 318 319 320 321 322 321 320 322 322 316 315 313 331 332 329 330 331 332 332 332 322 321 320 316 315 319 322 322 321 319 317 316 315 315 316
318 320 318 318 319 317 315 315 313 315 316 316 316 314 317 319 319 319 321 321 321 321 320 317 313 313 320 329 331 331 332 332 324 316 315 315 314 313 313 313 314 314 314 314 312 311 309 309 309
319 319 312 315 314 313 311 315 313 314 315 315 316 314 315 316 317 319 318 319 319 318 320 317 314 314 315 318 321 322 321 326 319 314 314 313 312 310 309 308 307 307 306 305 304 304 304 304 304
317 316 315 313 313 313 312 316 314 314 314 314 315 315 316 316 316 317 317 317 316 317 319 319 315 315 315 315 316 315 316 316 314 313 312 309 308 305 304 304 304 304 303 303 303 303 303 303 304
316 313 315 313 313 314 315 314 314 314 314 315 316 314 317 317 317 317 317 317 316 316 318 320 316 315 314 314 315 314 314 312 311 310 309 307 304 304 304 304 304 303 303 303 303 304 304 305 305
319 312 314 312 313 315 315 314 315 315 315 316 316 313 315 317 317 317 317 317 316 316 316 319 318 314 314 313 313 313 311 310 309 308 306 304 304 304 304 304 304 304 304 304 305 305 306 306 306
317 310 310 312 312 314 315 314 315 316 315 315 316 317 317 317 317 317 317 317 317 316 315 316 318 315 314 313 313 312 310 309 308 308 304 303 304 305 304 304 304 304 304 305 305 305 305 305 305
316 308 310 309 310 314 315 314 317 315 316 314 316 317 317 317 317 316 317 317 317 317 316 315 316 316 314 314 313 312 310 308 308 308 304 304 305 306 305 304 304 304 304 304 304 304 304 305 304
314 314 311 314 315 316 315 314 317 313 311 316 316 317 317 316 316 316 316 316 316 317 316 316 315 316 315 314 313 312 310 308 308 308 304 304 305 307 306 305 304 304 304 304 304 304 304 304 304
316 315 315 315 317 316 315 316 313 314 317 317 317 317 316 316 316 316 316 316 316 316 316 316 316 315 316 315 314 313 311 308 308 308 305 304 304 306 306 305 304 304 304 304 304 304 304 304 304
314 314 317 317 316 317 317 315 313 314 316 317 316 315 315 316 316 316 315 315 315 315 315 315 315 315 315 315 315 313 312 309 307 307 306 304 304 305 306 306 305 304 304 304 304 304 305 304 304
313 314 313 314 315 315 314 314 313 315 316 316 316 315 316 315 316 316 316 316 315 315 315 315 315 315 314 314 315 314 313 310 308 307 307 305 303 304 305 305 304 303 303 303 303 304 304 303 303
314 312 308 309 312 310 312 311 309 315 315 315 315 316 317 317 317 317 317 317 317 316 315 315 315 314 314 314 314 314 314 312 309 307 307 306 303 303 304 304 303 302 302 303 303 303 303 303 303
311 309 311 310 309 311 312 310 311 314 314 314 316 316 316 317 317 316 316 316 316 316 316 316 315 315 314 314 314 313 313 313 310 307 306 305 303 302 303 303 302 301 301 301 302 303 303 303 302
307 309 308 308 309 309 309 309 310 313 313 314 315 315 315 314 315 315 315 315 315 315 316 316 315 315 314 314 313 312 312 311 310 307 306 305 304 303 302 302 301 300 300 300 301 302 302 302 302
309 307 306 307 309 307 309 309 309 313 312 310 312 313 313 313 315 315 315 315 314 314 314 314 315 314 314 313 312 312 311 310 309 307 306 304 304 303 302 301 300 300 299 299 300 301 301 301 301
308 307 306 306 307 308 310 310 309 309 310 310 311 311 312 312 315 314 315 315 314 314 314 314 314 314 314 314 313 311 311 310 309 308 306 304 304 303 302 301 300 299 299 299 299 300 300 301 301
308 309 309 309 308 307 308 309 309 309 310 311 311 311 311 312 313 314 314 314 314 314 314 314 314 314 314 314 313 312 312 311 309 308 306 305 303 303 302 301 300 299 298 298 299 299 300 300 300
307 308 309 309 308 306 305 309 307 307 308 310 310 311 311 313 314 314 313 313 313 314 314 313 314 314 314 313 311 311 309 308 308 307 305 305 304 303 302 301 299 298 298 297 298 299 299 299 299
310 307 308 308 308 309 307 311 308 308 308 307 309 310 313 314 312 313 314 315 315 313 314 314 313 312 313 313 312 311 312 311 311 310 308 307 305 304 303 301 299 298 297 297 297 298 298 298 298
309 309 308 308 307 307 308 307 311 307 308 307 307 312 312 313 314 314 314 315 315 314 314 314 313 312 311 311 311 312 311 310 310 309 308 306 305 303 302 301 299 298 297 296 296 297 297 298 298
307 309 307 304 305 309 308 308 310 308 309 310 309 310 314 313 314 313 313 314 313 313 313 314 313 313 311 310 310 310 309 310 310 309 308 307 305 303 302 300 299 298 297 296 296 296 296 297 297
308 307 308 308 307 311 306 307 311 310 309 309 308 311 313 313 313 313 312 312 313 312 311 312 312 312 311 310 309 309 309 309 309 310 309 308 306 304 303 302 300 299 297 296 295 295 296 296 296
306 307 309 311 310 316 302 310 314 308 309 311 310 311 312 310 312 313 314 312 311 310 309 310 310 310 311 310 310 309 308 308 308 308 308 308 307 306 305 302 300 298 297 296 295 295 295 295 295
306 307 307 310 305 307 312 309 310 308 306 307 308 309 311 311 313 313 313 313 311 312 311 310 310 310 310 310 309 309 309 309 308 308 307 306 306 305 305 303 301 299 298 296 295 294 294 294 294
306 306 309 307 312 312 310 310 312 312 311 309 308 308 310 313 313 313 311 309 308 307 307 308 308 309 309 309 310 310 309 309 309 308 307 307 306 305 304 303 302 300 297 296 295 294 294 294 294
310 308 306 307 311 316 316 314 312 311 310 307 305 310 312 312 308 307 306 306 306 305 305 305 305 305 305 303 304 305 307 307 307 306 306 306 305 305 305 303 302 301 299 297 295 294 293 293 293
306 312 310 312 312 308 312 313 311 311 310 311 307 304 302 302 301 302 302 301 302 303 305 305 305 305 306 306 305 304 304 305 304 305 305 305 305 305 304 303 302 300 299 297 296 295 294 293 293

GFSSGP_850_thetae_015.txt.gz
Theta_e
316 317 318 323 320 318 319 319 315 316 316 316 316 317 318 317 319 320 322 323 321 318 320 324 326 328 330 329 328 327 327 325 324 325 328 325 323 322 323 321 323 326 329 322 325 322 320 322 323
315 317 320 323 320 318 314 315 318 316 315 316 317 317 318 319 320 321 322 322 323 318 315 315 318 320 324 330 330 327 326 329 331 331 332 329 329 321 319 321 324 325 322 320 320 322 321 321 321
316 318 321 317 314 315 316 315 315 315 316 317 317 317 318 319 320 321 321 322 321 321 317 314 314 314 316 327 330 327 327 333 331 332 330 330 323 318 317 319 322 322 321 321 319 317 315 314 314
317 320 317 320 319 317 315 316 312 314 315 316 316 315 317 319 320 319 319 322 320 321 321 318 315 313 315 323 326 326 331 331 332 333 328 324 321 317 315 315 317 317 316 315 314 313 311 309 308
317 318 313 314 314 314 312 314 313 313 314 315 315 315 316 317 317 318 318 319 321 321 321 321 317 312 314 328 329 329 330 332 331 319 315 319 315 314 313 313 312 312 311 309 307 305 304 304 304
317 316 315 314 312 312 312 315 313 313 314 314 314 315 316 317 316 316 317 317 319 320 319 320 318 313 313 317 321 322 323 326 325 318 314 313 312 310 308 307 305 305 304 304 304 304 304 304 304
315 313 314 313 313 314 315 314 313 314 314 315 316 314 317 317 317 317 316 317 317 317 318 319 318 315 314 315 316 317 319 320 320 316 313 311 309 306 304 304 304 304 304 303 303 304 305 306 306
318 314 314 312 314 314 314 313 314 315 315 316 316 315 316 317 317 317 317 317 317 316 316 318 319 317 315 315 315 315 315 316 315 313 311 309 306 304 304 304 304 303 303 303 304 305 306 306 306
317 312 312 313 311 313 314 313 314 315 316 315 316 317 317 317 317 317 317 317 317 316 316 316 317 319 316 314 314 314 314 314 312 310 309 308 304 304 304 305 304 304 304 304 305 305 305 305 306
315 311 311 310 309 313 315 314 316 315 316 314 315 317 316 317 316 316 316 316 317 317 317 316 315 316 317 315 314 313 313 313 311 309 309 307 303 304 304 305 304 304 304 304 304 305 305 305 305
314 315 311 312 313 314 314 313 315 314 313 317 317 317 316 316 316 316 316 316 316 316 316 316 316 315 317 316 314 313 313 312 311 309 308 306 303 304 305 306 305 304 304 304 304 304 304 304 304
315 315 314 315 316 315 314 315 313 315 316 316 316 316 316 316 315 315 316 316 316 315 316 316 316 316 315 316 315 314 313 313 311 309 308 307 304 304 305 306 305 304 304 303 304 304 304 304 304
313 313 316 316 316 316 316 315 314 315 315 315 315 315 315 315 315 316 316 316 315 315 315 315 315 316 316 315 316 315 314 313 312 309 308 308 304 303 304 305 305 304 304 304 304 304 304 304 304
312 313 313 313 314 314 313 314 312 314 314 315 314 315 315 314 315 316 316 317 316 316 316 315 315 315 315 315 315 315 315 314 313 310 308 307 306 303 303 305 305 305 305 304 303 303 303 303 303
313 311 309 308 311 310 311 311 309 314 314 314 314 315 315 316 315 315 316 316 316 316 316 316 315 315 315 315 315 315 315 315 314 312 309 307 306 304 303 303 304 304 303 303 303 303 303 303 303
310 309 310 310 308 310 312 311 311 313 312 313 314 314 314 314 315 315 315 315 314 315 315 315 315 315 314 314 315 314 314 314 314 313 311 308 306 305 302 302 303 303 302 302 302 302 302 302 303
307 310 308 308 308 309 309 310 309 313 311 311 312 312 313 314 314 315 315 314 314 313 313 313 314 314 315 314 314 314 314 314 314 314 312 309 306 305 303 301 302 302 302 301 301 302 302 302 302
309 307 306 308 309 306 308 309 309 311 310 310 310 310 311 311 313 314 313 313 313 313 313 313 313 313 313 313 313 313 313 313 313 313 313 311 308 305 304 301 301 301 301 300 300 300 301 301 301
308 306 306 305 306 307 310 309 309 309 309 309 310 310 310 311 314 312 313 313 314 314 314 314 313 313 313 313 313 312 313 313 313 312 312 311 309 306 304 302 301 301 300 300 300 299 300 300 300
307 308 308 308 307 305 307 309 309 309 310 310 310 310 311 312 313 313 312 313 313 314 314 314 313 313 313 313 313 312 313 313 312 312 311 311 309 306 305 303 301 301 300 299 298 299 299 299 300
306 307 309 308 306 306 305 308 307 309 308 310 311 311 312 311 312 312 313 313 314 314 313 313 312 313 313 312 312 311 311 310 311 311 311 310 309 307 305 303 302 301 300 299 299 298 299 299 299
309 307 307 307 308 309 307 310 308 309 309 307 309 311 312 312 311 312 313 312 314 314 314 313 313 312 312 311 311 311 312 312 313 312 311 310 308 307 306 304 303 302 300 299 298 298 298 298 299
309 308 308 307 307 306 307 307 308 307 308 308 308 312 311 312 310 313 314 312 311 311 311 311 311 310 309 310 311 310 309 310 310 310 311 310 308 306 305 305 303 301 300 299 298 297 297 297 298
307 308 305 303 305 309 308 308 310 308 309 309 310 312 309 311 312 313 313 311 310 311 309 309 309 309 307 306 307 307 307 308 308 308 309 309 308 307 305 303 303 302 301 299 298 296 296 297 297
308 307 309 310 308 313 305 306 310 308 308 309 309 310 309 310 311 309 310 310 310 311 310 309 307 306 305 306 305 305 305 305 306 307 307 308 308 307 306 305 304 302 301 300 298 296 296 296 296
307 308 314 317 313 317 303 313 314 307 309 309 309 308 308 306 305 304 306 307 307 308 309 310 308 305 304 304 304 303 303 303 302 303 305 306 306 307 307 306 304 303 302 300 297 295 295 295 296
306 308 308 310 308 309 313 311 313 308 307 306 307 303 301 300 300 301 302 303 304 305 306 305 306 305 303 302 302 303 303 303 302 302 302 303 304 305 305 305 304 304 303 301 299 297 296 295 295
306 306 309 308 313 315 313 311 313 310 307 304 301 300 301 303 302 300 299 299 299 300 302 303 303 303 303 303 303 303 301 301 301 302 304 304 304 303 303 304 303 303 302 301 299 297 296 295 295
306 306 306 308 313 316 316 315 309 308 303 302 301 299 298 299 299 301 301 300 298 298 299 299 300 300 301 302 303 304 303 302 301 302 302 302 303 303 303 303 302 302 302 301 299 298 296 295 294
309 310 309 315 316 312 315 315 311 304 302 300 296 295 294 294 294 296 296 295 296 296 296 296 297 298 299 299 300 301 302 303 303 301 300 299 300 301 301 301 302 301 301 301 300 298 297 295 295

GFSSGP_850_thetae_018.txt.gz
Theta_e
316 317 317 323 325 323 323 324 321 323 322 319 317 320 322 321 322 322 321 322 318 321 327 330 330 330 331 332 332 330 328 327 326 326 325 325 325 323 322 322 322 324 322 321 324 321 320 321 322
315 316 319 323 322 321 319 322 324 322 319 317 317 318 320 322 320 320 321 322 321 318 325 328 328 329 329 328 326 327 327 326 325 324 326 328 328 326 323 322 322 324 322 321 320 321 322 321 321
315 316 322 322 322 320 321 322 321 319 317 318 320 318 320 321 320 320 321 322 322 318 321 322 325 326 326 326 324 325 325 325 330 329 331 332 329 324 318 319 324 324 322 321 320 319 317 315 314
316 320 319 321 321 322 321 321 320 320 317 316 317 320 317 318 319 320 319 320 322 320 317 316 316 319 319 319 323 327 325 325 334 331 332 329 325 320 316 315 317 320 319 318 315 314 313 310 309
317 319 320 321 320 320 320 318 317 319 318 318 317 320 318 318 317 317 318 318 321 321 320 317 314 314 315 315 319 325 325 331 333 332 328 317 314 314 314 313 313 314 314 313 311 307 304 304 304
319 319 320 320 319 319 319 318 317 318 318 317 317 318 319 317 317 317 316 317 319 321 321 321 319 316 313 315 324 325 329 332 332 328 318 314 312 313 312 311 310 309 308 305 304 303 303 304 304
319 319 319 320 320 320 320 315 318 319 318 319 317 319 319 317 317 317 317 316 317 320 321 320 321 318 314 314 323 325 326 330 332 328 317 313 312 311 309 307 305 304 304 303 303 304 304 305 306
319 320 320 320 320 319 318 316 316 317 318 316 316 319 319 318 317 317 317 317 317 317 318 319 320 320 316 313 315 321 321 323 325 320 315 312 311 308 305 304 304 304 304 304 304 305 306 306 307
317 320 320 319 318 318 317 318 314 316 316 315 317 317 318 317 317 317 316 316 317 317 317 317 318 319 318 316 314 316 318 320 320 320 315 312 310 307 304 303 304 304 303 304 305 305 305 305 306
319 320 319 318 317 317 317 316 317 316 318 318 316 316 317 317 316 316 316 316 316 316 317 317 317 317 319 318 316 315 315 316 317 316 313 311 309 305 304 304 304 304 303 304 304 304 305 305 305
319 320 319 317 315 314 316 316 315 317 319 318 318 317 317 316 316 316 316 316 316 316 316 316 316 316 317 318 317 315 315 315 315 314 312 310 308 304 303 304 304 304 304 304 304 304 304 304 304
319 318 318 318 316 316 316 316 316 316 317 317 317 316 315 315 315 315 315 315 315 315 316 316 316 316 316 316 318 316 315 314 313 313 312 310 308 305 303 304 305 304 303 304 303 304 304 304 304
317 318 317 317 315 315 316 316 317 316 316 316 316 314 314 314 314 314 314 315 315 315 315 315 315 316 316 316 316 317 316 314 314 313 312 310 308 307 304 304 305 304 304 304 303 303 303 304 304
315 315 315 315 315 315 315 316 314 315 314 314 314 314 314 314 314 315 315 316 316 316 316 315 315 315 315 316 316 316 316 315 314 314 313 311 308 307 304 303 304 304 304 303 303 303 303 303 303
313 315 315 315 314 314 313 315 315 315 314 313 314 314 314 314 314 314 314 315 315 315 315 315 315 315 315 315 315 316 316 316 315 315 314 312 309 308 306 303 303 304 304 303 303 303 303 303 303
314 313 315 316 312 312 314 316 316 315 313 313 314 314 314 314 314 313 313 313 313 313 313 313 313 315 315 315 315 315 315 315 315 315 314 313 311 308 306 304 302 303 303 302 302 302 302 302 302
315 315 315 315 313 312 314 315 315 313 313 313 313 313 313 313 313 313 312 312 313 313 313 313 313 313 314 314 314 314 315 315 315 315 315 314 312 309 307 305 302 302 302 302 302 302 302 302 302
317 316 314 314 315 313 313 313 313 312 312 312 312 313 313 313 313 312 311 312 312 313 313 313 313 312 312 312 312 313 314 314 315 315 315 315 314 311 307 306 303 302 301 302 301 301 301 301 301
314 314 314 314 314 313 313 314 314 313 312 312 313 313 313 313 312 311 311 311 311 312 312 311 311 312 311 312 311 311 312 313 314 314 314 315 314 313 309 307 305 302 301 302 301 300 300 300 300
313 314 314 314 313 310 313 313 313 313 313 313 313 313 313 312 312 311 311 311 311 312 312 312 311 310 311 311 311 310 310 311 312 313 314 315 315 314 311 308 306 304 301 300 300 300 300 299 299
314 313 314 315 313 312 311 315 314 315 314 313 311 312 310 310 310 309 307 307 310 311 311 311 312 309 308 308 308 308 308 309 310 310 311 313 314 314 312 309 307 304 301 300 301 300 299 299 299
314 314 312 312 312 315 311 317 317 316 316 315 313 312 311 310 309 307 308 309 310 310 310 310 309 309 309 308 306 305 306 307 308 309 309 309 311 313 313 310 307 305 302 300 300 300 299 298 299
314 310 310 310 312 311 314 313 319 313 314 314 313 311 309 308 306 304 303 303 305 308 311 310 308 308 306 306 305 304 304 304 304 305 307 307 308 309 312 311 308 304 301 300 301 300 298 298 298
308 310 310 310 311 316 317 315 318 316 314 313 311 307 306 305 303 302 304 306 307 308 307 307 307 307 306 305 304 304 303 302 302 303 304 305 305 306 307 310 308 304 302 300 301 300 299 298 297
309 311 319 322 322 323 311 314 314 315 311 310 308 305 304 303 303 302 303 304 306 305 305 305 304 304 304 304 303 304 303 302 302 302 302 302 302 303 305 306 308 305 302 300 300 299 299 298 297
311 313 321 324 324 324 316 317 318 316 309 307 305 304 303 302 301 301 301 302 301 301 302 302 303 302 303 303 303 302 302 302 301 301 301 301 301 302 302 303 304 305 303 301 300 299 299 297 297
312 312 313 317 317 318 316 316 316 313 309 307 306 304 301 300 299 299 300 300 300 299 300 300 301 301 301 301 302 303 303 302 301 301 301 301 301 300 300 301 302 303 304 302 300 300 299 298 297
309 312 316 312 316 319 316 316 317 312 310 307 305 302 299 298 298 298 297 295 296 297 298 298 298 299 299 300 301 301 301 301 302 302 301 300 300 300 300 299 300 301 302 302 301 300 299 298 296
311 309 309 310 313 319 319 317 313 311 308 306 302 298 297 296 296 297 296 296 296 296 297 297 297 297 298 299 299 300 301 300 300 301 302 302 300 299 298 298 299 300 300 300 300 300 300 299 298
310 313 313 315 316 314 315 316 309 306 304 300 297 296 295 294 294 294 295 294 293 292 292 293 294 294 293 293 296 296 296 299 299 299 299 300 302 302 300 298 297 298 299 299 299 299 299 299 298

GFSSGP_850_thetae_021.txt.gz
Theta_e
317 317 318 325 327 324 324 325 324 325 324 321 320 322 322 321 322 325 321 322 321 326 329 329 331 334 334 333 331 330 329 329 328 334 329 328 327 326 323 322 322 325 322 324 324 323 320 320 322
315 316 322 322 325 324 322 323 324 323 322 320 321 321 322 322 322 322 324 322 321 318 330 328 329 331 332 332 333 331 328 327 327 328 325 324 325 324 323 324 322 323 321 323 320 319 321 321 321
315 316 322 324 323 324 324 323 323 322 321 320 321 321 321 322 321 323 321 321 322 318 325 328 329 330 330 332 331 330 329 327 326 329 327 334 332 327 323 320 322 322 321 322 320 319 318 316 314
320 321 321 322 323 322 322 322 322 322 321 320 320 322 321 319 321 320 319 318 322 320 319 323 325 329 330 330 329 327 326 326 326 331 331 331 331 326 320 316 316 318 318 318 317 314 313 312 310
319 320 322 322 322 321 321 320 321 322 322 321 320 321 321 320 317 317 317 318 320 321 318 319 319 322 324 325 326 325 327 326 328 333 331 329 327 316 316 315 314 314 315 315 313 311 306 304 304
320 320 322 322 321 320 321 321 321 321 321 321 319 320 320 319 317 317 317 316 318 322 321 319 317 316 316 315 316 318 326 325 329 334 331 327 324 313 313 313 312 312 312 310 306 304 303 303 304
321 322 322 322 321 321 321 319 321 320 320 320 320 319 319 319 318 317 317 317 317 320 320 321 319 317 315 315 314 315 319 322 329 332 329 326 317 312 312 311 310 308 306 304 304 304 304 304 306
321 321 321 321 320 320 320 319 319 319 319 318 318 320 320 320 318 317 317 317 317 317 318 320 320 320 319 316 314 319 322 324 328 330 327 324 316 311 310 308 306 304 304 303 303 303 305 306 306
319 321 321 321 320 319 319 319 318 318 317 318 318 318 318 318 317 317 316 316 316 317 317 318 319 321 320 319 315 318 325 325 326 326 324 320 314 311 309 306 304 304 304 303 303 304 305 306 306
320 322 321 320 319 319 318 318 318 318 318 318 319 319 319 318 317 316 317 319 317 316 316 317 318 318 320 324 325 316 319 324 324 324 322 318 315 311 309 305 304 304 304 303 304 305 305 305 306
321 321 320 320 319 318 318 317 317 318 318 318 318 318 318 318 318 317 317 318 320 322 320 316 317 318 319 319 321 320 315 317 321 323 323 318 316 312 309 304 304 304 303 303 304 304 305 305 305
321 319 319 319 319 318 318 317 317 317 317 317 317 317 317 317 317 317 317 317 318 319 322 319 316 317 317 318 319 319 319 316 317 320 323 318 317 312 309 305 304 304 304 304 304 304 305 305 305
319 318 318 318 318 318 317 317 317 317 317 317 317 317 317 317 316 316 316 316 315 315 316 317 316 316 316 317 318 318 319 319 318 319 319 316 314 311 309 305 304 305 305 304 305 304 304 305 305
317 317 317 316 316 316 316 317 316 316 316 316 316 316 316 316 316 316 315 315 315 315 315 316 315 315 315 316 317 317 317 319 319 319 317 315 314 312 309 307 304 304 305 304 304 304 304 304 304
315 316 317 317 317 317 315 316 317 317 317 316 315 315 315 315 315 315 315 315 315 315 314 315 315 315 315 315 315 316 317 318 319 318 317 315 314 313 311 308 305 303 304 304 303 303 303 303 303
316 317 317 318 316 315 315 316 317 316 315 315 315 315 315 315 315 315 315 315 314 314 315 314 313 313 314 314 315 315 316 318 319 319 318 316 315 314 312 308 306 303 303 304 303 303 303 302 302
318 318 318 318 317 315 315 316 316 315 315 315 315 315 315 315 315 315 314 313 313 313 313 313 312 312 312 313 315 316 317 318 318 319 320 318 316 315 314 310 307 304 303 303 303 302 302 302 302
320 320 319 318 318 317 317 317 317 316 316 315 315 315 315 315 314 312 311 310 310 310 311 311 311 311 311 311 313 316 317 318 320 319 319 318 317 315 315 312 308 305 302 302 302 302 301 301 301
317 317 318 318 318 318 317 316 316 315 315 315 316 317 316 315 312 310 309 308 309 309 310 310 310 310 310 311 312 313 316 317 318 318 318 318 317 316 315 314 310 307 304 301 301 301 300 300 300
316 316 317 317 317 316 316 315 315 316 316 316 316 316 315 313 311 308 308 309 309 309 309 310 309 308 308 308 311 313 315 316 317 317 316 316 316 315 315 314 313 310 306 302 300 300 300 299 300
316 316 317 317 316 314 314 316 319 317 319 317 315 313 312 310 308 306 305 307 308 309 308 307 307 307 306 306 308 309 310 311 312 312 312 314 313 313 314 314 314 312 309 306 302 300 299 300 300
316 316 314 314 314 318 315 318 318 319 319 316 314 312 310 308 306 305 304 305 306 305 306 306 307 306 306 306 306 306 308 307 308 307 308 309 309 310 311 312 313 314 312 307 304 301 299 299 299
315 313 312 313 314 316 317 318 319 319 318 315 311 310 307 306 305 304 303 304 305 305 305 305 306 307 307 305 304 304 304 304 305 305 305 304 304 305 306 308 310 310 311 311 308 304 300 299 298
311 312 313 314 315 320 320 319 319 318 315 313 310 308 307 306 304 303 302 302 302 303 303 303 304 304 304 304 304 302 302 302 303 303 302 302 303 303 303 303 305 307 308 309 308 306 302 300 299
311 313 319 320 323 325 318 319 319 317 314 312 310 307 306 304 303 302 300 300 299 298 300 303 304 305 304 303 303 303 302 301 300 301 301 301 301 301 301 301 302 303 305 306 306 306 304 301 299
316 316 319 320 322 323 320 322 320 316 310 309 308 306 304 303 302 301 299 298 298 298 301 301 302 302 303 303 302 301 302 302 302 300 300 300 300 300 300 300 300 301 301 302 303 304 303 300 299
316 315 315 317 317 320 319 319 319 316 311 309 308 305 303 302 301 301 299 297 297 296 296 296 298 299 300 300 300 301 301 300 300 301 301 300 298 298 299 299 298 298 299 299 300 301 301 301 300
311 310 316 316 319 319 317 317 317 316 314 310 307 303 301 300 300 299 298 296 295 296 296 296 296 296 295 296 297 297 297 298 299 299 300 300 300 299 298 298 298 298 297 297 299 299 299 299 299
313 312 313 314 316 319 319 316 313 313 311 308 303 300 298 297 296 297 297 294 293 293 293 293 292 291 291 291 292 292 292 293 293 295 297 297 298 299 300 299 298 297 297 297 296 297 297 298 299
313 313 313 315 316 314 315 317 312 309 305 303 300 299 297 296 294 294 295 294 291 290 290 290 290 289 289 288 289 289 289 289 290 291 292 293 295 296 297 299 299 298 298 296 296 296 296 296 296

GFSSGP_850_thetae_024.txt.gz
Theta_e
315 318 318 323 327 326 326 325 323 323 323 321 321 321 320 321 321 324 321 321 322 327 325 330 331 332 332 333 333 332 331 331 331 330 328 327 326 328 326 325 329 329 321 322 322 323 319 319 320
315 317 323 324 325 326 322 322 323 322 322 321 321 321 321 321 322 323 325 321 322 321 319 328 329 332 332 332 332 330 329 328 327 334 331 328 326 326 325 331 332 323 321 322 321 320 320 321 321
315 316 323 324 323 323 323 323 322 322 322 321 321 322 321 321 322 323 323 320 322 320 317 323 327 329 331 332 330 331 330 328 327 332 335 331 327 327 326 325 326 322 320 323 322 320 319 317 315
321 321 321 321 324 321 321 320 321 321 321 320 320 319 321 320 319 318 318 318 320 320 320 321 326 328 329 330 331 331 329 328 327 333 330 331 331 327 323 321 317 318 319 322 319 316 314 313 312
319 321 322 323 322 320 320 320 321 321 322 321 320 320 320 320 318 317 317 316 318 321 320 319 321 328 329 329 329 329 327 326 326 329 331 331 327 326 317 319 315 314 315 316 314 313 310 306 305
321 319 322 323 321 320 321 321 321 321 321 320 320 319 320 320 318 317 317 317 316 319 321 320 320 321 326 329 329 328 326 324 325 329 331 331 327 322 314 313 313 312 313 313 310 306 304 304 304
321 322 322 321 320 320 321 320 320 319 319 319 320 318 319 320 319 317 317 317 317 319 319 321 320 318 319 321 323 324 323 323 325 326 328 332 327 322 313 312 311 311 310 307 305 304 304 304 305
320 320 320 321 320 320 319 319 319 319 318 318 318 317 320 319 319 318 317 316 317 318 319 320 320 319 318 317 315 316 317 320 325 328 329 331 326 320 314 311 310 308 306 305 305 304 304 305 306
319 319 320 321 321 320 319 318 319 318 318 318 318 318 318 318 318 317 316 316 316 317 318 317 319 319 319 318 317 316 314 317 322 325 329 331 328 322 314 311 309 306 305 305 305 305 305 306 306
320 321 321 320 319 318 318 318 318 317 318 318 318 318 319 319 318 318 317 316 317 317 317 317 317 318 318 319 319 318 315 319 325 325 328 330 329 324 316 310 308 305 305 305 304 305 305 306 306
321 320 320 319 319 319 318 317 317 317 316 318 317 317 317 317 317 318 318 317 317 319 320 319 317 318 320 320 321 319 317 316 324 324 324 325 324 323 318 311 308 305 305 305 305 305 306 306 306
319 320 319 319 319 318 318 318 317 317 317 317 317 317 317 317 317 317 317 317 317 317 319 320 320 319 320 321 322 323 321 319 319 323 325 322 321 319 317 312 309 305 305 305 305 305 305 305 306
318 319 319 318 318 318 317 318 317 317 317 316 317 317 317 316 316 316 316 316 316 316 316 318 319 319 318 319 320 322 322 319 319 320 322 322 322 317 316 314 310 305 305 305 305 305 305 305 305
317 317 316 316 316 316 316 316 316 316 316 317 316 317 316 316 316 316 316 315 315 315 315 315 318 318 319 317 317 318 319 321 320 319 319 321 320 319 316 316 311 308 305 304 306 305 305 305 305
316 315 315 316 317 316 317 314 314 316 316 315 315 316 315 315 316 315 315 315 315 315 315 315 315 318 318 317 317 318 319 320 322 321 322 322 321 321 318 315 312 309 305 304 305 304 304 304 305
315 314 315 317 316 314 314 314 314 317 316 316 316 315 316 315 315 315 315 314 314 314 314 314 314 315 318 318 318 319 320 323 324 325 324 324 322 321 318 316 314 310 307 304 304 304 304 304 304
314 315 316 317 318 314 314 314 315 316 316 316 316 316 316 315 313 313 313 313 313 313 313 313 313 313 313 315 318 320 322 323 325 326 325 325 324 322 320 317 316 313 309 306 303 303 303 303 303
317 317 317 316 317 316 315 314 315 316 316 315 315 315 316 311 310 310 310 309 310 310 311 312 312 312 312 312 314 319 322 322 323 324 324 325 324 322 321 319 317 315 310 307 303 303 302 302 302
315 316 316 315 316 315 315 314 314 315 315 314 315 316 312 310 309 308 307 307 307 308 308 309 310 310 311 311 312 315 319 321 321 323 322 323 322 321 320 319 317 315 313 308 305 302 302 301 300
315 315 314 315 316 315 314 313 313 313 314 315 316 313 310 308 308 307 307 306 307 308 307 308 308 308 309 309 312 314 315 316 318 318 319 320 319 318 318 318 316 314 313 309 305 302 301 300 300
315 315 315 315 314 313 313 313 314 316 317 313 311 309 308 307 307 306 306 306 307 307 308 308 308 307 307 306 308 309 311 314 315 316 316 316 316 315 315 315 315 314 312 310 307 303 301 300 300
315 314 315 314 313 313 313 316 317 315 315 311 309 308 307 306 305 304 304 304 305 305 305 305 305 306 306 306 306 308 309 308 307 307 307 307 310 312 312 312 312 312 311 311 310 306 302 300 299
315 311 312 312 312 312 314 314 317 316 313 310 308 307 306 304 303 303 302 302 303 303 305 305 304 303 302 303 304 305 305 305 305 306 306 305 304 304 304 307 309 309 309 308 308 307 303 300 299
311 311 311 310 311 315 316 317 317 314 311 309 308 307 305 304 302 301 301 302 303 303 303 303 304 304 303 303 303 302 302 303 303 303 303 302 302 302 302 302 303 305 306 306 306 306 305 303 300
311 312 315 317 315 317 316 316 316 314 310 309 308 306 304 302 301 300 301 302 302 302 303 303 302 302 302 301 300 301 301 302 302 301 301 301 301 300 300 301 301 301 302 303 304 304 303 304 302
314 315 316 315 314 314 314 316 316 311 309 308 306 304 303 302 301 300 299 299 298 299 298 299 300 300 300 300 300 298 300 301 300 301 301 301 300 299 299 299 299 299 299 299 300 301 301 302 302
314 314 313 313 308 311 314 314 314 310 308 306 305 303 302 301 301 300 298 297 297 296 296 295 295 295 296 296 296 296 298 298 298 299 298 298 299 300 300 299 298 298 298 297 298 298 299 299 299
310 310 314 314 319 314 314 313 313 312 309 306 303 301 300 299 298 298 297 295 294 293 292 291 290 290 290 290 290 291 291 292 293 295 295 294 295 296 297 299 299 299 298 297 296 296 297 297 297
310 311 311 312 313 313 313 311 310 309 307 303 301 300 299 297 296 296 297 296 292 291 290 289 289 289 289 289 289 289 289 289 289 290 290 291 291 291 291 293 295 297 298 298 297 296 295 295 296
309 311 312 313 311 311 313 313 308 305 303 302 301 300 299 298 295 293 294 293 291 289 289 288 288 288 288 288 287 288 288 288 288 288 288 288 289 289 289 289 290 290 293 296 297 297 296 294 294

GFSSGP_850_thetae_027.txt.gz
Theta_e
314 317 317 323 319 317 319 322 319 319 320 320 320 320 319 319 319 320 321 322 324 325 325 332 333 333 332 333 333 333 332 332 331 331 330 328 325 326 330 329 328 321 320 321 321 323 318 319 321
314 317 322 323 318 318 316 319 320 320 321 320 321 321 320 319 321 322 322 321 322 324 322 328 330 332 332 332 332 332 331 330 329 328 327 326 326 327 330 331 328 320 320 320 321 319 319 320 320
315 317 321 316 316 317 318 318 318 319 321 320 320 321 320 321 321 321 321 320 320 322 320 326 328 329 330 331 331 331 329 328 327 329 330 328 325 322 322 323 323 322 319 320 320 318 318 317 315
320 321 320 315 320 318 318 317 319 319 320 320 320 318 320 320 319 318 317 318 318 320 319 323 327 329 330 330 330 329 329 328 327 329 332 332 326 324 325 322 320 316 317 318 318 316 314 313 312
320 320 315 318 319 318 317 319 321 320 320 320 320 318 319 320 318 316 316 316 317 318 319 319 324 327 329 330 330 330 329 327 325 326 332 331 327 325 324 321 320 315 314 315 315 314 312 309 307
320 317 315 317 317 317 318 320 320 319 319 319 319 318 318 320 317 317 316 316 316 317 318 319 319 322 326 328 329 330 330 329 326 326 327 328 328 326 321 316 315 314 313 313 312 310 306 304 304
319 314 317 318 318 317 319 319 318 317 316 318 319 317 318 319 319 318 317 317 316 316 317 318 319 319 321 325 328 329 329 328 327 326 330 331 330 328 319 316 312 312 312 311 309 305 304 304 305
319 314 318 316 316 318 318 318 318 318 317 318 318 315 318 318 318 318 317 316 316 317 316 317 319 320 320 319 322 324 326 327 326 326 329 331 332 331 324 318 312 311 310 308 305 304 304 305 306
318 313 314 318 316 316 317 316 318 318 318 318 318 318 318 317 318 318 317 317 316 317 319 318 318 318 320 319 319 320 319 319 321 329 331 328 330 331 326 322 313 310 308 306 305 304 304 306 307
317 314 317 317 316 316 317 316 316 316 316 316 316 316 317 317 317 318 318 318 317 316 317 317 317 317 318 319 318 318 318 317 317 323 328 326 328 330 329 325 316 310 307 306 306 305 305 306 306
319 315 317 319 318 318 317 317 317 316 313 316 316 317 317 317 317 317 317 317 316 317 316 318 320 318 317 318 319 319 318 318 317 318 323 325 326 328 327 324 317 311 307 305 306 306 306 306 306
318 318 319 318 318 317 317 318 317 317 317 316 316 317 317 316 316 316 316 316 316 316 316 316 318 320 320 318 318 318 320 319 318 318 326 327 326 325 323 320 318 312 309 305 306 304 305 306 306
315 316 318 318 317 317 316 316 316 316 316 316 316 316 316 316 316 315 315 316 316 315 316 315 315 317 318 321 320 320 320 321 322 321 325 330 329 324 320 317 318 316 310 306 305 305 305 305 306
315 315 315 315 315 315 314 314 316 316 316 315 315 315 315 315 314 315 315 315 315 316 315 315 315 315 316 319 321 321 324 324 324 325 324 324 331 329 324 320 318 317 313 308 305 305 305 305 305
315 314 312 313 314 313 315 314 313 316 315 316 316 316 317 314 314 314 313 314 314 314 315 315 315 315 315 318 320 322 324 328 327 326 326 325 326 329 326 323 321 319 316 310 305 304 305 304 305
314 313 313 313 314 314 314 313 313 316 316 316 316 316 315 312 312 312 312 313 313 313 314 314 315 315 314 316 319 320 322 325 327 327 326 326 326 328 327 325 323 322 318 313 308 305 305 305 304
312 312 312 314 314 313 312 311 313 316 316 316 315 314 311 311 310 309 310 311 312 312 312 312 313 314 316 315 317 319 320 322 324 326 329 330 328 329 328 326 325 323 319 315 310 306 305 304 303
313 313 314 314 314 313 313 310 310 315 315 314 314 311 309 308 306 307 308 308 309 309 310 311 311 313 314 315 317 321 322 323 323 325 327 326 326 325 326 326 324 322 320 317 313 309 306 304 302
313 314 313 312 312 313 312 311 311 314 314 311 311 307 307 306 305 306 307 307 307 308 308 309 310 311 311 311 312 314 319 322 323 324 323 323 323 322 321 322 323 321 320 318 316 311 307 304 302
313 313 312 312 313 313 311 311 310 311 311 312 308 307 306 305 306 305 306 306 306 306 307 307 308 308 309 309 311 313 314 317 319 320 321 320 320 319 319 318 319 319 318 317 315 312 308 305 301
313 313 312 313 312 310 311 311 311 312 308 307 307 306 306 304 303 303 304 304 304 305 305 305 306 306 306 307 309 311 313 314 316 317 318 317 317 316 316 315 315 315 313 314 315 313 309 305 302
314 312 313 313 311 310 311 312 313 312 308 306 305 305 304 303 303 303 303 303 303 304 305 305 305 305 305 306 306 307 308 309 309 308 308 309 311 314 313 312 312 312 311 309 310 311 309 306 302
312 310 311 311 310 310 310 311 311 309 309 307 304 303 302 302 302 302 302 302 302 303 304 304 305 306 305 304 304 304 304 305 305 306 306 305 305 305 305 307 309 309 308 308 306 306 307 306 303
309 310 310 309 308 312 312 313 313 311 309 306 304 303 302 301 302 302 302 302 303 303 304 304 304 304 304 304 304 304 303 303 302 303 303 302 302 302 302 301 302 303 305 306 305 305 304 304 303
309 310 313 312 310 313 312 312 313 311 308 306 303 301 301 301 301 301 301 301 301 301 301 302 302 302 302 302 302 301 301 302 302 302 301 301 300 300 300 300 301 301 300 301 304 304 303 303 303
310 312 311 310 312 310 311 313 312 305 304 303 302 302 302 301 300 300 300 300 300 300 299 297 297 298 298 298 299 298 298 297 296 296 296 297 299 299 299 298 298 299 299 299 299 300 302 302 301
312 313 311 312 301 307 311 312 308 305 303 302 301 302 301 300 300 300 299 299 299 299 297 295 293 292 292 292 292 292 292 293 292 291 292 292 292 293 294 296 298 298 298 297 297 298 298 298 300
311 309 312 310 309 309 312 311 310 307 304 301 300 300 300 299 299 299 300 299 296 293 292 291 290 289 290 290 290 290 289 289 289 290 290 290 289 288 289 290 291 292 294 297 298 297 296 296 297
309 310 310 311 311 310 309 309 309 308 303 300 299 300 301 301 300 298 297 296 293 290 289 289 289 288 288 288 288 288 288 288 287 287 288 288 288 288 287 287 288 288 288 289 290 294 296 296 295
308 309 310 310 309 308 311 312 307 303 301 302 301 302 303 302 299 296 295 293 291 290 289 288 288 288 288 288 288 288 287 287 287 287 287 287 287 287 287 287 287 287 287 287 287 287 288 290 294

GFSSGP_850_thetae_030.txt.gz
Theta_e
314 316 318 324 318 314 318 320 318 319 319 320 320 319 318 319 318 317 321 321 321 324 328 332 333 333 333 333 332 333 333 333 332 332 332 331 327 324 324 325 322 320 320 319 320 321 318 320 321
314 316 323 323 316 315 315 316 319 319 320 320 320 320 319 318 321 321 321 319 321 323 324 331 332 332 333 333 333 332 331 331 330 330 330 328 325 325 327 324 320 318 319 319 320 318 319 320 320
315 317 321 313 312 315 316 317 317 318 320 320 319 320 319 320 321 321 320 318 318 322 322 327 332 332 332 332 331 331 331 330 328 327 327 326 325 325 323 322 322 320 318 319 320 318 318 318 317
320 321 318 314 319 316 315 315 317 318 319 319 319 318 320 320 319 318 317 317 317 319 321 322 329 331 332 332 332 332 331 328 327 327 332 328 327 324 323 324 322 319 316 317 317 317 315 313 312
319 319 313 316 316 315 316 318 319 318 318 319 319 317 318 319 318 316 316 316 316 317 320 320 324 328 329 330 331 331 331 329 328 332 329 329 326 325 324 325 322 318 314 315 315 315 313 312 309
320 315 313 316 317 315 317 318 319 317 316 318 318 317 317 320 317 316 316 317 316 316 317 319 321 325 327 328 329 330 330 329 328 331 331 332 330 328 326 325 318 316 314 313 314 313 311 306 305
317 311 314 316 316 317 318 318 317 316 315 317 318 316 317 319 319 318 317 317 316 316 317 319 321 322 325 327 329 330 330 330 329 327 327 328 330 329 329 324 317 313 312 312 312 310 305 304 304
319 312 316 314 314 317 316 317 317 317 316 317 317 313 316 317 318 317 317 317 316 316 316 317 319 320 320 321 324 329 330 330 330 328 325 328 330 328 326 324 318 312 311 310 309 306 304 304 305
317 311 313 316 315 315 317 314 317 317 316 316 317 317 316 316 317 317 317 317 317 317 316 316 318 319 321 321 322 321 324 327 330 329 328 328 330 328 326 327 320 315 311 309 306 305 304 304 306
315 310 313 315 315 316 316 316 316 316 315 316 315 315 315 316 316 316 317 317 316 317 317 316 316 317 320 321 322 321 324 331 332 330 329 328 329 328 325 329 325 320 312 309 305 305 304 305 306
316 313 314 317 317 316 316 316 317 316 314 315 316 316 316 316 316 316 316 316 316 316 316 316 316 317 318 318 319 322 323 323 325 326 328 329 336 334 328 330 328 323 315 310 306 305 304 305 306
317 318 317 318 318 317 315 316 316 316 316 316 315 315 316 316 315 315 314 315 315 316 316 316 316 316 317 319 319 319 320 321 323 321 322 327 332 331 329 327 329 327 321 312 307 305 305 305 306
315 315 316 317 316 315 315 314 314 315 316 316 315 315 314 315 315 314 314 315 315 315 316 315 317 316 316 318 319 320 320 321 321 321 321 323 328 333 332 327 322 324 324 317 310 305 305 305 306
314 314 314 315 315 314 313 312 314 316 316 316 315 314 314 314 314 314 314 315 314 314 315 315 315 316 316 317 318 319 321 321 323 325 325 325 331 333 331 330 323 320 320 321 315 307 304 304 304
314 313 311 312 313 312 313 313 312 316 315 315 314 314 314 314 312 312 312 313 313 313 314 315 315 315 315 315 318 321 323 323 325 327 328 328 329 327 329 328 330 325 325 323 320 312 305 304 303
313 311 311 313 313 314 313 313 312 316 316 315 312 312 312 310 310 310 310 311 312 312 313 313 314 315 315 315 320 324 325 325 326 328 330 330 329 329 327 326 328 328 328 326 323 318 308 305 304
310 310 311 312 313 313 312 311 312 316 315 313 312 309 308 307 307 307 308 309 310 310 311 311 312 314 315 316 322 326 327 326 326 329 329 328 327 326 326 326 326 326 326 326 324 320 313 307 305
311 311 311 313 313 312 312 310 309 315 314 310 309 306 306 305 304 304 305 306 307 307 308 309 311 313 315 317 321 324 324 324 325 326 325 325 325 325 325 325 326 325 324 324 323 320 316 312 308
311 312 312 311 311 311 311 311 310 312 312 308 305 305 304 303 303 304 304 305 306 306 307 308 309 311 312 314 316 318 321 322 323 322 323 323 322 323 322 323 322 322 322 321 320 320 317 315 311
310 312 311 310 310 312 310 310 309 308 307 306 305 304 302 302 303 303 304 305 305 305 306 307 307 308 309 309 311 313 314 317 320 320 320 319 319 319 319 319 319 318 318 318 317 316 316 314 312
311 312 312 313 310 309 310 310 311 306 306 305 304 303 302 302 302 302 303 304 305 306 305 305 305 306 306 307 308 311 313 314 316 317 317 316 316 316 316 316 316 315 316 315 314 313 313 312 311
314 311 311 312 310 312 309 310 310 309 305 303 302 301 301 301 301 301 302 303 303 303 304 305 305 306 305 305 305 305 307 308 308 308 310 312 312 312 313 312 312 312 312 312 311 310 309 309 308
313 310 310 310 310 309 308 308 308 307 307 303 301 300 300 300 300 301 302 302 302 303 304 304 304 305 305 305 304 304 303 302 303 304 305 305 305 305 305 305 308 308 308 308 307 307 307 306 306
309 309 308 306 306 310 309 309 311 309 308 303 301 300 300 299 299 300 300 301 301 301 302 302 302 302 303 303 304 304 303 302 302 301 301 301 301 301 301 302 302 302 302 302 304 304 304 304 303
308 310 312 310 309 313 310 310 311 306 306 304 300 299 299 300 300 300 301 301 302 301 301 301 301 301 301 301 301 301 300 300 300 300 299 299 299 299 299 299 300 300 300 299 300 300 301 302 302
308 310 311 308 311 311 308 310 309 302 301 301 301 300 300 300 300 301 303 302 301 300 300 299 299 298 297 296 295 295 295 293 292 292 292 293 293 292 291 292 293 296 298 299 298 298 298 298 300
311 312 310 310 297 306 310 309 306 302 300 300 301 301 302 301 301 301 302 301 300 298 297 295 293 292 292 291 291 291 290 290 289 288 288 288 288 289 289 288 288 289 289 291 293 297 297 297 297
310 308 311 308 308 309 309 310 310 304 301 300 299 301 301 301 302 302 301 300 298 296 294 292 291 291 290 290 290 289 289 289 288 288 288 288 288 288 287 287 287 287 287 287 288 288 289 291 294
308 309 309 309 307 305 305 307 306 305 302 300 300 302 301 301 302 301 300 299 297 294 291 290 290 290 289 289 289 289 289 288 288 288 288 288 287 287 287 287 287 287 287 287 287 287 287 287 288
308 308 308 307 307 306 308 308 306 304 302 301 302 303 302 302 300 299 298 296 294 291 290 289 289 289 289 289 288 288 288 288 288 288 287 287 287 287 287 287 287 287 287 287 287 287 286 286 286

GFSSGP_850_thetae_033.txt.gz
Theta_e
313 314 318 323 318 313 317 319 316 318 318 319 319 318 318 318 317 315 320 320 321 322 330 334 335 335 335 335 334 332 331 333 333 332 332 331 329 325 324 325 324 322 320 320 320 320 318 320 320
314 316 322 321 314 315 315 314 318 318 318 319 319 319 318 318 321 321 320 319 320 321 326 331 333 334 334 334 333 333 333 332 331 331 330 330 327 324 324 324 321 319 319 319 320 319 319 320 319
315 318 320 312 310 315 316 316 316 317 319 319 318 319 319 319 320 320 319 318 318 320 320 328 332 333 333 334 334 334 333 331 331 329 328 327 325 325 326 321 322 319 319 318 319 319 318 319 319
319 321 317 312 317 315 315 315 315 317 319 318 318 317 318 319 319 318 316 316 317 319 321 322 330 331 332 333 333 332 332 331 329 328 327 327 330 325 323 322 323 319 318 317 318 318 316 315 313
319 318 311 314 316 314 315 316 317 317 317 318 318 316 317 318 319 316 316 316 316 317 320 321 325 330 331 332 332 332 332 331 328 326 330 328 326 326 324 324 323 320 316 314 315 315 315 313 311
319 314 312 315 316 314 315 317 317 315 315 317 317 317 317 319 317 316 316 317 316 316 318 320 321 325 328 329 330 331 331 331 328 327 331 328 331 328 326 325 324 319 314 313 313 314 313 310 306
315 309 312 314 314 315 315 316 316 315 314 317 317 315 317 317 318 318 317 317 316 316 316 318 320 323 327 328 329 330 331 331 329 328 329 329 329 329 327 326 323 317 312 312 312 312 309 305 304
318 310 315 313 313 316 315 315 316 315 315 316 317 313 315 316 316 317 317 317 317 316 316 316 317 320 324 326 328 329 331 331 330 330 328 328 328 328 329 327 326 319 313 311 310 309 306 304 304
316 309 310 315 314 315 316 314 316 316 316 316 316 316 315 315 316 316 316 317 317 316 316 316 316 318 319 321 324 328 331 332 332 331 330 328 326 327 329 327 328 324 319 311 309 307 305 304 304
313 307 310 312 314 315 316 315 316 315 316 314 314 315 315 315 315 315 315 315 316 316 317 317 317 317 320 320 321 323 325 340 338 337 332 329 329 330 326 327 327 328 323 317 310 306 304 304 305
314 311 312 316 316 316 315 315 315 315 313 315 315 315 314 315 315 315 315 314 315 315 316 317 317 318 319 319 320 322 324 325 335 335 334 332 330 332 332 331 325 328 326 322 314 308 304 303 304
316 316 315 317 316 315 315 316 315 315 315 315 315 313 314 314 314 314 314 314 314 314 315 315 316 317 318 319 320 321 322 323 325 335 334 334 330 331 330 332 332 330 328 326 321 311 305 303 303
314 314 315 316 316 314 314 314 313 314 315 314 313 313 314 314 314 314 313 313 313 314 314 315 315 315 316 317 319 321 322 323 324 327 327 329 328 330 330 329 328 330 328 326 325 318 309 304 303
313 313 313 314 315 313 312 312 313 316 316 314 313 313 314 313 313 312 312 313 312 313 313 314 315 315 316 316 318 320 322 323 324 326 326 326 326 327 327 327 327 328 329 322 322 322 316 307 304
314 312 309 311 312 311 312 312 311 316 314 313 312 313 312 312 310 310 311 312 312 312 312 313 314 314 315 316 319 322 324 325 326 327 328 329 329 329 328 327 327 326 326 326 324 324 322 317 307
311 310 310 311 312 313 313 313 312 315 313 311 310 309 309 308 308 308 308 309 310 311 311 311 312 314 314 316 319 323 327 328 328 329 329 328 327 327 327 327 326 324 324 326 324 324 324 322 317
308 309 310 311 312 312 311 312 312 315 313 309 307 306 306 306 306 306 307 307 307 308 309 310 311 313 315 316 319 325 329 330 328 326 326 326 326 326 325 326 325 324 324 326 326 323 322 323 319
309 310 309 310 312 311 312 310 309 313 311 307 304 303 303 303 303 304 305 306 306 307 308 309 312 315 316 319 323 326 328 327 327 324 323 324 324 323 323 324 324 324 324 327 325 322 320 320 319
309 309 311 310 310 312 310 309 309 310 305 303 303 302 302 301 301 302 303 304 305 307 307 308 309 310 314 316 318 320 322 323 323 319 320 321 321 320 321 322 323 323 322 322 322 322 318 317 316
309 311 310 310 309 310 310 310 308 304 303 303 302 301 301 300 301 302 303 304 305 305 305 306 306 307 308 309 311 312 314 315 319 317 317 318 317 318 318 319 320 319 319 318 318 317 317 315 314
310 310 311 311 310 309 309 309 310 304 303 302 301 301 300 300 300 301 303 304 304 305 306 306 306 306 305 306 307 309 312 313 315 316 315 313 314 314 314 315 315 317 317 315 316 314 312 312 311
314 309 310 312 310 313 308 311 307 305 303 301 300 300 300 300 300 301 302 303 303 303 303 303 304 304 305 305 306 306 305 304 304 305 305 306 307 307 308 310 311 311 311 311 310 311 310 309 309
313 309 310 310 309 308 308 309 306 304 305 301 299 299 299 300 301 301 301 301 301 301 301 302 302 303 303 303 302 302 303 303 302 302 302 301 301 301 301 302 302 304 306 305 306 306 307 307 307
308 308 307 305 306 310 308 309 309 308 307 301 299 299 299 300 300 300 300 300 301 301 302 303 302 302 302 302 302 302 301 301 301 301 301 300 299 299 298 298 299 299 300 300 300 299 300 302 304
308 309 312 310 309 313 308 309 308 305 302 303 299 299 300 300 300 300 301 301 301 302 302 301 301 301 300 299 299 298 298 297 296 295 295 294 293 292 292 291 291 291 292 294 297 298 297 297 298
307 309 311 309 309 310 308 311 309 301 300 301 301 300 299 299 300 302 302 301 301 300 299 298 297 296 296 296 295 294 293 292 292 291 290 290 290 290 289 289 289 289 288 288 289 289 289 292 295
309 310 308 309 294 305 310 308 304 301 299 299 299 299 300 300 300 301 302 302 300 299 297 295 294 294 293 293 292 292 292 291 291 290 289 289 289 289 289 288 289 289 288 288 288 288 288 288 287
309 307 311 307 307 308 309 309 309 303 301 299 298 299 301 300 300 301 301 301 299 297 295 293 292 292 292 291 290 290 290 289 289 289 289 288 288 288 288 288 288 288 288 287 287 287 287 287 287
308 309 308 308 306 304 303 306 303 304 302 300 299 302 302 302 301 301 300 300 298 296 293 291 291 290 290 289 289 289 289 289 288 288 288 288 288 288 287 287 287 287 287 286 286 286 286 286 286
307 308 308 310 308 304 306 309 304 303 302 301 302 304 304 302 301 301 301 299 298 295 292 290 290 290 289 289 289 289 288 288 288 288 287 287 287 286 286 286 286 285 285 285 285 285 285 285 285

GFSSGP_850_thetae_036.txt.gz
Theta_e
313 314 318 322 316 312 316 318 315 317 317 318 318 317 317 317 316 315 320 319 321 322 329 332 333 334 334 332 331 331 330 331 334 332 331 331 330 334 330 326 326 322 319 319 319 319 318 320 319
314 317 322 320 312 314 315 313 317 317 317 318 318 318 317 317 320 320 320 319 320 320 327 331 333 334 334 335 335 334 332 333 333 331 330 330 329 325 324 325 322 320 319 319 319 318 318 320 319
316 319 319 310 309 313 315 315 316 317 318 317 317 318 318 318 320 318 317 317 318 320 321 329 331 332 333 333 333 332 333 332 331 330 329 328 327 325 327 323 320 319 319 318 318 319 318 318 318
319 320 316 310 316 314 314 314 314 317 318 318 317 317 317 318 319 317 316 316 316 318 320 326 330 330 331 332 333 333 333 331 331 329 328 326 327 329 328 320 320 319 318 316 316 317 316 315 314
318 317 310 313 314 313 312 314 315 316 316 317 317 316 316 318 319 316 316 316 316 317 321 322 327 331 331 332 333 333 332 331 331 328 326 328 328 323 323 322 321 320 316 314 313 314 314 313 312
318 313 311 313 314 313 313 315 316 314 314 316 316 315 316 318 317 316 316 316 316 316 317 319 320 326 330 331 332 333 332 332 331 329 328 332 327 330 327 324 324 322 315 312 312 313 313 311 307
314 307 311 313 314 314 314 314 314 314 314 316 316 314 316 316 316 317 317 317 316 316 316 317 319 321 325 329 331 332 332 332 331 330 328 331 329 330 328 327 326 324 317 312 311 311 310 307 304
317 309 313 312 312 315 314 314 315 315 314 316 316 312 314 315 315 316 317 317 317 316 317 318 319 321 325 327 328 329 330 331 331 330 329 329 329 328 327 326 326 326 320 315 311 310 308 304 304
315 307 309 313 312 314 315 314 314 315 314 315 315 315 314 314 315 315 316 316 316 317 317 318 318 320 321 325 327 329 330 331 332 332 330 329 329 327 327 328 328 327 326 319 312 309 307 304 303
311 306 309 311 313 314 315 314 315 315 314 314 314 315 314 314 315 315 315 315 315 315 316 317 320 320 321 323 324 326 330 332 335 335 332 331 330 329 333 331 331 328 329 326 322 312 307 304 303
313 309 310 314 315 315 314 314 315 314 313 313 314 313 313 313 314 313 313 313 313 313 314 315 316 317 319 321 323 324 328 333 334 334 332 331 331 330 330 329 329 330 329 329 326 322 311 304 303
315 315 314 316 316 315 314 315 314 314 314 313 313 312 313 314 314 314 313 313 313 313 314 314 315 315 316 319 320 322 324 327 328 328 331 332 331 330 329 329 329 328 328 329 327 326 320 309 303
315 314 314 315 315 314 313 313 313 314 312 312 312 312 313 312 312 312 312 312 312 313 313 313 314 314 315 317 320 322 324 325 326 334 332 330 332 329 328 328 327 327 326 326 327 323 324 318 308
312 312 313 314 313 312 312 311 312 311 312 313 312 312 311 310 311 310 311 312 311 311 312 313 313 314 314 315 319 324 326 326 326 326 328 329 329 328 328 327 326 321 325 325 325 323 322 321 319
313 312 308 310 311 311 311 313 311 312 312 312 312 311 310 309 308 309 309 310 310 310 311 311 312 313 314 315 318 323 327 328 328 328 329 328 330 328 327 326 326 325 324 326 325 324 324 323 323
310 308 310 310 311 311 312 313 313 312 312 309 309 308 308 308 307 306 307 307 308 308 310 310 311 312 314 315 318 323 326 328 329 328 326 326 327 328 328 327 326 325 325 324 322 323 326 323 321
306 311 309 309 311 311 311 312 312 311 311 306 305 305 305 304 305 305 306 306 307 308 309 311 314 315 317 319 321 324 327 327 326 326 326 327 327 327 327 327 326 326 325 323 323 323 324 324 321
310 309 308 309 311 311 311 310 309 308 309 304 303 303 303 303 303 304 305 306 307 308 309 311 315 318 320 322 324 326 326 324 324 322 321 321 322 323 323 323 324 325 325 325 323 322 323 322 319
308 309 310 309 309 311 310 309 309 304 303 302 301 301 301 302 302 303 304 305 306 307 307 308 310 313 317 319 319 320 320 321 320 317 317 318 319 319 320 320 321 321 321 322 321 320 319 317 317
309 309 309 308 309 309 310 309 305 303 302 302 301 300 300 301 302 303 304 305 306 306 306 306 307 307 308 308 309 311 312 313 316 315 314 314 315 315 315 315 316 317 317 318 317 317 316 315 314
307 308 309 311 310 308 308 308 306 302 301 301 300 300 299 300 301 302 303 304 304 304 304 304 304 304 304 304 305 305 306 310 309 309 310 309 309 310 311 311 312 312 312 312 312 312 311 311 311
311 308 310 310 311 312 308 312 307 304 302 300 299 299 299 300 300 301 301 301 301 301 302 304 304 304 304 304 304 305 304 304 303 303 303 303 303 303 303 303 303 304 307 308 307 308 307 307 307
312 309 308 309 308 308 308 309 306 303 304 300 298 298 299 299 300 299 300 300 301 301 302 302 302 303 302 302 302 302 302 301 300 300 300 300 300 300 300 300 300 300 300 300 300 300 300 301 303
305 307 306 304 305 309 308 309 309 306 306 301 299 298 299 300 299 299 299 300 302 302 301 301 301 301 300 300 300 299 299 298 297 296 296 294 293 293 293 292 292 292 292 292 293 294 296 297 298
307 308 312 311 309 312 306 307 308 306 303 302 299 299 299 299 299 299 300 300 300 300 299 299 298 299 298 297 297 297 296 295 295 293 292 292 292 291 291 290 290 290 289 289 288 288 289 289 289
307 309 311 310 309 308 307 311 310 302 300 301 302 301 300 299 299 300 299 298 299 298 297 296 296 296 295 295 295 294 294 294 293 292 292 291 290 290 289 289 288 288 288 288 288 288 287 287 287
308 309 307 307 293 304 309 308 305 300 299 298 298 299 299 299 299 300 300 299 299 298 296 295 295 294 293 293 292 292 292 291 291 290 290 290 289 289 288 288 288 288 287 287 287 287 287 287 287
308 306 311 307 308 306 309 308 309 304 301 297 297 298 300 299 299 300 300 300 299 297 295 294 293 292 292 291 291 291 291 290 290 289 289 289 289 288 288 288 287 286 286 286 286 286 286 286 286
308 309 307 308 307 307 304 306 303 304 301 299 298 300 301 301 300 300 300 300 298 297 296 294 292 291 291 290 290 290 289 289 289 288 288 288 287 287 286 286 286 286 286 285 285 285 285 286 286
306 307 308 311 308 303 305 310 302 302 300 300 300 302 303 302 301 300 300 301 299 298 297 293 291 290 290 289 289 289 289 289 288 288 287 287 286 285 285 285 285 285 285 285 285 285 285 285 285

GFSSGP_850_thetae_039.txt.gz
Theta_e
313 314 318 322 319 317 317 318 314 316 317 317 317 317 317 317 316 319 320 320 321 324 332 333 334 334 334 331 332 331 331 331 333 333 331 331 334 336 327 325 325 320 317 317 318 318 318 320 319
314 318 322 319 316 317 318 314 317 316 316 317 318 317 317 317 319 320 320 320 320 324 330 332 333 333 334 332 331 332 331 331 333 331 331 330 329 327 324 324 322 319 318 317 317 318 318 319 319
317 319 319 312 311 316 317 314 315 316 317 317 316 317 317 318 319 318 318 318 319 321 328 332 333 333 334 335 335 335 333 333 332 330 329 328 327 325 325 323 318 319 317 316 316 317 317 317 317
319 320 315 313 315 313 314 313 313 316 317 317 316 316 316 317 319 317 316 316 318 320 321 329 331 333 334 334 335 334 333 333 331 330 327 326 326 326 326 321 319 320 318 314 314 315 316 315 314
318 317 313 314 314 313 311 313 315 315 315 316 316 315 316 318 318 316 316 316 316 318 323 324 330 331 331 332 333 333 333 333 331 330 327 325 328 325 323 321 321 321 318 312 313 313 314 313 312
317 314 313 314 313 312 312 314 314 313 313 315 315 314 315 317 316 316 316 316 316 316 320 324 325 330 331 332 331 332 332 332 331 331 328 330 332 327 329 326 323 323 319 313 312 312 312 311 307
313 309 312 312 313 313 314 314 314 313 313 315 315 313 315 315 315 316 317 317 317 317 318 320 322 324 328 334 334 334 333 332 332 331 330 329 331 329 330 328 327 326 324 318 311 311 310 307 304
316 309 311 311 313 314 313 313 314 314 314 315 315 312 313 313 314 316 317 317 317 317 318 319 320 321 323 328 333 334 334 333 333 332 331 329 330 330 329 328 328 328 327 323 316 310 308 306 303
313 308 309 311 311 313 314 314 314 314 314 315 314 313 313 314 314 314 316 316 316 316 316 317 318 320 322 324 329 330 330 332 332 332 331 329 329 330 329 328 327 329 327 328 322 316 309 305 303
310 307 309 309 310 313 314 314 315 314 314 313 313 312 312 313 314 314 315 314 314 314 315 316 316 317 319 321 324 331 330 333 332 332 331 331 330 330 331 330 329 329 329 327 327 324 316 307 303
311 309 308 313 314 315 314 314 314 314 312 313 313 311 312 312 313 313 313 313 313 313 313 314 315 316 317 319 322 323 336 330 332 332 330 331 330 329 328 328 327 327 327 326 326 325 324 316 306
314 313 313 315 315 314 314 314 314 313 312 312 312 312 312 313 314 314 313 313 313 313 313 313 314 315 316 317 320 324 327 335 332 330 328 328 329 329 328 328 327 327 326 325 324 326 322 323 315
315 313 314 315 314 314 313 313 312 311 310 310 310 311 312 312 313 312 312 312 312 312 313 313 313 313 314 315 318 327 332 333 331 330 330 329 327 327 328 327 326 325 324 323 324 324 323 321 321
312 312 312 313 313 312 312 311 311 309 309 310 310 310 310 310 310 310 310 311 311 311 312 312 313 313 313 314 318 325 333 332 328 330 327 327 329 328 326 328 328 326 324 323 324 324 323 323 322
312 311 309 310 310 310 311 310 310 310 309 310 309 309 308 308 308 309 309 309 309 310 311 311 312 313 313 314 319 329 332 333 331 330 327 326 326 327 326 325 325 327 326 324 323 322 321 322 322
310 308 312 310 310 311 311 314 308 309 310 309 308 307 307 307 307 307 307 307 308 309 310 311 312 313 314 315 320 324 329 328 326 325 325 324 324 326 327 328 328 328 326 326 326 324 322 323 324
306 313 309 309 310 310 311 313 307 308 309 306 306 306 305 305 305 306 307 307 308 309 313 315 317 317 320 321 323 326 328 325 324 324 323 323 324 325 326 325 326 326 325 324 326 324 323 322 322
311 309 308 309 311 310 310 311 306 306 306 304 303 303 303 303 304 305 306 307 308 309 314 318 321 322 323 323 324 323 323 322 321 321 321 319 320 320 320 320 320 321 322 323 324 323 322 320 320
308 308 310 309 309 311 310 309 309 303 303 302 302 301 301 302 302 303 304 306 307 309 311 315 318 319 321 322 322 322 321 319 319 316 315 316 317 317 317 317 317 317 318 319 319 319 318 317 317
307 308 308 307 308 309 309 309 307 303 302 302 301 300 301 301 302 303 303 305 306 306 307 308 308 309 309 308 308 309 309 310 310 310 310 310 310 310 312 313 314 314 314 314 314 314 313 312 312
306 308 307 310 309 308 308 309 306 302 301 301 300 300 300 301 302 302 303 304 303 303 303 304 304 305 305 305 305 306 305 305 306 305 305 304 304 304 305 306 307 307 308 309 309 309 309 309 309
308 306 307 309 311 313 307 313 308 303 302 300 299 299 299 300 301 301 301 301 302 303 303 304 304 304 303 303 303 304 303 304 302 302 302 302 302 302 302 302 301 302 301 301 301 301 301 302 303
310 306 307 309 309 308 308 309 308 304 304 301 298 298 299 299 300 300 299 300 301 301 302 301 301 301 301 301 300 300 300 300 298 298 297 296 296 296 296 295 294 294 294 294 294 294 294 296 297
304 306 306 304 305 310 309 310 309 307 306 301 299 299 299 299 298 298 299 300 300 299 300 300 300 300 299 298 298 297 297 296 296 295 295 294 292 292 292 291 291 291 290 290 290 289 289 289 289
306 309 312 312 312 314 306 307 309 306 303 303 300 299 299 299 298 298 299 299 300 298 299 299 298 299 297 297 297 297 296 295 295 294 293 291 291 291 290 289 290 289 289 289 288 288 288 288 288
306 309 313 314 311 309 306 310 310 302 301 301 301 301 300 299 298 298 299 299 299 298 300 298 297 297 296 294 294 294 294 294 294 293 291 291 291 290 289 289 288 288 288 287 287 287 286 286 286
308 309 307 306 294 306 309 307 306 301 299 298 299 300 299 299 298 299 298 300 298 298 298 296 296 294 293 293 293 293 293 292 291 291 290 290 289 289 288 287 287 286 286 286 286 286 286 286 286
307 306 311 308 311 310 309 309 310 305 302 297 296 298 299 300 298 299 300 300 299 298 296 295 293 293 292 292 291 291 291 290 290 289 289 289 288 288 287 287 286 286 286 286 286 286 286 286 286
308 309 307 308 308 309 308 308 303 305 302 299 297 299 300 300 299 300 301 300 299 297 296 294 293 293 292 290 290 290 290 289 289 289 289 288 288 287 286 286 285 285 285 285 285 286 286 286 285
306 307 307 311 309 303 306 310 303 302 301 300 299 301 301 302 301 301 301 300 300 299 298 295 292 292 290 290 290 290 290 289 289 289 288 288 287 287 286 285 285 285 285 285 285 285 285 285 285

GFSSGP_850_thetae_045.txt.gz
Theta_e
313 315 320 325 327 324 324 322 322 322 322 320 320 320 320 320 321 324 321 330 323 339 341 336 338 339 336 335 334 332 331 331 333 332 332 334 335 331 325 325 319 318 317 316 317 318 319 319 319
315 319 323 325 325 322 322 322 322 321 320 320 320 320 320 320 321 324 326 321 322 338 341 338 337 339 340 334 333 332 331 332 333 331 331 332 332 326 326 322 319 318 316 315 317 317 317 317 318
320 320 325 325 323 323 322 322 321 319 319 320 320 320 320 320 322 323 320 320 326 337 342 343 338 339 339 333 333 332 331 332 333 331 330 330 328 326 326 321 320 319 316 313 315 316 316 315 314
321 322 321 324 322 322 321 321 321 320 319 319 320 319 319 321 325 324 320 320 334 331 340 337 335 338 339 336 332 334 335 333 333 331 329 327 327 330 325 323 322 322 316 312 313 314 315 314 312
319 322 323 322 321 319 320 320 320 321 319 319 318 319 320 318 324 327 324 327 333 329 337 333 333 335 339 338 337 337 335 334 333 331 330 327 330 330 329 328 324 322 320 314 311 312 312 311 309
322 321 322 322 320 319 320 319 320 320 318 317 318 319 318 317 318 321 323 328 332 332 328 335 333 334 336 337 337 336 335 335 334 332 331 329 331 331 330 329 326 324 323 320 314 311 310 308 304
322 322 323 322 321 320 320 318 319 318 318 318 317 319 317 314 315 319 319 322 322 324 327 328 334 333 334 335 335 335 335 335 335 333 332 330 332 332 331 330 328 326 325 323 321 313 309 307 304
319 320 321 321 321 321 319 318 317 318 318 316 316 319 319 315 314 316 318 318 318 319 319 321 325 327 331 334 334 335 335 335 335 334 333 332 330 331 332 331 330 328 327 326 325 321 314 308 304
315 319 319 320 320 321 319 319 317 317 318 317 315 315 314 314 314 314 317 317 318 318 319 320 321 321 323 328 338 333 335 335 334 333 333 332 331 332 332 332 330 328 328 326 326 324 323 317 308
319 319 318 319 319 320 319 319 318 318 318 316 315 313 313 313 313 314 315 314 315 315 316 317 319 320 321 322 327 335 335 333 332 332 333 332 333 332 331 329 328 327 326 325 325 324 322 322 321
318 318 316 317 318 319 319 318 317 318 318 317 317 314 312 312 312 312 313 313 313 313 313 313 314 317 319 322 323 329 332 333 332 334 334 333 331 329 330 328 327 326 326 324 324 324 323 323 322
318 316 316 317 317 317 318 318 318 317 316 313 313 312 312 311 312 313 313 313 313 312 312 312 312 313 315 320 325 335 332 332 336 333 332 332 330 329 328 327 327 327 325 324 323 322 321 323 323
318 318 317 317 317 317 316 317 317 316 312 311 311 311 310 310 311 312 312 312 312 312 312 312 312 313 313 316 328 331 330 330 331 330 330 328 328 328 328 328 327 327 326 324 324 323 323 323 322
317 317 317 316 316 316 316 317 315 316 312 310 310 309 309 310 310 310 311 311 311 311 311 312 312 312 313 319 329 331 329 329 328 329 329 329 328 329 327 327 327 329 329 328 325 323 323 322 321
316 317 318 317 316 316 315 317 315 314 311 311 310 309 309 310 310 310 310 309 309 310 311 311 312 313 313 318 328 329 327 327 327 327 325 325 325 325 325 326 325 324 325 325 325 325 324 324 322
317 318 321 320 315 315 315 321 317 312 311 312 311 309 309 309 309 309 308 309 310 311 312 313 313 314 315 329 327 328 327 326 326 325 324 324 323 323 323 324 325 326 325 325 325 325 324 325 323
319 322 322 320 316 316 316 321 315 311 312 313 312 310 307 306 305 307 307 308 311 314 315 317 318 321 324 324 326 327 326 325 324 323 323 322 321 321 321 321 321 320 321 321 321 322 322 322 321
322 322 321 321 317 316 317 318 315 312 312 313 312 310 308 306 304 307 307 309 314 318 320 321 322 322 323 324 325 325 324 323 323 322 321 319 318 318 318 318 317 317 317 317 317 317 317 317 316
320 321 321 321 317 316 318 318 319 314 312 313 312 310 308 305 304 306 307 311 317 320 320 320 321 321 322 322 323 323 323 321 320 318 315 314 315 315 315 315 314 314 313 313 313 312 311 311 312
318 319 320 321 315 315 318 319 319 318 314 313 313 311 308 304 303 305 308 312 318 318 318 319 320 320 320 321 321 320 319 314 309 309 309 307 307 307 307 307 307 307 306 306 306 305 304 303 303
318 319 320 320 316 314 316 318 319 318 315 312 311 310 307 305 303 302 307 309 315 318 318 318 318 319 319 318 314 309 307 306 306 305 305 304 304 304 303 303 303 302 302 301 300 299 298 296 296
319 318 317 317 317 321 317 322 321 321 315 311 309 308 306 304 303 302 304 307 310 311 312 311 310 310 309 308 306 305 304 304 303 302 301 301 300 299 298 298 297 296 296 295 295 294 294 293 292
318 315 316 316 318 319 320 318 320 319 317 313 309 307 305 304 302 301 302 306 307 307 306 306 305 304 303 302 302 302 301 301 300 299 297 297 296 295 295 294 294 294 293 293 292 292 291 290 290
314 315 314 315 317 322 320 321 322 321 316 315 309 306 305 303 301 300 302 303 304 304 304 303 302 301 301 300 300 299 299 298 298 297 296 296 295 295 295 295 294 294 293 293 292 291 290 289 288
314 317 323 323 321 323 317 322 322 320 313 315 309 306 304 303 301 299 301 301 302 302 302 301 301 300 299 299 298 298 297 297 297 296 296 296 295 294 294 294 293 293 292 291 290 289 288 288 287
315 319 324 328 327 324 311 318 320 315 311 308 309 306 304 302 300 299 300 300 301 301 301 300 299 298 298 298 297 297 297 296 296 296 295 295 294 293 292 292 291 290 289 288 288 287 287 286 286
316 317 319 318 311 317 318 316 315 309 307 307 308 305 303 302 300 299 299 300 300 300 300 299 298 297 297 297 297 297 297 296 295 294 294 293 292 292 291 290 289 288 288 287 286 286 286 286 286
315 315 316 317 324 325 322 320 320 311 309 307 307 305 303 301 299 298 298 300 300 299 299 298 297 297 297 297 296 296 295 294 294 293 293 292 291 290 289 288 288 287 287 286 286 286 285 285 285
312 314 315 317 319 327 325 321 317 317 312 308 307 305 303 301 300 298 298 299 300 299 298 298 297 297 296 296 295 295 294 293 292 292 292 290 290 289 288 288 288 287 287 286 285 285 285 285 284
315 315 315 319 319 316 319 322 309 313 314 309 307 305 303 302 300 299 298 298 299 298 298 299 297 296 295 295 294 294 292 292 291 291 290 289 289 288 288 288 288 288 287 286 285 284 284 284 284

GFSSGP_850_thetae_051.txt.gz
Theta_e
314 317 322 326 321 315 319 319 316 318 318 318 320 321 320 321 323 323 332 330 335 340 336 335 336 334 335 333 331 331 331 331 331 332 333 329 325 324 318 317 316 312 314 315 315 315 317 318 319
318 322 325 325 318 315 315 316 317 317 319 319 320 320 321 323 326 328 328 332 338 339 336 335 336 334 335 334 332 331 331 332 331 330 330 327 324 320 319 318 317 313 312 313 313 314 313 313 315
321 321 323 318 315 315 316 315 314 318 319 319 318 320 322 324 325 325 330 335 339 339 337 336 337 337 334 334 333 331 331 332 331 329 329 325 326 324 322 320 318 316 311 311 312 312 312 312 311
323 323 322 315 317 314 315 313 317 317 319 318 318 318 323 326 322 326 334 336 339 338 338 338 338 338 336 333 332 331 333 332 331 330 328 327 330 327 326 322 320 318 316 311 310 310 310 308 307
321 322 317 315 316 316 316 317 318 316 317 317 320 317 321 327 328 328 333 334 338 339 339 339 338 337 337 335 332 334 334 333 332 330 328 329 330 329 328 327 325 321 319 318 312 309 307 304 304
322 319 315 316 315 315 317 319 319 316 316 318 318 318 318 323 327 329 331 334 335 339 337 337 336 336 337 337 335 336 335 334 333 331 330 329 331 330 330 329 328 326 323 321 320 313 307 304 303
320 313 317 317 314 316 316 319 317 315 316 317 317 315 317 319 323 326 326 331 333 337 336 337 335 335 337 338 337 337 336 335 334 333 331 330 331 331 331 330 329 327 325 323 322 321 314 305 303
319 313 315 315 315 317 317 318 317 317 316 316 317 314 313 317 321 320 323 325 324 328 330 331 338 336 335 336 336 336 335 334 334 334 333 332 331 330 331 329 328 326 325 323 322 321 321 317 306
315 310 312 315 317 316 317 316 317 317 317 316 315 316 316 313 317 317 317 318 320 323 325 327 327 330 336 335 334 334 334 336 334 334 333 333 332 333 331 328 327 326 324 323 322 321 320 320 320
316 311 315 315 315 316 317 317 317 316 316 314 313 313 313 313 316 316 316 315 316 317 318 320 320 320 320 331 337 334 334 334 335 333 332 332 333 332 331 328 327 325 324 324 323 322 321 321 321
316 313 314 316 317 318 317 317 317 316 314 315 315 313 313 314 316 316 316 315 315 314 314 315 316 318 320 323 329 335 333 334 333 332 331 333 333 333 330 329 327 325 325 324 323 322 322 321 320
314 316 315 317 316 317 317 317 317 316 315 316 316 314 313 313 313 313 313 313 313 312 313 312 312 312 316 321 326 335 334 332 331 331 332 332 332 330 330 330 328 326 326 324 323 323 322 322 321
316 316 316 317 316 317 317 317 316 315 315 314 314 313 312 312 312 312 313 313 313 313 313 313 312 312 312 320 322 328 331 330 330 330 331 332 331 330 329 328 328 327 325 324 323 323 324 322 321
316 316 316 316 316 316 316 316 316 315 315 314 313 312 312 312 312 312 312 312 313 313 312 312 312 312 312 317 328 329 328 330 331 330 331 331 329 328 327 326 325 324 324 323 323 322 324 323 322
316 314 314 315 316 315 316 313 313 315 314 314 312 311 311 311 311 311 312 312 312 312 311 312 312 312 312 320 329 328 328 328 327 328 328 328 327 326 325 325 324 323 322 323 322 324 324 324 322
315 314 315 316 314 314 314 314 314 314 314 312 312 311 311 310 311 311 312 312 311 311 311 311 312 312 316 322 327 327 326 325 325 324 324 324 323 322 322 322 321 322 322 323 322 322 321 320 320
314 314 315 316 314 312 312 313 312 312 313 312 311 311 310 310 310 311 311 311 311 311 311 312 313 314 320 326 326 325 325 324 324 323 323 322 321 321 321 320 320 320 320 319 319 318 316 315 314
315 315 316 317 314 312 311 311 312 312 312 312 312 311 310 310 310 310 310 310 310 311 312 313 313 320 322 322 323 324 323 324 323 321 322 322 320 319 319 319 319 318 316 315 312 311 309 307 305
315 316 316 315 314 313 312 312 311 312 311 311 312 311 311 311 310 309 309 309 310 311 313 315 317 319 321 322 323 323 323 323 321 322 321 319 315 314 314 313 311 309 308 306 305 304 304 303 302
314 314 314 314 313 312 312 312 311 311 311 311 312 312 312 310 308 308 308 308 311 312 315 317 319 319 321 321 322 322 321 321 322 320 317 314 313 310 307 306 305 304 303 302 300 298 298 297 297
315 315 314 315 314 312 312 312 312 312 312 313 312 312 312 311 310 308 307 309 313 314 316 317 319 319 320 321 321 320 320 321 319 314 310 308 305 304 303 301 300 298 297 297 297 296 296 295 295
315 314 315 315 316 315 312 317 314 313 312 310 312 311 312 310 309 309 308 310 313 315 317 317 318 317 318 319 319 321 320 318 311 307 305 303 301 299 298 297 297 297 296 296 295 295 294 293 293
315 314 315 315 314 314 314 313 314 313 315 315 312 311 312 311 309 309 308 308 313 315 315 316 316 316 318 319 319 320 317 309 305 304 301 299 297 297 297 296 296 295 295 294 294 294 293 293 292
311 313 313 312 313 315 315 315 316 316 316 315 313 311 311 310 308 308 307 308 313 313 313 313 316 317 318 319 317 313 307 305 303 300 298 297 297 297 296 295 295 294 294 294 293 293 292 291 290
313 313 316 317 315 319 314 314 318 315 313 313 311 309 308 308 307 306 306 307 312 313 313 314 316 317 317 313 308 305 304 302 301 299 298 298 297 296 295 295 295 294 294 293 292 291 290 290 289
312 314 316 318 318 317 310 315 316 312 313 311 313 314 309 307 306 306 306 306 309 314 315 315 315 314 310 306 303 302 301 300 298 298 297 297 296 295 295 295 294 293 293 292 291 290 289 289 288
312 315 315 317 301 310 315 313 312 309 308 308 309 308 306 305 305 305 305 305 307 310 312 311 311 308 305 302 301 300 299 298 298 297 297 296 295 295 295 294 293 292 291 291 290 289 288 288 287
312 311 315 313 314 314 316 315 318 313 310 306 305 305 304 304 304 304 304 304 306 308 309 307 306 304 301 301 300 299 298 297 297 297 296 296 295 295 294 293 292 291 290 290 289 288 288 287 286
312 313 313 314 312 314 315 318 312 314 311 306 306 306 305 304 304 304 303 303 305 305 305 304 302 301 300 299 298 298 297 297 297 296 296 295 295 294 293 292 291 290 290 289 288 288 287 287 286
312 313 312 316 314 312 313 320 308 310 310 308 307 306 306 305 304 304 303 302 302 302 302 302 301 300 299 298 298 297 297 297 296 296 295 294 294 293 292 291 290 290 289 289 288 288 287 287 287

GFSSGP_850_thetae_054.txt.gz
Theta_e
314 316 322 326 319 313 316 318 315 318 316 319 321 321 319 322 321 318 331 331 332 337 334 334 334 335 333 331 331 331 332 332 333 332 327 323 319 316 315 315 312 313 314 314 314 315 317 319 320
317 322 324 324 313 313 314 315 317 317 319 320 320 321 322 324 328 330 329 332 334 338 334 335 334 334 334 331 330 331 331 332 331 330 325 321 320 319 316 315 313 311 312 312 313 313 312 313 317
321 321 323 313 310 313 315 314 314 317 319 318 319 320 322 324 326 326 329 334 337 338 335 335 335 333 334 333 331 330 331 331 329 328 324 325 324 324 321 318 316 314 310 310 311 311 310 311 312
322 323 319 312 316 314 313 312 315 316 317 317 319 318 326 326 324 331 332 334 338 338 336 336 337 335 333 333 332 331 331 331 330 330 326 328 327 327 325 323 320 317 316 310 309 307 305 305 308
321 321 313 312 315 316 314 314 317 315 316 317 318 316 325 328 330 333 335 335 335 335 336 336 338 337 335 333 332 332 333 332 330 329 329 329 329 329 328 327 325 321 319 317 310 307 304 304 304
321 317 313 314 313 315 316 317 316 314 317 318 317 318 321 328 329 333 335 335 335 337 336 337 337 337 337 334 332 334 334 333 332 330 329 329 330 330 329 328 328 326 322 319 317 310 305 303 304
316 311 315 314 313 316 316 317 314 313 315 316 317 315 321 325 328 331 333 332 336 336 336 336 336 336 336 337 335 336 334 333 333 331 330 330 330 330 330 328 327 326 323 320 319 319 312 304 303
318 310 314 313 312 315 316 316 316 316 314 315 317 312 317 322 325 328 332 333 335 334 336 334 335 335 334 336 336 336 335 334 333 333 332 331 331 331 330 327 326 324 323 321 319 319 319 317 308
315 308 310 315 313 316 316 315 316 316 315 315 316 315 316 319 322 325 326 330 332 334 333 333 338 340 335 334 334 334 334 334 334 333 333 332 331 330 329 327 326 324 323 322 322 320 319 319 319
314 308 313 314 314 313 315 316 316 316 314 313 314 315 314 318 318 318 318 320 324 326 326 327 326 328 334 337 333 333 333 335 333 333 332 332 331 331 329 327 325 324 323 322 322 321 320 319 319
314 312 313 315 317 316 315 316 316 314 313 314 314 315 314 315 316 316 315 315 316 318 320 322 323 322 322 325 334 334 334 335 332 332 331 331 332 332 330 328 327 325 324 323 322 322 322 321 320
312 314 314 316 316 317 315 316 316 315 316 316 315 314 313 314 315 315 315 315 315 314 314 314 315 316 319 321 331 333 337 333 332 332 331 330 330 333 329 327 327 326 325 324 323 322 322 321 321
314 314 315 316 316 316 317 316 315 315 316 316 315 314 313 313 314 315 314 314 313 313 312 312 312 312 313 320 325 332 332 334 332 331 330 329 330 331 329 328 328 329 326 324 323 322 323 322 322
315 315 315 315 316 315 315 315 316 315 315 314 314 314 313 312 312 312 312 313 313 313 313 313 312 312 311 316 326 332 333 333 330 329 329 329 331 330 330 329 327 325 324 323 322 323 323 323 323
315 313 312 313 315 314 315 313 312 315 314 313 313 313 312 312 312 312 313 313 313 313 313 313 312 312 312 319 327 328 327 329 328 328 329 330 329 328 327 327 326 324 323 321 321 322 323 323 322
314 312 314 314 313 314 313 313 313 314 313 312 312 311 311 311 311 311 312 313 313 313 313 312 312 312 312 323 326 326 326 326 327 327 327 327 327 327 325 324 323 323 321 321 322 321 321 320 319
311 313 313 314 312 312 311 313 313 312 312 312 311 311 311 311 311 311 311 312 312 312 312 312 311 312 313 324 324 325 325 325 324 324 323 324 324 322 321 321 320 321 321 320 319 318 315 313 312
313 313 313 315 313 312 311 310 310 311 311 312 312 311 311 311 312 311 311 311 311 311 312 312 312 313 319 321 323 324 324 323 322 322 322 322 321 320 321 319 319 319 318 317 314 310 307 306 305
313 313 315 314 314 312 311 311 311 311 310 310 311 312 311 312 311 310 310 310 310 311 311 312 312 313 315 321 322 323 323 323 322 321 321 321 320 319 318 318 318 315 312 309 306 304 302 301 302
312 313 312 312 312 311 312 310 310 309 310 312 312 312 313 312 311 310 310 310 310 311 311 313 313 317 321 321 321 322 322 321 321 320 321 320 317 314 314 312 309 306 304 303 301 298 298 297 297
312 312 312 314 313 311 311 310 310 310 311 313 313 314 314 314 312 310 309 309 309 311 312 313 315 317 318 320 321 321 320 320 319 320 320 315 313 309 307 305 303 301 298 298 297 297 297 296 295
314 312 314 314 315 315 311 316 313 311 310 309 312 312 313 312 310 311 310 309 310 311 313 315 317 318 318 319 320 320 320 320 319 320 316 312 306 303 302 300 298 297 297 297 296 296 295 294 294
314 313 313 314 313 313 313 313 313 312 312 312 313 314 313 312 312 311 310 311 310 311 313 316 317 317 318 318 319 319 319 320 319 315 310 304 301 299 298 297 297 296 296 295 295 294 294 293 293
311 312 311 310 311 314 314 313 315 314 314 314 313 315 315 314 312 310 310 309 309 312 314 316 316 316 317 317 318 318 319 319 316 308 304 300 298 297 297 296 296 296 295 294 294 294 293 292 291
312 313 315 316 314 317 312 312 317 314 313 312 314 316 315 314 311 308 308 308 309 312 315 315 315 314 314 315 315 316 318 318 310 304 301 298 297 297 296 296 295 295 294 294 294 293 292 291 290
312 313 314 315 316 314 310 315 315 311 313 315 315 313 312 310 309 308 308 308 308 311 314 313 313 313 313 314 316 316 314 310 304 302 299 298 297 297 296 295 295 294 294 293 293 291 290 289 289
311 314 313 316 298 309 314 313 312 309 308 309 312 309 309 310 308 307 307 307 308 310 313 311 311 312 314 316 314 312 306 304 302 299 297 297 296 296 295 295 294 294 293 292 292 290 289 289 288
311 310 314 311 313 313 315 314 317 313 310 309 307 306 308 307 306 305 306 307 307 308 312 312 311 313 314 314 310 305 302 301 298 297 297 296 296 296 295 294 294 293 292 292 291 289 288 288 287
311 312 312 312 311 313 312 317 310 314 311 310 308 310 309 308 307 307 306 306 306 306 310 312 313 313 313 309 305 302 301 298 297 297 296 296 296 295 295 294 293 292 292 291 290 289 288 287 287
311 313 311 313 313 311 312 319 309 310 310 310 311 312 310 309 308 307 306 306 305 304 306 310 311 310 310 306 302 300 299 297 296 296 296 296 295 295 294 293 292 292 291 290 289 288 288 287 287

GFSSGP_850_thetae_057.txt.gz
Theta_e
314 315 321 325 316 312 315 316 314 316 317 320 318 318 317 322 319 315 331 332 335 336 334 334 335 333 331 330 331 331 331 333 330 325 320 317 316 315 314 311 312 313 313 313 313 316 318 321 324
315 321 324 322 311 313 313 313 316 315 320 321 320 321 323 324 329 329 330 330 335 334 334 334 334 333 331 330 330 331 331 330 329 324 320 320 320 317 315 314 311 311 311 312 312 312 313 319 323
320 322 322 311 309 313 314 314 314 317 319 316 319 321 323 325 327 328 325 334 338 336 334 334 334 334 332 331 330 330 331 330 328 325 323 324 324 322 320 316 314 311 310 310 309 309 310 312 315
321 322 315 311 315 313 314 313 313 316 316 316 320 320 326 325 325 329 327 331 337 337 334 335 334 334 333 332 330 330 331 330 329 326 325 325 327 326 326 325 319 315 313 309 307 305 305 308 310
321 320 310 312 314 314 312 314 314 313 314 316 316 319 326 326 326 329 333 333 336 337 335 336 336 334 333 332 331 331 331 331 330 329 327 328 328 328 327 326 325 320 316 314 308 305 304 304 305
320 315 311 313 313 314 314 315 315 314 315 316 318 321 325 327 330 331 333 335 334 335 335 335 337 337 334 332 331 332 333 331 330 329 329 329 329 329 328 327 326 324 320 317 314 307 304 304 304
315 310 313 311 312 315 314 316 313 314 315 316 317 315 323 327 330 333 333 333 336 335 334 335 335 337 336 334 332 333 333 332 331 330 330 330 330 329 328 326 326 323 319 318 318 315 308 304 303
317 309 311 311 311 314 315 315 314 315 313 316 316 313 321 325 326 331 333 334 335 337 335 335 335 335 336 336 335 335 335 333 332 331 330 330 330 330 327 326 325 323 322 320 318 318 318 315 309
314 307 309 311 311 314 315 314 314 315 315 315 316 316 316 321 325 328 331 332 335 332 337 335 338 336 334 338 336 335 335 334 333 332 331 331 331 328 327 326 325 323 322 321 320 319 318 318 318
311 306 310 311 311 313 314 314 315 315 314 313 315 316 316 319 321 323 327 329 333 334 330 334 332 336 339 337 334 333 332 334 333 332 332 332 330 328 328 327 325 323 322 321 321 321 320 319 319
311 310 310 314 316 315 314 314 315 313 311 314 315 316 316 318 320 321 323 323 323 326 329 329 329 327 335 335 333 333 332 331 331 331 332 331 329 329 329 327 325 324 323 322 322 321 321 320 320
311 313 312 315 315 315 314 315 314 314 315 316 315 316 316 316 317 316 317 317 317 319 321 323 324 325 327 328 330 332 331 332 330 331 330 330 329 329 330 328 327 325 324 323 322 322 322 321 320
313 313 314 315 315 315 316 315 314 314 315 316 315 314 315 315 315 315 315 315 315 315 315 316 317 319 321 323 324 333 332 331 331 330 331 330 329 328 330 328 327 325 325 325 324 323 323 322 322
314 314 315 315 315 315 314 314 315 315 316 316 315 314 314 313 314 314 315 315 314 314 313 313 312 312 312 315 321 330 329 330 331 330 329 329 328 328 330 329 327 327 326 323 323 324 323 323 322
314 313 311 312 314 314 314 312 311 315 315 314 314 314 313 313 313 314 314 314 313 313 312 313 313 312 312 312 318 326 327 329 330 329 328 328 328 328 330 328 327 326 324 323 323 323 323 322 321
313 310 313 312 312 314 313 312 311 313 314 313 313 313 313 313 313 312 312 312 312 312 313 312 312 312 312 312 319 328 327 328 328 328 327 326 326 329 327 327 327 325 323 321 322 321 322 320 318
309 312 312 312 311 311 310 312 312 312 312 312 313 313 313 313 312 312 312 312 312 312 312 312 312 312 312 312 322 324 326 325 326 326 325 328 330 326 327 326 324 323 321 321 321 319 318 316 314
312 312 311 313 312 310 311 309 309 312 311 312 311 312 312 312 313 313 312 311 311 311 311 312 312 311 312 313 324 323 324 325 324 325 325 325 324 325 323 321 320 320 320 319 317 313 310 309 308
311 311 313 313 313 312 310 310 311 311 310 309 311 312 312 313 314 312 312 311 310 311 311 311 312 312 312 318 322 322 323 324 323 322 320 321 322 321 320 320 319 319 318 316 309 305 304 305 306
312 313 312 311 310 310 311 310 309 309 309 311 313 313 313 314 314 313 311 311 310 310 311 311 312 312 313 320 322 321 322 322 322 321 320 320 321 320 319 318 317 316 311 306 303 300 300 300 303
311 311 311 313 312 309 310 310 309 310 310 311 313 314 314 315 315 314 312 311 310 311 311 311 312 312 315 322 321 320 321 321 321 320 320 319 319 317 316 315 311 306 303 301 298 297 297 297 296
313 310 311 312 314 314 311 315 313 310 309 308 312 314 316 315 314 313 313 311 311 311 310 311 312 313 313 316 319 320 320 320 320 319 318 318 316 313 311 306 303 301 298 298 298 297 296 295 295
313 311 311 313 312 313 312 312 314 311 311 311 312 315 317 317 316 315 314 313 312 310 310 311 313 314 314 317 318 318 319 319 318 318 317 316 312 307 303 300 298 297 297 297 297 296 296 295 295
310 311 310 309 310 313 314 312 315 312 313 312 313 315 315 316 316 314 311 311 310 309 309 311 313 315 316 317 318 318 318 318 318 317 316 313 307 302 298 297 296 296 297 297 296 295 295 294 293
312 313 314 313 312 316 309 311 315 311 311 310 312 317 317 315 315 314 312 310 309 309 309 312 313 315 317 316 317 317 318 318 318 318 316 310 303 299 297 296 296 296 296 296 295 294 293 293 293
312 312 314 313 313 312 310 314 314 309 312 313 314 315 314 314 315 315 313 310 309 308 309 312 314 315 316 315 316 317 318 317 317 318 316 306 302 298 296 296 296 296 295 295 294 293 293 292 292
311 313 312 314 297 308 312 311 310 309 308 310 312 312 311 313 314 314 312 309 308 308 309 311 314 315 315 314 315 315 316 316 316 315 309 302 298 297 296 296 295 295 294 294 293 292 292 291 290
311 310 313 310 312 311 313 313 315 314 312 309 309 311 312 312 313 313 310 309 307 307 309 311 314 315 314 312 313 313 314 315 314 310 303 298 297 296 296 295 295 294 294 293 293 292 291 290 289
311 311 311 311 310 311 311 315 309 313 311 312 309 314 314 314 313 313 310 308 307 307 308 311 313 313 312 311 311 312 314 314 310 304 299 296 296 296 296 295 295 294 293 293 292 291 290 289 288
310 311 311 312 310 309 310 316 310 309 309 310 313 315 314 313 312 311 310 308 307 306 307 309 311 312 311 310 311 312 313 311 305 300 296 296 296 295 295 295 294 294 293 292 291 290 290 289 288

GFSSGP_850_thetae_060.txt.gz
Theta_e
314 314 320 325 315 311 314 315 313 314 316 319 315 315 315 321 317 313 335 334 337 333 335 335 333 331 331 331 331 331 332 329 323 319 318 316 314 313 311 311 312 312 312 312 314 317 318 320 322
314 318 322 320 312 313 313 312 315 314 320 320 320 321 322 324 328 329 333 332 336 334 334 335 333 331 331 331 330 330 330 329 324 321 321 321 318 315 313 311 310 310 311 311 312 312 315 317 319
317 321 322 309 307 312 313 313 313 317 316 315 319 321 323 324 328 327 327 330 335 334 334 334 334 332 330 330 330 330 331 328 325 323 323 324 324 324 321 315 313 310 309 308 308 310 312 314 316
321 320 315 311 315 313 314 312 313 316 315 315 320 322 324 324 325 326 328 332 336 334 334 333 334 333 331 330 330 330 330 329 327 324 324 326 327 326 325 323 317 314 309 306 304 304 307 310 312
321 319 310 311 313 312 311 313 315 313 313 317 316 318 324 322 323 325 330 333 337 336 334 334 333 333 332 331 330 330 330 330 329 327 327 327 327 326 325 326 322 318 314 309 305 304 304 305 306
318 315 311 313 313 313 312 314 315 313 314 316 317 322 322 322 324 328 331 334 335 335 334 335 335 334 333 332 331 331 332 331 330 328 328 328 328 327 326 326 324 320 317 314 307 304 304 304 304
314 309 312 311 312 315 314 314 312 313 314 315 318 317 320 323 326 329 332 334 334 335 334 334 336 336 334 333 332 332 333 331 330 329 329 329 328 328 326 325 323 320 318 317 316 309 304 303 303
316 308 310 309 311 315 314 314 314 315 313 316 317 313 318 320 325 329 333 334 334 335 334 334 334 335 336 335 332 332 333 332 331 330 330 329 329 328 325 325 323 321 320 318 318 318 316 310 306
314 307 309 311 310 313 313 313 312 314 314 316 316 316 316 319 323 329 331 331 333 336 334 334 334 335 335 336 335 334 335 333 332 331 330 330 329 327 326 326 323 320 321 320 319 318 318 318 318
309 305 308 309 309 313 313 313 313 314 313 314 315 316 316 319 320 323 327 328 331 335 336 334 334 334 336 335 334 335 334 335 332 332 331 331 329 327 326 326 324 323 322 321 321 320 319 319 318
309 307 309 313 315 314 313 313 314 312 311 314 315 316 316 318 319 321 322 325 325 331 332 329 334 331 334 333 333 334 332 332 330 331 331 332 329 327 326 327 325 323 322 321 321 321 320 320 319
311 312 311 314 315 313 312 313 313 313 315 315 315 315 316 317 317 317 318 321 323 327 331 329 329 332 328 332 333 331 332 331 330 329 330 331 329 327 327 328 327 325 323 322 321 321 321 320 320
312 312 313 314 314 314 314 314 313 314 315 315 315 315 315 316 316 317 319 321 322 322 323 325 326 327 327 326 327 328 331 331 331 328 329 330 329 328 327 329 327 325 325 324 323 322 322 321 321
313 314 313 314 314 314 314 313 314 315 316 315 315 315 315 316 316 316 317 316 315 316 317 319 321 323 324 327 328 328 326 330 330 329 328 329 330 328 328 329 327 326 324 325 324 322 323 322 320
313 313 311 311 313 313 314 311 311 315 315 315 315 315 314 314 315 315 315 315 315 314 314 314 313 313 313 313 317 324 324 329 329 329 329 329 328 327 326 329 328 326 323 324 322 320 320 320 319
311 309 312 311 311 313 313 311 310 313 313 315 315 315 314 314 314 314 314 314 314 314 314 313 312 312 312 311 311 316 322 327 327 328 327 328 327 326 326 329 328 325 323 323 322 321 320 320 318
308 312 312 311 310 311 310 311 312 312 311 312 313 314 314 314 314 314 314 313 313 313 312 312 312 312 312 312 312 316 321 325 327 327 327 326 326 325 325 329 325 324 323 323 320 320 319 318 314
311 312 310 312 312 310 311 308 308 312 311 313 313 313 313 314 314 314 314 313 312 312 312 312 312 312 312 312 312 318 324 325 325 326 326 325 324 325 327 324 325 325 322 320 319 318 316 313 310
309 310 312 311 311 311 310 309 309 312 310 310 313 314 315 314 317 314 313 312 312 312 312 312 311 312 312 312 314 320 322 322 324 324 325 323 323 326 325 325 323 321 320 319 316 313 310 308 307
311 312 311 309 310 310 310 310 309 309 310 312 313 314 315 316 317 316 314 313 312 312 311 311 311 311 312 312 314 318 322 322 322 323 323 324 322 322 322 321 319 319 319 316 310 306 305 304 304
310 310 310 312 311 308 309 309 308 309 310 313 314 314 315 316 317 317 316 315 313 312 312 311 310 311 312 312 314 318 321 321 322 323 322 320 318 320 320 319 318 318 315 309 303 301 299 300 300
311 309 310 311 313 312 310 313 311 310 309 307 312 314 316 316 316 316 316 315 314 314 313 311 310 310 312 312 314 318 320 321 321 321 321 319 319 319 319 317 316 314 306 302 299 297 297 297 297
312 309 309 311 311 311 310 313 313 310 311 311 311 315 316 317 317 317 316 316 315 313 312 310 309 310 311 312 313 318 320 320 320 320 319 319 318 317 316 315 312 305 300 297 297 297 296 296 296
308 310 309 308 309 313 310 311 312 310 312 311 312 315 316 316 315 315 314 314 313 312 311 310 309 310 311 313 316 320 320 318 320 319 319 318 317 316 312 308 303 298 297 297 297 296 296 296 295
311 312 313 311 311 314 309 311 314 310 309 309 311 316 316 315 316 316 316 315 314 312 310 309 308 310 312 313 315 315 319 319 319 318 317 317 317 313 307 301 297 296 296 297 296 296 295 295 294
311 312 312 309 310 310 308 313 312 309 310 312 314 315 313 314 314 315 316 316 315 312 310 309 308 309 311 313 314 315 316 317 317 318 317 317 316 313 303 298 296 296 296 296 296 295 295 294 293
310 313 311 312 296 307 310 308 309 308 308 309 312 312 313 314 315 316 315 315 313 312 310 308 308 309 311 313 315 315 316 316 317 316 317 317 316 310 301 296 295 295 296 295 295 294 294 293 292
310 309 312 309 311 309 311 311 312 312 312 309 308 311 314 315 316 316 316 315 313 311 309 307 307 309 311 313 315 316 315 316 316 316 316 316 313 305 298 295 295 295 295 294 294 294 293 292 291
310 311 310 310 309 309 309 314 307 310 310 311 309 314 314 315 316 315 315 314 313 310 309 308 307 309 310 312 315 315 314 315 316 315 315 314 308 300 296 295 295 295 294 294 293 292 292 291 290
309 310 310 311 309 307 309 315 309 308 308 309 312 313 314 315 315 314 314 314 312 310 308 307 307 309 310 313 315 312 313 313 314 314 313 310 303 297 295 294 294 294 293 293 293 292 291 291 290

GFSSGP_850_thetae_063.txt.gz
Theta_e
314 314 319 324 320 316 315 316 312 314 316 316 314 315 316 318 315 315 335 336 334 335 335 334 333 332 331 332 334 334 329 323 318 318 317 314 312 311 310 311 312 312 312 314 315 321 319 319 317
313 316 322 319 317 316 316 312 314 313 319 319 320 321 321 324 327 333 335 336 333 334 335 334 331 331 331 332 333 334 329 324 321 322 322 321 318 314 312 310 310 310 311 311 313 316 317 316 316
316 321 322 312 311 315 315 312 313 317 316 315 319 320 322 324 328 333 331 334 335 333 334 334 331 331 331 331 331 332 329 325 322 322 324 325 324 322 317 313 309 308 307 308 309 311 313 313 312
320 319 314 314 315 313 314 312 313 316 314 315 318 321 322 325 327 327 329 332 335 333 333 334 332 331 330 330 330 330 329 327 324 323 325 326 325 324 323 318 313 309 306 305 305 307 309 309 307
320 318 313 313 313 312 309 312 316 315 313 317 318 318 323 324 325 324 326 333 333 333 333 333 333 332 331 330 330 330 330 329 327 325 326 326 326 325 325 322 318 312 307 304 304 305 305 306 306
318 314 314 314 312 312 311 313 317 313 313 315 316 319 320 320 324 324 329 336 336 333 334 333 333 333 332 331 330 330 331 330 329 327 327 327 327 325 325 323 319 317 312 306 304 304 304 305 305
316 312 313 311 312 313 312 313 313 313 313 315 318 319 318 321 323 327 330 334 335 335 334 335 334 333 333 332 331 331 332 331 330 328 328 328 327 326 324 323 321 318 317 315 309 304 303 303 303
316 310 311 310 312 314 312 313 314 314 314 315 318 315 317 319 322 328 331 334 334 335 334 334 335 336 334 333 332 331 332 331 330 329 329 328 328 326 325 324 321 320 317 317 317 316 312 308 305
313 310 311 312 310 313 311 311 311 313 314 316 316 315 316 318 322 327 331 333 333 334 334 334 334 334 335 335 332 332 333 332 331 330 330 329 328 325 326 325 320 320 319 319 318 317 317 317 317
309 308 310 309 308 312 311 312 312 313 313 315 315 316 316 318 320 321 325 328 331 333 334 334 333 333 333 334 333 333 334 333 331 331 331 330 328 326 326 326 324 322 321 320 320 319 319 318 318
308 307 307 312 313 313 312 312 313 312 311 314 316 316 316 316 318 320 321 322 322 332 335 331 334 334 333 333 333 332 331 331 331 330 330 331 328 327 326 326 325 323 322 321 320 320 320 319 319
312 311 310 313 314 313 311 312 312 312 315 315 315 315 315 316 317 317 318 321 324 327 333 331 335 336 330 332 333 332 331 329 330 329 329 330 329 326 325 326 325 325 323 322 321 320 320 320 320
311 311 312 313 314 314 313 312 312 312 315 315 315 315 315 315 316 317 319 322 325 327 329 331 331 328 333 329 332 331 329 331 330 329 329 329 329 328 327 327 326 326 324 323 322 321 321 321 320
312 313 312 313 314 313 313 313 313 315 315 315 314 315 315 315 316 317 319 319 320 323 325 327 328 327 325 331 327 330 329 329 330 329 329 328 329 329 328 328 328 326 325 324 322 321 319 320 319
312 312 311 311 312 313 313 311 310 314 315 315 315 315 315 315 315 316 316 317 317 319 320 320 320 322 324 325 326 326 327 327 328 328 328 327 327 328 328 328 328 326 325 324 321 319 319 318 318
310 309 312 310 311 312 312 311 311 312 312 314 315 315 315 315 315 315 316 316 317 316 315 314 314 314 315 315 316 319 327 330 325 327 328 327 326 327 327 326 324 326 325 323 321 319 318 317 316
308 311 311 311 310 310 310 311 311 313 312 313 313 314 314 315 315 315 314 315 315 314 314 314 314 314 313 312 312 311 312 321 325 325 326 326 326 328 327 324 326 327 324 323 320 318 317 316 315
311 312 310 311 311 309 310 310 308 313 310 313 314 314 314 314 315 315 315 314 314 314 314 313 313 313 312 312 312 312 311 317 322 324 325 326 326 326 325 325 327 325 324 322 320 319 316 317 313
308 310 311 309 309 311 310 309 310 312 311 311 314 315 316 317 318 317 314 314 314 313 313 313 312 312 312 312 312 312 312 320 320 320 326 324 326 324 325 324 323 325 322 323 321 318 316 313 310
310 311 311 309 308 310 310 310 310 309 312 314 314 315 316 316 318 318 317 315 314 314 313 313 312 311 311 311 312 312 315 317 319 324 325 327 323 325 322 326 325 324 323 321 320 317 314 311 307
309 310 310 311 310 308 308 309 308 308 309 311 314 315 315 316 317 317 318 317 315 314 314 313 313 312 311 311 311 312 318 319 324 322 323 322 324 322 323 324 323 322 320 319 318 315 310 307 305
311 307 309 311 312 311 309 311 310 308 309 307 312 314 315 316 316 317 317 316 316 316 315 313 312 312 311 310 310 311 313 316 317 321 322 322 323 322 321 320 321 320 318 318 316 309 306 303 301
310 307 308 310 310 310 310 312 311 309 310 310 311 314 315 316 316 316 316 316 315 314 314 314 312 311 310 310 310 311 313 316 318 320 321 322 321 320 318 319 319 318 317 314 307 303 302 300 300
307 309 308 306 308 312 310 311 312 309 311 310 310 314 315 315 315 315 315 316 315 314 313 312 312 311 310 309 310 311 312 318 318 320 321 320 320 319 318 318 318 317 315 305 301 299 299 297 296
310 311 311 310 311 315 307 310 313 309 308 309 310 315 315 315 314 315 317 317 317 315 314 313 311 310 310 309 310 311 312 317 317 319 320 320 318 318 318 317 316 314 307 300 297 296 296 295 295
309 311 311 309 308 308 308 312 311 308 310 311 312 313 313 312 313 314 316 316 316 315 314 312 311 309 309 309 309 311 311 314 317 319 319 319 318 318 317 316 313 310 300 296 295 295 295 295 294
310 312 310 310 295 307 308 307 307 306 307 308 312 312 312 314 315 316 317 317 317 316 315 314 312 309 308 308 310 311 312 317 317 318 319 318 317 317 317 315 310 301 296 295 295 295 294 294 294
309 308 312 308 309 308 309 309 311 312 311 309 307 311 314 314 315 317 317 317 316 315 314 312 310 309 308 308 310 310 311 314 315 317 318 317 316 316 316 314 304 297 295 294 294 294 294 293 293
310 310 309 309 308 309 308 312 306 309 309 308 308 312 314 314 317 317 317 317 317 315 313 312 311 309 308 307 309 310 310 314 315 316 316 316 316 315 314 312 300 296 294 294 294 293 293 293 292
307 309 309 310 308 306 307 314 307 308 309 309 309 312 314 315 316 316 316 316 315 315 314 313 311 310 308 307 309 310 310 313 315 315 315 315 314 314 312 307 297 295 294 294 293 293 293 292 291

GFSSGP_850_thetae_066.txt.gz
Theta_e
315 314 316 323 325 323 323 321 319 319 319 318 319 319 321 320 319 323 332 335 337 336 334 334 334 332 331 334 334 329 321 318 318 317 313 312 310 310 311 312 312 315 316 330 326 317 317 315 313
314 315 321 321 325 324 321 320 320 320 321 319 319 321 323 326 328 334 336 335 336 336 335 334 334 331 332 333 334 330 323 320 321 321 320 318 315 311 309 309 310 311 314 327 321 317 316 314 309
314 320 324 325 323 322 320 319 320 320 319 319 321 321 323 325 328 336 337 334 336 335 334 333 332 331 332 332 334 330 325 322 322 324 325 324 322 317 312 309 307 307 311 322 320 315 314 310 307
319 319 317 323 323 320 320 319 318 320 316 315 320 323 323 323 330 331 336 335 334 335 334 332 331 331 331 331 332 331 328 325 323 325 325 325 324 323 317 312 307 305 305 307 309 310 310 307 307
320 320 322 322 321 319 317 317 320 319 317 319 320 322 325 325 330 329 331 335 336 334 334 333 331 331 331 330 331 331 330 327 325 326 326 326 324 324 322 318 312 307 305 305 306 306 306 306 306
321 319 322 322 321 318 317 316 320 319 316 318 318 320 323 323 322 324 328 334 337 334 333 334 332 332 331 331 330 331 330 329 327 327 327 326 325 323 323 320 316 311 307 305 305 305 305 305 305
322 322 322 320 319 319 318 315 319 318 317 318 318 321 321 320 322 321 328 337 336 335 333 333 333 333 332 331 331 331 331 330 329 328 328 327 326 324 323 322 319 316 311 305 303 303 303 303 304
318 321 320 319 319 320 316 315 315 317 318 315 318 320 320 323 320 322 328 335 336 335 334 334 333 333 332 332 331 331 332 331 330 329 328 328 327 324 324 320 320 317 317 316 313 308 305 304 303
315 320 321 320 318 319 314 316 312 314 315 316 317 316 316 319 321 325 328 333 335 335 335 335 335 335 334 333 332 331 332 332 331 330 329 329 327 325 326 321 319 319 318 318 317 317 317 316 316
317 320 319 317 317 317 315 315 315 315 315 316 316 316 316 318 321 326 329 332 333 333 333 334 334 334 335 335 334 332 332 332 332 330 330 330 328 325 326 325 322 321 320 320 319 319 318 318 318
313 319 313 314 313 314 315 314 313 315 317 317 317 316 316 318 320 329 332 333 329 331 333 333 334 334 334 333 332 332 333 332 331 331 330 330 328 326 325 325 324 323 322 321 320 320 319 319 319
315 312 313 314 314 314 315 314 314 314 318 316 316 315 316 315 318 319 329 332 332 327 330 333 333 334 332 331 332 332 330 330 330 330 330 330 328 327 326 325 324 324 323 322 321 320 320 319 319
314 314 312 313 313 313 313 314 315 313 315 315 315 315 315 315 316 318 327 331 325 325 329 332 332 333 333 330 331 331 331 330 330 330 329 330 329 328 326 325 325 325 323 322 322 321 320 320 319
314 314 314 313 314 313 315 315 314 316 315 315 315 315 315 315 315 318 319 320 322 324 325 329 332 329 329 332 331 330 330 330 332 331 330 329 329 328 328 326 326 326 325 323 323 321 320 319 317
312 316 315 314 314 315 313 316 315 315 315 314 314 315 315 315 315 315 316 318 319 320 324 325 329 331 330 329 330 330 329 330 328 331 331 330 330 329 329 328 327 327 326 324 323 321 319 318 317
315 316 317 315 313 314 314 318 317 312 312 314 315 315 315 315 315 315 315 316 318 319 320 322 324 326 327 326 324 329 329 329 328 327 328 329 328 328 328 329 328 326 326 324 323 321 319 318 316
316 317 317 317 313 314 315 318 317 313 312 314 315 314 314 314 315 315 315 315 316 317 319 319 320 320 319 320 322 325 326 326 327 328 327 327 327 326 326 327 328 325 324 324 322 321 319 317 315
317 317 315 316 315 313 316 316 317 315 312 314 315 316 315 315 315 315 315 315 315 316 316 317 316 315 314 314 314 314 313 314 319 326 326 324 328 327 327 327 328 326 325 324 322 321 318 317 315
314 315 315 315 313 315 316 317 317 316 315 315 315 315 316 316 318 317 316 315 314 314 315 315 315 314 314 314 313 312 312 311 311 316 328 323 325 325 326 327 328 325 326 323 322 321 318 315 314
314 316 316 316 312 313 316 316 316 316 316 316 316 316 316 316 316 318 318 317 315 314 314 314 314 314 313 313 313 312 312 312 312 314 324 323 325 324 326 327 326 326 322 322 322 321 319 315 313
315 316 315 315 313 312 313 316 317 316 314 314 314 315 315 316 316 315 315 316 317 316 315 314 314 313 313 312 311 311 311 311 312 316 322 321 321 328 325 326 325 325 323 324 322 321 319 317 312
315 313 314 314 315 316 313 314 316 316 315 314 315 316 316 315 315 315 314 315 316 317 316 315 313 313 313 312 311 311 311 312 312 317 316 319 325 326 327 326 325 323 324 323 322 320 319 316 312
315 312 313 313 316 315 315 315 315 313 315 316 316 316 316 315 315 315 315 315 315 315 315 315 314 313 313 311 311 311 310 311 312 316 317 322 326 325 323 323 324 322 322 321 320 319 318 315 310
310 313 313 313 315 317 315 315 315 316 315 316 315 315 315 314 315 315 315 315 315 315 315 314 313 313 312 312 311 310 310 310 311 315 318 322 323 323 324 322 321 319 319 320 319 319 317 313 308
313 316 316 317 318 318 312 315 315 315 314 314 315 315 314 313 314 315 315 316 316 316 315 315 314 313 312 311 310 310 309 310 311 313 317 317 323 322 323 321 319 318 318 318 318 315 312 309 305
314 315 316 322 317 315 310 315 316 315 313 313 313 314 313 313 313 314 315 315 317 317 316 315 314 313 312 310 309 309 309 310 311 311 317 319 321 322 321 320 318 318 318 317 315 308 306 305 303
313 314 314 314 307 314 314 315 315 313 312 312 312 313 314 313 314 315 316 318 318 317 316 315 315 314 312 311 309 308 308 309 311 310 318 318 319 321 320 319 318 317 317 316 312 302 302 302 299
312 313 315 314 320 318 315 314 316 316 317 315 314 314 313 313 314 316 316 317 317 317 316 315 315 314 311 310 309 308 308 309 310 311 317 318 318 319 319 318 318 316 315 313 303 299 298 297 294
313 313 312 313 315 319 317 315 315 316 316 315 315 312 313 314 314 315 317 317 317 317 316 315 314 313 313 311 309 308 308 308 310 311 312 316 317 318 318 317 317 316 313 309 300 295 294 294 293
311 314 314 315 316 314 314 316 311 313 314 312 313 312 313 314 314 316 316 317 317 317 316 315 315 315 314 312 310 308 307 309 310 310 315 315 316 317 316 316 315 314 310 303 296 295 294 293 293

GFSSGP_850_thetae_069.txt.gz
Theta_e
316 316 317 325 327 324 324 323 322 322 322 321 325 323 323 322 322 330 337 339 339 338 337 332 333 332 332 333 329 322 318 318 315 313 311 310 311 311 312 313 322 328 329 327 323 317 313 311 309
315 315 323 324 326 325 324 322 322 322 323 320 321 322 323 328 328 334 339 340 339 339 338 335 334 332 333 334 331 323 320 321 321 321 319 314 311 309 310 311 314 328 328 328 323 316 311 309 308
314 317 325 326 324 324 322 322 322 322 322 321 322 323 324 327 330 335 339 339 340 339 339 338 333 331 333 334 332 326 322 321 323 324 323 321 315 311 308 308 310 328 328 326 315 313 308 307 308
319 321 321 324 324 323 321 321 321 323 319 319 322 323 324 327 334 335 339 339 340 339 339 334 332 331 333 333 333 328 324 323 324 325 324 324 322 317 312 308 306 308 321 309 311 309 307 307 307
320 322 325 324 323 322 321 320 321 322 320 320 321 323 324 326 331 335 339 339 340 340 339 332 330 331 332 331 332 330 327 325 325 326 325 324 323 323 318 311 307 306 306 307 307 306 306 306 307
321 322 324 324 323 321 320 319 320 320 319 320 320 321 324 327 331 335 339 339 339 339 340 332 331 331 331 331 332 331 329 327 326 327 326 325 323 323 321 316 311 307 305 305 305 305 305 305 306
323 323 323 324 321 321 321 319 321 321 319 319 320 321 324 325 328 334 337 338 338 339 338 334 332 331 331 331 331 332 331 329 328 327 327 326 324 323 322 320 316 311 307 304 304 304 304 304 304
321 323 323 323 322 321 320 319 320 320 319 318 320 320 321 323 328 333 336 337 337 338 339 338 335 332 332 331 331 331 332 331 329 328 328 327 325 324 321 320 318 316 313 310 307 305 304 304 303
317 321 322 322 322 320 318 319 317 318 318 318 319 319 320 324 329 333 335 337 337 338 338 338 338 336 336 334 332 331 332 331 330 329 329 328 326 325 322 319 319 318 317 316 316 315 314 313 311
319 321 321 321 321 320 319 318 318 317 318 318 318 317 316 325 328 333 334 336 339 339 339 338 339 338 339 339 333 332 331 332 331 330 329 329 327 325 325 322 321 320 319 318 318 317 316 316 316
319 321 320 318 317 317 319 318 317 317 319 319 319 319 316 320 328 331 332 333 335 337 338 339 338 340 340 339 335 333 332 332 332 331 330 329 328 326 325 324 323 322 321 320 319 318 318 318 317
317 316 316 317 316 316 317 317 317 317 319 318 318 318 317 321 327 329 331 332 334 335 336 340 340 340 339 335 335 333 332 333 333 332 331 330 328 327 325 325 323 323 322 321 320 320 319 319 318
315 316 314 315 315 316 315 317 318 318 318 317 316 316 317 319 324 327 329 331 333 334 335 335 339 336 335 334 334 331 332 331 332 331 331 330 329 328 326 325 323 323 323 322 322 321 320 320 319
316 315 315 315 316 315 316 317 316 317 317 317 316 315 316 317 320 324 327 330 332 334 334 334 333 330 332 330 330 330 331 332 332 332 331 329 329 329 328 326 324 324 323 322 322 322 321 320 319
316 317 316 316 316 316 315 317 316 316 315 316 316 316 316 316 317 320 324 328 331 332 332 333 325 329 332 329 332 331 329 330 333 332 332 331 330 329 328 327 326 325 325 324 322 322 320 319 318
317 317 317 318 316 316 317 317 319 317 317 316 316 317 317 316 316 317 321 325 327 330 330 328 323 325 330 329 329 329 331 330 330 331 331 332 331 330 330 329 328 327 326 325 323 322 320 319 317
318 316 318 318 316 317 317 319 319 316 316 316 317 317 317 317 316 316 316 320 319 325 327 325 321 323 326 329 331 330 328 330 330 329 329 330 331 330 330 329 328 328 326 325 324 322 320 319 318
317 318 317 318 317 316 318 318 318 317 317 317 317 317 318 318 317 316 315 315 317 320 322 321 320 320 325 328 329 329 329 326 328 329 328 326 328 328 329 328 328 328 328 325 324 322 320 319 317
316 317 317 317 316 316 317 317 317 317 317 317 317 317 317 317 317 318 316 315 315 315 317 318 319 320 323 324 324 324 323 323 322 324 325 328 327 327 326 327 327 327 328 326 323 323 320 318 317
317 316 316 317 316 315 316 317 317 317 317 317 317 317 317 317 318 318 317 316 316 315 314 315 316 317 318 319 318 316 316 315 314 314 314 319 326 327 325 327 328 326 327 325 324 324 320 317 317
316 316 316 316 316 316 316 317 318 318 318 317 317 317 317 317 317 317 318 316 317 317 316 315 315 315 316 315 315 314 314 313 313 312 312 312 316 327 329 327 327 326 327 326 324 322 322 320 317
315 316 316 316 316 315 316 316 316 317 317 318 317 317 317 317 317 317 317 317 316 315 315 316 315 314 314 314 314 314 313 313 313 312 312 312 312 329 326 326 328 326 326 326 325 323 321 320 318
316 315 315 316 317 317 317 317 316 317 317 317 317 317 318 318 318 318 317 316 315 315 314 314 314 314 313 313 313 313 313 313 311 311 312 312 312 324 323 328 323 324 327 325 325 323 322 319 318
314 315 316 316 316 316 315 316 316 317 317 317 317 317 317 317 317 316 315 315 314 313 314 314 313 314 313 312 312 312 312 312 311 311 311 312 314 323 321 320 326 324 324 322 322 323 321 320 317
315 316 315 317 320 317 316 316 317 317 316 317 317 316 316 316 315 315 315 315 316 316 315 315 314 314 313 313 312 312 312 311 311 311 311 311 314 317 317 325 326 325 322 322 324 321 319 318 316
315 316 317 321 319 318 313 317 316 317 317 316 315 315 315 315 315 314 314 315 315 316 317 316 316 314 313 312 312 311 311 311 312 311 310 310 311 317 318 323 323 322 320 323 320 319 319 317 315
315 316 316 318 317 315 315 316 317 317 315 315 315 315 315 315 315 314 314 314 314 315 316 316 316 314 313 311 311 311 310 310 311 310 310 310 311 315 318 320 320 323 322 320 318 318 318 316 315
313 314 316 315 321 319 316 317 317 317 317 317 316 315 316 315 315 314 315 316 317 317 317 316 316 315 314 313 312 312 311 310 309 309 309 310 311 314 316 319 320 322 322 319 318 318 317 315 314
313 313 314 314 316 319 319 317 317 317 317 317 318 317 315 315 315 314 314 315 316 316 317 317 316 315 314 313 313 312 311 310 309 309 309 309 311 312 317 319 319 320 320 318 317 317 315 311 307
314 314 314 316 316 315 316 318 316 316 316 316 315 316 314 314 314 313 312 314 316 317 317 317 316 315 315 314 313 313 311 310 309 308 308 309 311 311 316 317 318 318 318 318 317 315 314 307 304

GFSSGP_850_thetae_072.txt.gz
Theta_e
318 318 316 325 327 325 324 323 321 322 322 321 324 321 322 326 328 336 336 335 331 330 330 330 332 332 333 331 322 318 317 316 313 311 310 311 311 314 320 326 332 331 324 317 313 310 309 308 309
317 316 323 325 325 327 322 320 321 322 322 320 322 322 323 327 333 334 339 340 336 334 331 332 333 332 333 332 324 320 320 320 320 317 314 311 310 310 312 324 330 327 326 318 312 309 308 308 309
315 317 324 327 325 322 322 321 320 322 321 321 322 323 324 328 334 339 339 340 338 338 336 333 333 331 333 333 326 321 321 322 324 323 321 318 312 309 309 323 329 327 315 312 310 307 308 308 311
321 322 322 322 325 321 320 320 322 322 319 321 322 323 325 328 335 339 339 340 339 338 336 333 332 331 333 334 329 324 322 323 324 324 323 322 318 312 308 309 316 311 309 310 307 307 307 309 315
319 323 324 324 323 321 320 320 322 321 320 319 321 323 327 332 335 337 339 340 338 338 338 336 332 331 333 333 331 327 325 324 325 325 324 322 322 318 311 308 307 306 307 307 306 306 307 308 314
321 322 323 324 322 320 320 319 321 320 319 321 320 320 326 325 328 339 339 340 338 338 338 335 331 331 332 332 332 330 327 326 326 326 325 323 322 321 317 312 309 306 306 305 305 306 306 307 311
323 324 323 323 321 321 320 319 320 320 318 320 320 320 326 325 332 339 339 339 339 337 338 334 330 331 332 331 332 331 329 328 327 326 326 325 323 322 321 318 312 308 305 305 305 305 305 306 308
321 323 323 322 321 321 319 320 320 320 319 319 319 320 323 325 330 335 338 338 339 336 337 334 331 331 331 331 331 332 331 330 328 327 327 326 324 323 320 318 315 312 308 306 304 304 304 305 306
319 320 320 322 322 321 319 319 318 319 319 318 318 319 323 323 328 334 336 337 338 336 336 337 333 332 332 331 331 331 331 331 329 328 328 327 325 323 319 318 317 316 314 313 310 306 305 306 308
319 320 320 319 318 318 318 319 317 317 318 318 318 318 322 323 324 333 335 337 337 336 335 336 335 335 336 335 332 331 331 331 331 329 329 328 327 325 323 320 319 318 317 316 315 314 311 312 315
320 320 317 317 317 317 319 318 318 318 317 318 318 318 318 322 323 331 333 336 335 334 336 336 336 335 334 334 334 332 332 332 332 330 329 329 328 326 324 324 323 321 320 319 318 317 317 316 317
317 318 317 317 316 317 318 318 318 317 318 318 319 319 319 317 320 322 329 334 335 335 336 336 335 335 335 334 334 334 334 333 332 331 329 330 329 326 325 325 324 322 321 321 320 319 319 318 317
315 316 314 315 315 316 316 316 317 318 318 318 318 318 319 318 319 323 327 330 333 335 337 334 336 335 335 335 335 334 334 333 332 332 331 330 330 328 326 324 324 323 322 322 321 320 320 319 318
316 316 315 315 316 316 315 316 316 317 317 317 317 317 317 318 318 324 327 330 331 333 334 335 334 336 335 336 336 334 333 331 331 332 332 331 330 328 327 326 324 322 322 322 321 322 320 320 319
316 316 315 315 316 316 315 315 314 316 316 316 317 317 316 316 317 319 322 325 330 332 333 334 335 332 338 338 334 334 332 330 332 331 333 332 331 329 328 327 326 323 323 323 323 322 321 320 319
316 316 316 317 316 316 316 314 316 316 317 316 316 316 316 316 316 316 318 322 324 330 332 333 333 332 330 330 332 330 328 329 330 331 332 332 332 330 329 328 327 326 324 324 323 322 322 320 318
316 313 314 316 316 316 315 317 318 317 316 316 316 316 316 317 317 316 316 318 321 324 330 331 330 328 325 325 331 331 329 328 328 330 331 332 332 332 332 329 328 328 327 326 325 323 322 320 318
316 316 315 317 316 315 315 314 315 317 317 317 317 317 318 318 317 317 317 316 318 320 323 328 328 326 325 326 328 330 329 329 329 329 330 330 330 331 331 330 329 329 328 327 325 323 322 320 318
316 316 314 315 315 316 315 314 314 316 316 316 317 317 317 317 317 317 317 317 316 318 319 323 326 325 324 324 326 328 326 326 327 326 326 329 328 330 332 329 330 329 328 326 325 324 322 319 317
316 315 314 314 314 315 314 313 313 314 315 316 317 317 317 317 317 317 317 318 317 316 316 321 323 323 319 320 321 323 323 324 324 322 321 323 326 329 332 331 330 328 328 328 327 326 323 318 319
315 314 314 314 315 313 313 313 314 315 315 315 316 317 317 317 317 317 318 317 317 317 316 316 318 318 318 319 321 323 326 326 325 319 317 318 321 326 329 331 330 327 328 328 326 324 324 321 318
314 314 314 315 314 313 315 313 313 312 312 314 317 317 317 316 316 317 317 317 318 317 317 316 315 317 318 318 318 319 318 318 316 315 314 314 314 316 323 328 327 327 326 325 327 325 324 322 321
314 314 315 315 315 315 315 313 312 311 313 313 315 317 317 317 317 317 318 317 317 317 317 316 315 315 315 315 315 316 316 316 315 314 314 313 313 312 315 324 324 322 325 325 324 325 323 322 320
313 315 315 315 314 312 312 313 311 312 314 315 316 317 317 317 317 317 316 317 317 316 316 316 315 314 313 314 314 314 314 314 314 314 314 313 312 311 311 315 322 320 325 324 323 322 325 323 320
315 314 313 315 314 314 313 312 312 314 313 314 314 316 316 315 316 315 315 315 315 315 315 314 314 313 313 313 313 313 313 313 313 314 313 313 312 311 312 313 313 322 324 320 321 323 324 323 321
313 313 314 313 316 313 311 312 312 314 315 316 315 315 315 315 315 315 315 314 314 315 316 315 314 313 312 312 312 312 312 312 313 313 312 312 312 311 311 312 312 322 323 323 321 323 321 321 320
314 313 313 313 305 311 312 312 312 313 313 314 315 315 315 314 315 315 315 314 314 314 314 315 315 314 313 313 312 312 312 312 312 312 312 312 311 311 311 312 315 323 319 321 322 322 321 319 320
312 312 314 312 312 312 312 312 312 312 313 312 312 316 316 315 315 315 315 314 314 314 313 315 315 314 314 313 313 313 312 312 311 311 311 311 311 311 310 311 312 318 320 322 321 319 319 318 319
312 312 313 312 312 313 312 311 313 313 314 315 315 315 315 314 313 313 314 314 313 314 314 314 315 314 314 314 313 314 314 313 312 311 311 311 311 310 309 310 311 318 318 319 319 320 320 318 318
312 311 312 312 312 310 312 314 314 312 313 315 314 315 315 315 316 315 314 314 315 315 315 315 316 316 316 315 314 315 315 314 313 312 311 311 310 310 309 310 311 313 316 317 318 319 318 318 317

GFSSGP_850_thetae_075.txt.gz
Theta_e
318 319 318 323 320 317 319 320 317 321 319 322 322 321 324 327 330 330 334 329 330 331 331 331 332 332 330 323 317 317 315 313 311 310 311 312 315 326 331 333 331 325 314 311 309 308 310 315 324
318 317 321 324 319 319 316 318 318 320 319 322 320 322 323 328 330 334 334 332 330 330 330 331 331 332 331 324 319 319 320 320 319 315 311 310 311 318 329 330 325 318 312 309 308 308 311 316 321
316 317 322 319 317 316 317 316 318 319 320 320 322 323 326 331 332 337 339 338 330 330 330 332 331 332 332 327 321 320 321 323 322 321 317 312 309 315 329 328 320 313 310 307 308 309 312 317 320
319 321 321 316 321 317 316 316 319 318 320 321 322 323 327 332 333 338 339 338 337 335 333 333 332 331 333 329 324 322 321 323 323 323 320 318 311 309 316 316 310 309 308 307 308 309 313 316 325
319 321 318 319 319 317 315 320 321 317 318 320 321 322 327 335 337 338 339 339 337 337 336 333 332 331 333 332 326 324 323 324 324 323 321 320 319 313 309 308 307 307 307 306 307 309 313 316 323
320 319 317 319 318 317 316 319 321 317 318 320 319 324 326 333 335 337 339 338 338 337 337 335 332 330 332 332 330 327 325 325 325 325 323 321 320 319 314 310 307 306 306 306 306 308 311 316 320
320 316 317 320 317 317 316 319 318 316 319 319 319 321 327 326 331 337 339 338 337 337 337 337 332 330 331 331 331 329 327 326 326 325 325 323 321 321 319 314 309 306 305 305 306 307 309 313 315
320 316 319 318 318 318 317 319 319 318 317 319 318 319 326 324 335 338 339 338 336 336 336 336 331 330 331 331 331 331 329 328 327 326 326 325 322 322 319 316 312 308 305 304 305 305 307 310 314
318 314 315 317 318 317 318 317 318 318 318 318 318 321 322 322 331 338 338 338 336 334 334 336 331 330 330 331 331 331 331 330 328 328 327 326 325 322 318 316 315 313 309 306 304 304 305 308 312
316 312 316 315 315 316 317 318 318 317 317 318 318 318 320 322 325 331 336 338 335 335 334 334 333 331 331 331 331 331 331 330 330 329 328 327 326 324 321 318 317 316 314 312 309 307 307 309 312
317 315 316 315 316 316 317 317 317 316 315 317 317 318 321 322 323 325 328 335 336 335 334 334 335 332 333 332 332 331 331 331 330 330 329 328 328 326 324 323 321 320 318 317 315 314 313 315 316
316 317 316 316 316 316 316 317 317 317 317 318 317 318 319 320 320 320 325 331 337 336 335 332 335 334 334 333 333 332 331 331 331 331 329 329 328 326 324 324 324 323 321 320 319 318 317 317 317
314 314 314 315 315 315 316 315 315 316 317 317 317 318 318 318 317 317 320 327 335 336 335 330 334 334 334 333 333 332 333 333 332 332 330 330 329 327 326 324 324 323 322 321 321 321 319 318 318
315 314 314 315 315 315 314 314 315 316 316 317 316 317 317 318 318 317 321 323 327 327 328 329 333 332 334 333 333 333 333 333 333 332 331 331 330 329 327 325 324 322 322 321 321 321 321 319 318
315 314 313 313 314 314 315 310 312 314 315 316 317 316 317 317 317 317 317 318 321 325 327 330 333 333 332 334 333 333 333 333 333 332 332 332 331 330 329 326 324 323 322 322 321 321 320 320 319
314 313 312 313 313 315 313 308 312 315 314 315 316 316 316 316 316 316 316 318 320 325 329 331 332 333 333 331 334 333 334 333 332 331 332 332 333 331 330 328 327 325 323 322 322 322 322 321 320
313 310 312 314 313 314 313 311 314 316 316 315 315 315 316 316 316 316 316 316 317 320 327 330 332 332 332 333 331 335 332 333 332 330 331 331 332 331 330 330 328 327 325 323 322 322 321 321 320
312 313 313 313 314 313 313 311 311 315 315 315 316 316 316 316 316 316 316 316 316 316 320 327 331 331 332 331 331 331 334 333 330 329 329 329 331 332 331 330 329 328 327 325 323 323 322 321 320
313 314 313 312 314 314 312 311 311 314 314 313 314 315 316 317 317 317 317 317 317 316 317 322 327 330 331 331 330 330 329 332 331 328 327 328 328 331 331 329 329 328 328 326 326 323 323 322 318
313 314 313 312 313 313 312 311 310 310 312 314 313 314 315 316 316 317 317 317 317 317 317 317 321 326 328 329 325 326 323 326 330 329 328 327 329 329 330 329 328 328 327 327 325 325 323 319 320
314 313 313 312 312 311 311 309 310 310 313 315 315 315 315 315 316 316 317 317 317 317 317 317 317 318 323 324 327 328 327 327 329 328 328 329 326 331 329 328 328 327 327 326 326 325 323 324 321
314 312 312 312 312 311 311 310 310 311 311 310 313 315 316 316 316 316 316 316 316 317 317 317 317 316 318 322 325 325 323 322 321 323 325 324 327 326 330 327 327 327 326 325 325 326 324 324 322
312 313 313 314 313 313 312 311 309 309 310 309 311 314 315 317 316 317 317 317 317 316 317 317 317 316 317 319 321 322 323 322 322 323 323 325 325 325 324 328 325 326 326 325 324 325 325 324 322
311 313 312 311 309 310 309 310 308 309 311 312 313 315 316 316 316 316 316 315 316 317 317 317 316 316 315 316 318 319 320 321 320 321 321 321 320 319 318 319 324 324 325 325 325 323 325 324 323
312 309 309 311 311 309 309 309 309 309 310 312 314 314 314 315 314 315 314 314 314 315 316 315 315 315 315 314 315 316 316 316 316 316 316 316 315 314 314 313 313 316 321 321 323 325 323 324 323
311 310 309 309 314 311 308 311 312 309 313 313 314 314 313 314 314 314 315 315 314 314 314 314 314 314 314 313 313 313 313 313 313 313 313 314 313 314 313 313 312 311 312 320 321 322 318 324 322
311 312 310 311 299 308 309 309 309 309 310 312 313 314 315 315 316 316 316 316 315 314 314 314 313 313 313 313 312 312 312 312 312 312 312 312 313 312 312 312 312 312 312 319 320 319 315 321 319
311 310 312 309 308 309 309 309 311 310 310 313 312 314 314 315 315 315 315 314 315 314 314 314 313 313 314 313 313 313 312 312 312 312 312 312 312 312 312 312 312 312 312 315 319 316 317 320 321
311 311 311 310 310 309 309 309 306 309 311 313 313 314 315 315 315 314 314 314 314 315 315 315 315 315 314 314 314 314 314 313 313 313 313 312 312 312 311 311 311 311 311 313 313 316 317 317 318
310 310 310 311 310 308 309 312 309 309 312 312 313 314 314 314 314 315 314 314 314 314 314 315 315 315 315 315 314 315 315 315 314 314 314 313 312 312 312 311 311 310 310 311 312 314 316 317 317

GFSSGP_850_thetae_078.txt.gz
Theta_e
318 318 318 322 320 314 317 318 318 320 319 321 321 322 322 327 328 323 332 330 331 332 331 331 330 329 323 317 317 314 312 311 311 312 314 321 331 332 333 330 324 313 309 308 311 316 317 323 323
318 317 319 323 317 314 315 316 318 319 320 320 322 324 325 331 331 333 330 330 330 331 331 332 331 330 324 319 319 318 319 316 312 310 312 315 327 329 330 325 318 311 308 308 311 312 316 320 320
316 317 322 316 312 315 315 316 317 318 319 320 321 323 326 331 331 331 330 330 330 330 331 331 332 331 327 321 320 321 322 321 319 315 310 311 325 327 324 318 313 309 307 308 310 313 316 318 319
318 320 319 314 317 316 315 316 317 317 319 321 321 325 328 331 332 335 333 330 330 330 331 331 331 331 329 324 321 321 323 322 322 319 316 311 312 315 314 310 309 308 307 308 310 312 317 322 323
320 320 315 318 317 316 316 318 318 316 318 320 322 322 332 333 337 337 338 334 330 330 331 332 331 331 331 327 323 322 323 323 323 321 319 317 314 311 310 308 308 307 307 308 310 313 319 326 324
319 317 315 317 316 315 316 320 318 316 317 319 323 326 333 335 337 338 338 338 336 335 335 333 331 331 331 329 326 325 324 324 324 323 321 319 318 316 313 308 307 306 306 308 310 314 316 320 322
317 313 315 318 317 316 315 318 317 316 317 319 321 322 329 337 338 338 339 338 337 336 335 334 331 330 331 331 329 327 326 325 325 324 323 321 319 319 317 312 308 306 306 306 309 312 315 317 319
320 314 318 317 316 317 316 317 317 318 316 318 319 322 327 333 336 338 337 336 337 336 336 336 333 330 331 331 330 329 328 327 326 325 325 323 321 321 320 316 311 306 305 306 307 310 312 313 315
318 313 314 317 316 317 316 316 317 318 318 318 318 320 321 322 334 339 337 336 335 335 335 336 334 330 330 330 330 330 329 328 327 327 326 325 323 321 318 315 312 308 305 305 306 307 308 310 311
314 312 314 314 314 315 316 317 318 317 317 317 317 320 321 321 332 338 338 336 334 333 334 334 335 330 330 331 330 330 330 329 329 328 327 327 325 323 320 317 315 312 309 307 306 306 307 308 310
315 312 313 314 315 316 316 315 316 315 313 316 317 318 321 323 328 334 337 337 334 335 333 332 334 332 330 330 330 330 330 330 329 329 328 327 327 325 322 321 319 317 314 312 311 310 310 311 314
315 315 315 315 315 315 315 316 315 315 317 317 317 317 318 320 321 322 328 332 335 334 334 333 332 332 332 331 331 331 331 330 330 330 329 328 328 326 324 323 323 321 320 318 317 317 316 316 316
314 313 314 315 315 314 315 314 314 315 316 317 317 317 318 319 319 319 319 325 333 334 334 334 333 331 331 330 330 331 330 331 330 330 330 329 329 327 325 324 323 323 322 321 321 321 320 319 318
314 313 313 314 314 314 313 312 314 314 315 316 316 316 317 318 319 319 320 321 326 332 335 335 334 330 331 333 332 331 331 329 332 332 331 330 329 329 326 324 323 323 322 321 321 321 320 320 319
314 313 312 312 313 313 314 309 311 313 315 315 316 316 317 318 318 319 317 317 319 322 330 334 333 332 330 331 332 332 332 331 332 333 331 330 330 330 329 326 324 323 322 321 320 320 320 320 319
312 309 309 310 312 314 311 308 309 315 314 313 315 315 316 316 316 317 317 318 318 322 326 330 331 329 331 330 330 332 332 332 332 333 333 332 330 329 329 329 326 324 323 321 320 321 320 320 320
309 308 311 311 311 312 311 310 311 315 315 314 314 315 315 315 316 316 316 316 317 318 320 323 326 327 330 332 331 329 331 331 331 332 333 332 331 329 329 330 330 326 324 323 321 321 320 321 319
310 312 311 311 312 312 312 310 309 315 313 314 314 315 316 316 316 315 315 315 316 316 318 321 324 327 330 332 333 332 330 330 332 332 332 331 330 331 329 329 329 329 327 325 324 321 320 319 319
309 312 313 312 313 313 311 310 309 313 313 313 314 314 314 314 315 316 316 316 316 316 316 317 322 326 330 332 334 333 332 330 331 332 331 330 329 329 331 329 329 329 329 327 325 323 319 318 317
311 312 312 311 312 312 311 310 309 309 311 313 313 313 314 314 314 314 315 316 317 316 316 316 317 321 325 329 331 332 332 332 330 333 331 332 328 328 328 330 329 330 329 328 326 325 322 319 319
312 311 312 311 311 310 310 307 308 309 311 313 314 313 314 315 316 315 315 315 316 316 316 316 316 316 319 322 329 332 333 333 332 330 334 333 330 329 328 330 328 327 328 328 327 325 325 322 320
312 311 312 312 310 309 309 307 308 309 308 308 313 312 313 314 315 315 316 316 315 316 316 316 316 316 317 320 324 327 328 329 327 328 329 331 333 331 330 329 328 327 327 326 328 326 325 323 321
311 311 312 312 310 312 310 309 307 307 309 308 309 312 316 316 316 316 316 316 317 316 316 316 316 316 316 317 320 322 326 327 328 327 327 327 331 331 330 329 328 326 326 326 326 327 326 324 324
310 311 309 307 306 308 308 307 305 308 310 311 311 313 313 315 314 314 314 314 314 314 314 316 316 316 316 317 318 319 319 323 325 326 326 325 325 328 330 327 326 325 325 324 324 325 324 325 324
310 308 308 309 309 308 307 308 307 308 308 310 310 311 312 313 314 315 315 314 314 315 314 314 316 316 315 316 316 317 320 323 323 323 323 322 322 322 324 326 327 327 325 323 322 322 323 326 324
309 307 308 307 310 309 308 310 310 309 309 310 313 313 314 315 315 315 315 315 315 315 314 313 314 314 315 315 315 315 315 317 318 318 318 317 316 316 317 318 317 316 316 317 318 317 317 319 321
311 310 307 308 296 306 308 308 308 308 309 311 312 314 314 315 314 315 314 314 315 315 314 314 314 313 313 313 313 313 313 313 313 313 313 313 313 313 313 314 314 314 314 313 313 312 313 317 316
309 308 311 308 307 306 308 308 309 311 310 310 310 313 314 314 314 314 314 314 314 314 314 315 314 314 313 313 314 314 314 313 313 312 313 312 312 312 312 312 313 313 313 313 313 313 311 313 315
310 310 310 309 307 307 306 308 305 309 310 309 311 313 313 313 313 314 313 313 313 314 314 314 314 315 315 315 315 314 314 314 314 314 314 314 313 313 312 312 312 312 312 312 313 313 311 311 313
309 309 310 310 309 306 308 310 307 308 307 309 311 311 312 312 313 313 313 313 313 314 314 314 314 314 314 314 314 313 314 314 314 314 314 313 313 313 312 312 311 311 311 311 311 311 310 309 312

GFSSGP_850_thetae_081.txt.gz
Theta_e
318 319 318 319 319 313 316 317 318 318 319 319 322 319 319 325 321 318 330 330 330 327 328 331 329 324 316 316 312 311 311 311 312 316 329 331 333 331 328 322 312 309 312 318 318 315 311 311 310
317 318 318 322 316 314 314 314 318 317 319 325 323 324 325 329 331 332 329 330 330 331 330 330 331 325 318 318 317 316 313 311 311 313 323 329 329 328 323 315 311 308 314 320 320 316 319 314 314
317 316 321 314 310 314 314 315 315 317 319 319 321 324 326 328 328 330 329 331 331 331 331 331 331 327 320 319 320 321 320 316 312 311 316 326 327 323 317 313 309 308 316 316 316 316 317 317 316
316 318 318 312 316 314 314 315 316 316 318 320 322 324 328 329 328 329 329 330 331 330 331 331 331 329 323 321 320 322 322 320 316 313 312 325 323 319 312 309 308 308 312 318 320 322 323 320 317
318 320 314 316 316 314 315 317 316 316 317 320 322 323 330 330 333 330 329 330 330 330 330 330 331 331 327 323 322 321 322 322 320 318 315 314 313 312 310 308 307 307 312 313 320 327 324 323 323
318 316 314 315 315 314 316 318 316 315 316 318 323 329 332 334 334 335 331 329 330 329 331 331 330 331 329 326 323 323 323 323 322 320 318 317 316 314 311 308 307 306 309 309 312 322 324 321 322
316 311 314 316 314 315 314 318 314 315 316 318 323 323 327 333 335 334 336 331 330 329 331 332 331 330 330 329 326 325 324 324 323 323 321 319 318 318 315 310 307 306 307 309 311 314 315 316 320
319 313 316 316 314 316 313 317 317 317 316 317 322 321 327 331 336 336 337 337 336 336 335 332 331 329 330 330 328 326 326 325 325 324 324 322 320 320 319 315 309 307 306 307 308 310 312 315 318
318 312 314 316 314 316 314 315 315 317 317 318 318 319 320 332 337 337 337 337 337 336 336 335 332 330 330 330 329 328 327 327 326 326 325 324 322 320 318 314 311 307 306 306 307 309 309 311 312
314 311 313 313 313 314 315 315 316 316 316 317 317 319 321 328 335 337 336 334 335 334 336 335 335 332 330 330 330 329 329 328 327 327 326 326 324 322 319 315 312 310 308 307 306 307 308 309 310
313 313 312 314 314 315 315 315 315 314 314 316 317 317 321 324 331 335 335 334 331 333 333 333 334 334 330 330 330 330 329 329 328 328 327 327 326 324 321 318 316 314 313 312 310 308 309 310 312
315 314 313 314 315 315 314 315 314 314 316 316 317 317 318 320 323 329 333 334 332 333 332 332 331 334 334 330 330 330 330 330 329 329 328 328 327 326 324 321 320 319 319 317 315 314 314 314 315
313 312 313 315 315 314 314 314 313 314 316 316 317 316 317 318 320 322 327 332 334 333 332 333 332 332 332 331 330 330 330 330 330 330 329 329 328 328 325 323 323 322 322 321 320 320 319 318 317
313 312 312 313 313 313 312 311 313 312 313 315 316 316 317 318 318 320 325 326 330 332 330 331 333 332 330 330 330 331 331 330 329 331 330 330 329 328 326 324 323 322 321 321 320 320 320 320 320
313 312 311 312 312 312 313 309 310 312 312 314 314 315 316 317 318 319 318 319 319 322 328 331 332 333 332 330 329 328 329 329 330 329 331 331 330 329 328 326 324 323 322 320 320 320 320 320 320
310 308 308 308 311 312 310 307 308 314 314 313 314 314 315 316 317 317 318 319 319 320 324 329 333 334 333 333 329 329 330 330 330 329 330 331 330 328 328 328 326 324 322 321 320 320 320 320 319
307 306 309 310 310 312 310 310 309 314 314 314 314 314 314 315 315 316 317 318 318 318 319 323 330 333 334 334 332 330 329 330 330 329 330 332 329 328 327 326 327 327 323 321 321 320 320 320 319
310 309 309 309 311 311 311 310 309 313 312 313 314 314 314 315 315 315 315 315 316 316 317 319 323 328 333 334 333 331 331 330 329 330 330 331 332 330 328 327 327 327 326 324 322 321 320 319 318
307 310 311 311 311 312 310 309 308 312 312 312 314 314 314 314 314 314 314 315 315 315 316 316 318 321 328 332 332 331 332 332 331 330 329 330 331 331 331 328 327 328 329 326 324 323 320 319 318
310 311 311 310 311 312 310 309 307 308 311 313 313 313 313 314 314 315 314 313 314 315 315 315 316 317 319 324 326 330 331 333 332 332 331 329 331 331 330 330 328 328 327 328 327 325 323 321 319
309 309 310 310 309 308 308 306 305 306 309 312 312 312 312 312 313 315 315 314 314 314 315 316 316 316 316 318 324 328 332 333 334 333 332 331 328 331 332 332 330 328 326 327 329 327 325 324 322
311 309 309 310 309 308 307 306 306 307 306 307 310 310 313 314 314 315 315 315 315 315 315 315 315 315 315 316 319 322 324 328 326 330 332 332 331 329 329 331 330 329 328 327 326 327 327 326 323
310 310 310 310 307 310 309 308 306 306 308 308 308 312 313 314 314 314 314 314 314 315 315 315 315 315 315 315 317 320 323 324 328 329 331 331 332 330 328 327 329 329 328 327 326 325 326 327 325
308 308 306 305 304 307 306 305 304 306 309 309 308 310 312 313 314 314 314 314 314 314 314 314 314 315 315 314 315 317 320 323 325 326 328 329 329 329 329 327 326 326 327 327 328 326 325 326 325
308 307 307 307 307 307 305 306 305 306 307 307 307 311 313 314 314 314 314 315 315 315 314 314 313 314 315 315 315 316 318 322 324 325 325 325 327 328 327 326 325 325 325 326 326 326 325 324 324
307 307 307 306 307 307 307 308 308 308 308 310 311 312 313 313 313 313 314 314 314 314 314 315 314 314 313 314 314 315 316 317 319 320 322 324 325 324 322 322 322 323 324 323 322 323 323 321 321
310 308 305 306 295 306 306 307 307 306 309 309 310 312 312 313 313 313 313 313 314 314 314 314 314 314 314 313 313 313 313 313 313 313 314 314 315 315 315 315 316 316 316 317 319 321 320 318 317
309 307 310 306 305 305 306 308 307 307 309 308 308 311 311 312 312 313 313 313 313 314 314 314 314 314 314 314 314 314 314 314 313 313 313 313 312 312 312 312 313 313 313 314 314 314 314 313 312
309 309 307 308 306 306 305 307 304 306 308 307 308 311 311 313 313 313 313 313 313 313 314 314 314 314 313 314 313 313 313 313 314 314 313 313 312 312 312 312 312 312 312 313 313 313 313 313 313
308 308 307 308 308 305 307 308 305 306 307 310 310 310 312 312 312 313 313 313 313 313 313 313 313 314 313 313 313 313 313 313 313 313 313 313 313 312 312 312 312 312 312 312 312 312 312 312 312

GFSSGP_850_thetae_084.txt.gz
Theta_e
319 320 318 320 319 312 315 317 317 318 318 319 325 322 323 324 325 318 330 330 329 324 325 331 327 318 315 313 311 311 312 314 317 330 333 333 330 328 320 312 309 311 315 315 314 315 310 310 310
317 318 318 321 314 315 313 313 318 316 319 322 323 325 325 326 330 331 330 330 326 325 327 330 328 319 317 315 312 311 311 312 315 327 329 330 325 320 313 310 309 316 318 323 327 314 313 313 312
316 317 319 312 309 313 313 313 315 316 323 318 321 323 325 327 327 329 330 330 327 327 330 329 328 319 318 318 319 317 314 312 312 322 327 327 320 314 312 309 309 321 320 322 324 319 314 314 313
316 318 317 312 315 314 314 313 315 315 317 318 322 323 327 329 327 329 330 330 330 329 330 330 329 322 319 319 321 321 319 316 313 314 327 324 313 310 308 308 308 317 328 329 326 321 316 315 316
318 319 314 315 315 313 313 315 316 315 316 319 321 322 328 329 330 328 330 330 331 330 331 331 330 326 322 320 320 321 321 319 316 314 317 316 313 311 308 308 308 314 321 322 326 325 322 325 323
317 316 313 314 314 313 315 316 316 315 316 319 322 327 329 330 331 329 330 330 330 330 330 331 331 329 325 322 321 322 322 321 319 318 316 316 315 313 309 307 307 310 311 318 326 324 317 317 319
315 311 314 314 314 316 316 317 314 314 315 317 323 324 325 330 332 330 329 330 330 330 330 330 330 331 328 325 323 323 323 323 322 321 319 318 317 316 313 309 307 307 308 311 314 316 315 315 317
318 311 314 315 313 315 313 317 315 315 315 317 322 318 322 325 332 335 331 329 330 329 330 331 330 330 330 328 325 325 324 324 323 323 322 320 319 319 317 313 309 307 307 308 309 311 312 314 314
317 312 313 314 312 315 313 314 314 315 316 317 320 318 320 324 331 335 335 331 330 330 330 332 331 330 330 330 328 326 326 325 325 324 324 323 322 319 317 313 310 309 307 307 307 309 310 312 312
313 311 313 311 311 312 313 315 315 315 315 316 317 317 319 325 329 333 336 336 335 335 335 335 332 331 329 330 329 328 327 326 326 326 325 325 324 322 318 315 312 310 308 308 307 308 308 309 310
312 312 311 313 314 314 314 314 315 314 314 316 317 317 319 325 330 330 331 335 333 335 334 335 334 333 331 329 330 329 329 328 327 327 326 326 325 324 321 318 315 313 312 311 309 309 309 310 311
314 313 312 314 314 314 313 314 314 314 316 315 316 317 317 321 325 325 327 329 329 331 330 332 332 333 334 331 329 329 329 329 328 328 327 327 327 326 325 320 318 317 316 314 312 312 313 314 315
312 312 312 314 314 313 314 313 313 314 315 315 316 316 317 319 319 320 325 330 331 331 330 331 330 331 332 333 332 329 329 329 329 329 328 328 327 327 326 323 321 320 319 318 317 318 318 318 318
312 311 312 313 312 312 312 310 312 311 313 314 315 315 316 317 317 319 323 326 330 331 331 331 332 332 331 331 331 331 329 329 330 330 330 329 329 328 327 325 323 322 321 319 318 319 319 319 319
311 311 310 311 312 311 312 309 309 311 311 313 313 315 315 317 319 318 318 320 322 326 330 331 331 332 333 332 330 329 328 330 330 329 328 330 330 329 328 327 325 323 322 321 320 319 320 320 319
309 306 308 308 310 311 309 306 307 312 312 312 312 313 314 315 316 317 318 319 322 324 326 329 331 331 332 332 332 331 329 326 324 328 327 329 328 329 327 327 326 324 322 321 321 321 321 320 320
306 306 308 308 309 311 309 308 309 312 312 313 313 313 313 314 314 315 315 316 318 319 321 322 327 329 331 332 333 332 332 329 328 326 328 329 327 328 328 327 326 326 326 324 321 320 320 320 320
308 308 308 308 309 310 311 309 307 312 311 312 314 314 314 314 314 314 314 314 315 316 319 320 321 325 329 332 333 333 333 331 331 329 327 328 328 328 328 329 328 326 324 326 325 323 321 321 319
306 308 309 309 310 311 310 308 307 311 311 312 313 313 313 313 313 313 313 314 314 314 315 317 319 319 324 329 332 334 333 332 332 331 330 329 328 326 328 329 330 329 326 324 327 324 320 322 319
308 309 310 309 310 310 308 308 307 307 309 311 312 312 311 312 313 312 313 313 313 313 314 314 315 316 318 322 324 330 332 332 331 330 331 331 330 330 328 328 329 331 329 327 327 327 325 322 322
308 308 309 309 308 306 305 305 304 305 307 309 309 309 309 311 311 312 313 313 313 312 312 314 314 314 315 317 323 327 331 331 331 330 331 331 332 332 331 330 329 329 329 328 327 326 326 327 322
308 307 308 308 308 309 305 305 305 306 304 305 307 310 311 312 313 313 313 314 314 314 314 314 314 314 314 314 319 321 322 323 320 323 325 329 331 332 332 330 329 327 329 330 329 330 327 327 326
309 307 308 308 306 308 308 306 305 303 308 307 306 309 311 313 313 314 314 313 313 313 313 313 314 314 314 313 313 316 320 322 324 324 326 327 329 331 331 328 328 329 327 325 326 328 328 328 327
306 305 304 304 303 306 305 305 304 305 307 308 306 311 312 312 313 313 314 314 314 314 314 313 313 314 315 314 313 313 315 317 321 324 326 326 328 329 329 328 327 326 326 327 326 325 328 328 328
306 306 307 307 306 306 304 305 304 306 307 306 307 310 312 312 313 313 313 314 314 314 314 314 314 313 313 314 314 314 315 318 320 323 326 328 329 330 330 328 326 326 325 325 324 324 325 327 325
306 307 307 305 305 306 305 307 306 305 307 308 310 311 312 312 312 313 313 313 314 314 314 313 314 314 313 312 312 313 314 315 316 317 319 322 322 322 323 325 325 325 324 323 324 323 324 321 321
309 307 304 305 293 304 305 305 306 305 306 308 309 311 312 312 312 312 313 313 314 314 314 314 314 313 313 314 314 314 313 313 313 312 312 312 313 313 314 315 316 318 319 319 320 322 322 322 320
308 305 309 304 303 304 305 306 305 308 307 306 307 310 312 313 313 313 313 313 312 313 313 313 313 313 313 313 313 313 313 313 313 312 312 312 312 312 312 312 312 312 313 313 314 314 315 315 319
308 308 306 306 306 305 304 305 303 307 306 306 308 311 311 312 312 312 312 313 313 313 313 313 313 313 313 313 313 313 312 312 312 312 312 312 312 312 312 311 311 311 311 311 312 312 313 313 314
307 307 307 307 306 303 305 306 304 306 306 308 309 310 311 311 311 312 312 312 312 312 312 311 312 312 313 313 313 313 313 313 313 312 312 311 311 311 311 312 311 311 310 310 310 311 311 312 312

GFSSGP_850_thetae_090.txt.gz
Theta_e
322 320 319 321 326 324 323 324 325 326 327 324 330 329 329 329 326 329 331 332 333 330 334 321 317 314 312 313 315 321 323 329 334 332 325 320 314 311 311 321 327 326 320 316 312 312 313 318 322
321 319 320 322 325 321 321 322 327 325 322 325 324 325 325 327 332 331 332 331 330 326 325 324 316 314 312 312 313 316 328 331 333 329 320 313 311 310 314 325 328 329 325 317 314 311 310 310 312
320 318 323 324 324 321 320 322 326 321 322 323 323 325 326 328 328 333 331 329 326 330 334 322 316 315 313 311 311 312 319 330 331 325 315 310 310 310 318 323 326 329 321 320 314 312 312 312 312
317 319 319 323 323 319 319 320 321 323 319 319 324 325 328 326 330 330 330 326 324 329 330 323 318 317 318 317 315 313 315 327 329 321 315 311 308 309 311 314 319 328 327 317 313 314 317 316 318
316 320 323 322 321 319 317 318 321 323 320 321 322 324 328 326 329 330 329 326 325 329 328 324 319 318 320 320 319 316 314 316 324 319 316 314 310 308 309 311 313 326 320 318 320 320 327 326 325
320 320 323 324 320 318 318 317 319 320 319 321 322 324 329 328 329 330 329 327 328 329 329 327 321 320 319 320 320 319 317 316 318 317 316 315 314 310 309 308 309 326 325 323 322 322 323 325 323
321 323 323 323 320 320 320 317 319 319 319 321 323 324 327 330 329 330 329 329 328 331 330 330 325 322 321 320 321 321 320 319 318 319 318 317 317 315 312 310 309 318 327 323 316 316 319 315 315
318 321 321 320 319 319 318 317 316 318 318 317 323 320 324 331 328 329 329 329 330 330 330 331 329 325 323 322 322 322 322 321 321 321 321 320 318 316 314 312 310 310 322 320 313 314 315 314 315
317 321 322 321 318 318 315 318 314 315 317 318 321 319 322 325 328 329 330 331 331 330 330 330 330 330 326 324 323 323 323 323 323 323 323 322 321 318 315 313 311 309 311 311 310 312 313 314 313
320 321 322 319 318 319 316 318 316 317 317 317 318 318 320 324 328 328 330 332 331 330 330 330 330 330 330 327 325 325 324 324 324 324 324 324 323 321 318 315 312 310 309 310 309 311 312 313 312
316 320 317 315 314 315 317 316 315 317 318 318 318 318 318 325 328 330 329 331 329 329 329 330 331 331 330 330 329 327 326 325 325 325 325 325 325 324 322 319 315 314 313 312 310 310 311 311 312
317 313 314 313 313 313 316 314 315 316 317 315 316 317 317 321 329 328 332 331 329 329 329 329 329 331 331 330 330 330 329 328 327 326 326 326 326 325 325 323 318 316 314 313 313 312 313 315 316
316 314 313 313 312 313 313 314 316 315 315 315 315 315 316 325 328 331 332 332 331 330 329 329 330 333 333 331 330 330 329 329 329 328 328 327 327 326 326 325 323 320 318 318 317 316 317 318 319
313 313 313 312 312 312 314 313 312 313 312 312 313 314 315 320 329 331 328 327 328 331 332 331 331 332 333 333 332 332 331 329 329 329 329 329 328 328 327 326 326 323 321 320 319 319 319 319 319
311 314 313 313 312 313 312 314 314 312 311 310 312 313 314 315 319 321 322 323 324 325 327 325 325 326 328 328 329 329 330 331 331 330 329 329 329 329 328 328 327 326 324 323 322 321 322 321 320
312 314 315 311 312 312 312 317 310 310 310 311 311 312 313 314 315 317 321 321 323 325 325 327 326 327 328 328 328 329 329 329 329 328 328 328 329 329 327 327 326 326 325 324 323 322 322 322 321
312 314 313 310 310 312 312 315 310 310 312 313 312 312 312 312 313 314 315 317 319 321 324 327 328 329 330 330 331 330 330 331 330 330 329 327 326 325 325 326 326 326 326 325 324 323 322 323 322
314 312 311 312 311 312 313 314 313 311 311 314 313 313 313 313 312 312 313 313 314 317 320 322 325 327 330 332 332 332 332 331 331 331 331 330 328 327 326 326 325 324 325 327 325 325 323 322 322
313 311 312 310 311 313 313 314 314 313 312 313 314 312 311 312 312 312 312 313 313 313 315 317 320 321 328 330 331 333 332 331 331 331 331 332 331 329 329 327 327 327 325 325 325 327 327 325 322
310 312 312 311 310 312 312 314 314 312 311 309 309 310 309 310 311 311 311 311 311 312 313 313 315 318 321 323 326 329 330 330 330 329 330 332 332 332 331 330 329 329 329 328 327 327 327 326 325
310 312 311 312 310 309 309 313 311 309 308 308 307 307 309 310 310 311 311 311 312 312 312 312 312 314 316 319 324 325 327 329 328 327 327 327 332 333 332 332 331 330 330 330 329 329 328 328 327
311 310 311 311 313 312 309 312 313 309 310 309 310 311 311 310 311 312 312 312 313 313 311 311 311 312 312 313 317 319 321 322 322 329 330 331 329 333 333 333 331 327 329 330 329 329 329 329 328
311 309 310 311 313 312 312 312 313 308 311 312 311 311 310 310 311 312 312 312 312 312 313 313 312 311 311 312 312 313 317 322 328 329 326 328 326 326 327 328 328 326 328 327 327 327 328 328 328
307 310 309 309 311 313 312 313 313 311 311 312 310 310 309 309 310 311 312 312 313 313 313 313 313 313 313 312 311 311 313 317 321 323 323 324 325 326 327 325 326 325 326 325 327 326 327 328 327
309 312 313 313 314 313 306 309 313 308 308 313 311 310 309 309 310 312 312 312 312 313 313 313 313 312 313 314 314 315 315 317 319 323 324 324 324 324 324 324 325 326 324 324 324 324 323 323 326
311 312 314 317 313 312 306 311 312 308 307 310 310 309 308 309 311 312 312 312 313 313 313 313 313 313 313 313 313 313 313 313 313 313 313 313 312 312 313 313 315 316 318 320 321 322 322 324 320
310 311 309 308 302 313 311 310 308 308 309 309 309 309 309 309 311 311 312 312 312 312 312 312 312 312 312 312 312 312 312 311 311 311 311 311 311 311 311 311 311 311 311 311 312 313 314 317 318
310 309 311 310 316 315 309 310 313 310 311 311 310 310 308 309 310 311 311 311 312 312 312 312 312 312 312 312 312 312 312 312 312 312 312 312 312 312 312 312 311 311 310 310 310 310 310 310 311
308 309 309 310 311 320 313 311 311 312 313 311 311 310 309 309 310 310 311 311 311 311 311 311 311 310 310 309 308 308 308 307 308 308 308 309 309 309 309 309 309 309 309 310 310 310 310 309 309
308 310 310 312 311 308 310 313 306 311 312 311 310 308 308 310 310 310 311 311 310 309 309 309 308 308 307 306 306 305 305 305 306 306 306 307 307 308 308 308 308 308 308 308 308 308 308 308 309

GFSSGP_850_thetae_093.txt.gz
Theta_e
323 321 321 324 328 325 324 325 328 330 329 328 330 329 327 326 328 338 336 336 337 337 332 320 317 316 317 317 321 328 329 334 333 327 318 313 311 312 319 330 323 318 316 314 314 318 322 325 322
321 322 322 325 327 323 322 324 326 327 326 329 328 325 326 329 334 335 336 336 336 338 327 318 314 312 312 315 316 325 331 334 330 318 313 311 310 314 326 327 327 317 315 313 311 311 311 313 314
322 321 324 325 326 322 322 322 326 325 326 328 326 325 325 328 334 335 335 336 335 335 335 317 315 312 312 313 316 327 331 331 326 315 310 309 310 313 316 329 328 321 314 316 313 312 311 312 313
320 323 323 325 324 322 321 322 325 325 323 323 324 325 328 331 334 335 334 334 335 337 334 317 316 315 313 313 313 323 330 330 320 315 311 309 309 311 313 322 327 328 317 312 316 318 316 316 314
319 323 325 325 324 321 320 322 323 324 322 323 322 324 329 332 334 334 334 333 336 339 332 318 317 318 318 316 314 316 321 322 319 316 314 311 309 309 310 318 327 322 321 319 322 326 326 322 319
322 324 325 325 323 320 321 321 323 322 321 322 321 323 329 332 333 334 333 333 336 336 334 319 319 319 320 319 317 315 316 322 319 317 315 314 312 310 309 312 327 327 324 324 325 325 324 324 317
322 325 325 325 322 321 321 321 321 321 320 321 323 324 329 332 334 334 333 332 335 337 335 323 320 320 320 320 320 318 317 318 319 318 317 316 315 313 311 310 323 327 325 320 318 318 317 315 314
320 325 325 324 322 321 321 320 320 320 320 320 323 322 326 332 334 333 333 333 335 337 339 334 326 321 321 321 321 321 320 320 320 320 319 318 317 315 314 311 310 319 324 318 316 314 313 314 314
318 323 325 323 322 320 320 320 317 317 319 321 322 322 327 333 333 333 333 334 335 336 336 336 334 328 324 322 322 322 322 322 321 322 322 321 319 318 316 313 311 310 314 312 311 312 312 313 312
320 323 323 322 321 320 320 320 318 318 318 319 321 321 332 333 333 334 334 335 335 335 337 334 336 333 328 325 324 323 323 323 323 323 323 323 322 320 320 314 311 310 310 311 310 311 312 313 319
320 323 322 320 318 319 320 319 318 319 319 319 319 321 331 333 333 334 333 334 335 335 333 330 331 335 331 329 327 325 325 325 325 325 325 325 324 323 321 320 315 314 312 313 311 311 312 314 317
319 317 319 316 315 317 319 318 318 318 318 317 318 320 328 331 331 332 333 334 335 335 335 329 330 330 332 332 330 329 327 326 326 326 326 326 325 325 324 323 320 317 315 316 314 313 314 315 316
319 316 316 315 314 316 316 317 318 317 317 315 315 319 325 329 330 330 331 332 334 334 335 332 329 329 330 331 331 331 330 329 328 328 327 327 327 326 326 325 324 320 319 318 318 317 318 319 319
317 317 316 315 315 314 317 316 315 316 315 315 314 317 322 326 329 330 330 331 332 333 334 335 331 329 329 333 332 331 330 331 329 329 329 328 328 328 327 327 326 325 322 321 320 320 320 320 320
316 317 316 315 315 315 315 316 316 314 312 313 313 316 318 323 327 329 331 331 331 332 334 334 334 332 332 333 333 333 332 332 331 330 330 329 329 329 328 328 328 327 326 324 323 322 321 321 322
316 317 317 315 315 314 315 319 318 313 313 314 314 314 316 318 324 328 329 331 331 332 333 335 333 329 327 328 329 330 329 329 329 330 329 328 328 329 328 327 326 325 325 325 324 323 323 322 322
315 317 317 314 313 315 315 317 314 312 314 314 314 313 314 314 315 322 327 330 331 332 332 334 334 323 325 326 328 329 329 330 330 330 329 329 327 327 327 326 325 326 326 325 324 324 324 323 322
316 316 315 316 313 313 315 316 315 313 314 315 315 315 315 314 314 313 313 317 326 330 331 332 334 331 325 328 330 330 331 331 331 331 331 331 330 328 327 326 325 326 325 324 324 324 325 325 324
317 315 315 314 313 314 315 315 315 315 314 315 316 316 315 314 313 313 312 313 313 314 326 329 331 332 332 326 329 331 331 331 330 330 331 331 332 331 329 328 328 328 327 327 326 325 325 325 325
315 314 314 313 313 314 315 315 315 315 315 314 314 313 313 312 312 311 311 311 312 312 312 320 328 331 333 328 326 330 332 330 326 330 331 333 334 330 331 331 330 328 328 328 328 328 328 328 327
314 314 314 314 313 312 313 314 315 312 311 310 310 309 311 312 312 312 311 310 310 311 311 312 314 325 330 331 327 330 335 332 330 329 331 329 332 329 329 330 329 329 329 328 328 328 328 328 327
312 312 313 314 314 313 313 313 315 313 313 312 312 313 313 312 312 312 312 312 312 312 312 312 311 312 319 327 329 327 329 331 330 332 331 331 331 331 329 327 328 328 328 326 327 328 328 327 326
313 312 313 314 314 314 313 312 314 311 313 314 314 314 313 313 313 312 311 312 312 313 312 311 310 310 311 313 320 326 328 331 329 327 328 327 328 328 329 327 325 326 325 325 325 325 326 327 326
311 312 312 313 313 312 312 313 314 313 313 314 313 313 312 312 311 311 311 312 312 312 313 313 312 311 310 310 311 321 321 326 326 326 325 324 324 325 325 325 324 324 324 323 324 324 324 324 324
312 312 313 312 314 312 309 313 313 311 312 314 313 313 312 312 312 311 311 311 312 312 312 313 313 313 314 313 313 313 314 316 319 320 322 323 321 321 322 321 321 322 323 322 322 323 321 321 321
312 312 315 319 316 314 307 312 313 310 310 314 313 312 312 312 312 311 311 311 312 312 312 312 313 313 313 313 313 313 314 313 313 312 312 312 311 311 311 311 311 311 311 311 312 313 315 317 316
312 312 312 311 307 315 312 312 311 310 311 313 312 311 312 312 311 311 311 311 311 312 312 312 312 312 312 312 312 311 311 311 311 311 311 312 312 312 312 312 311 311 311 311 310 310 310 310 310
311 311 311 312 319 317 313 313 313 311 311 312 311 312 312 312 311 310 310 311 311 312 312 312 312 312 312 312 312 312 312 311 311 310 309 309 309 309 309 309 309 309 308 308 308 308 308 309 309
310 311 311 311 314 324 317 312 312 313 312 313 312 312 312 311 310 309 310 311 311 311 311 311 311 310 310 308 308 307 307 306 306 306 306 306 306 306 306 305 305 305 306 306 306 307 307 307 306
311 312 311 312 313 311 314 316 309 312 312 313 312 312 311 311 310 309 310 310 310 310 309 309 308 307 306 305 305 304 304 303 303 302 302 302 301 301 301 301 300 299 299 299 300 300 301 301 302

GFSSGP_850_thetae_096.txt.gz
Theta_e
322 322 321 323 328 326 325 327 327 329 328 328 327 326 327 333 335 342 336 337 336 334 326 322 318 319 318 321 331 332 332 331 321 314 313 311 311 318 320 317 313 314 316 315 314 320 316 317 318
322 322 322 325 325 325 321 324 327 326 328 328 326 325 326 333 335 336 337 336 337 334 322 318 314 314 319 322 326 331 333 330 316 312 311 310 311 323 330 325 315 312 312 312 311 311 312 313 314
322 321 322 326 326 321 321 322 324 327 327 326 325 325 328 332 335 336 336 336 336 330 319 314 312 313 315 318 331 331 332 328 316 310 309 310 310 321 330 326 318 311 313 312 311 311 312 313 314
321 322 323 323 325 320 320 322 325 324 324 325 324 326 327 334 335 335 336 336 335 333 317 315 313 312 313 317 329 330 331 321 315 311 309 309 310 312 324 327 321 313 312 314 316 316 313 314 314
320 323 325 324 322 319 320 323 324 322 322 323 322 325 331 334 335 335 335 335 333 331 318 316 315 315 314 314 325 330 323 319 316 314 312 310 309 309 316 327 321 319 316 327 325 323 322 313 316
321 323 325 325 322 319 320 322 323 322 321 322 320 328 333 332 334 334 334 336 334 326 318 318 318 318 317 316 316 326 319 319 317 316 314 313 311 310 311 326 325 325 322 318 314 317 314 312 314
321 326 325 324 321 321 320 321 322 320 320 321 322 324 332 333 334 333 333 336 337 331 320 319 319 320 319 319 317 317 320 319 319 317 316 315 314 312 311 323 328 325 324 316 313 314 311 312 313
320 323 325 324 321 321 320 321 321 320 320 322 323 322 329 333 334 333 333 336 336 333 327 321 320 320 320 320 320 319 319 320 321 320 319 318 316 313 312 313 324 326 325 318 316 315 313 313 313
319 323 324 324 323 320 320 319 319 318 319 322 321 328 328 333 334 333 333 335 337 335 334 331 324 322 321 321 321 321 321 321 322 322 321 321 319 317 316 312 311 312 312 311 312 312 312 313 313
319 322 324 323 321 319 320 319 318 317 319 320 320 331 333 333 333 333 334 335 337 335 334 334 331 329 326 323 322 323 323 323 323 323 323 323 322 321 321 315 313 312 312 313 312 312 312 315 318
318 322 322 319 318 320 320 319 318 318 317 318 320 328 332 333 334 333 334 335 335 335 335 335 335 332 329 327 324 324 324 324 324 324 324 324 324 323 323 321 317 316 316 316 314 313 314 315 316
319 319 319 317 317 319 319 318 318 318 317 319 319 319 330 333 334 334 334 335 335 335 334 332 331 335 331 330 328 327 326 325 325 325 325 325 325 325 325 325 324 321 319 319 317 316 317 317 318
318 316 316 316 316 318 318 318 318 318 317 317 319 321 329 331 332 333 333 334 335 335 335 331 330 330 333 333 330 331 329 328 327 327 327 326 326 326 326 325 325 324 321 320 320 319 319 319 320
317 316 315 315 315 315 317 316 315 317 317 316 315 320 326 329 330 330 331 332 333 335 335 334 330 329 330 331 331 331 333 333 329 328 328 328 328 327 327 327 326 326 325 322 321 321 321 322 322
316 315 315 315 315 314 315 315 314 315 315 314 314 316 321 325 328 329 329 330 331 333 334 335 334 330 328 328 330 332 331 330 332 329 329 329 329 328 328 328 327 326 326 326 325 324 323 322 321
315 316 316 315 315 313 315 318 315 313 313 313 314 315 317 320 324 328 329 330 331 331 333 334 334 332 326 329 331 332 330 331 331 331 330 327 328 329 328 327 325 324 324 324 324 324 323 323 323
314 315 316 313 314 313 313 317 311 313 313 314 314 314 315 316 320 326 328 330 330 331 331 333 334 333 328 324 327 328 328 328 328 329 330 330 328 327 327 326 327 326 324 325 325 325 324 324 324
315 314 315 313 312 313 313 314 312 312 314 315 314 314 314 313 314 316 325 328 330 331 332 332 333 334 329 325 325 327 328 328 328 328 329 330 331 330 329 328 327 326 325 325 324 324 324 324 324
315 314 314 314 313 313 313 314 313 313 313 314 315 315 315 315 314 313 313 315 325 329 331 332 333 334 332 328 327 328 328 328 329 332 332 335 334 329 329 330 328 327 327 325 325 325 325 326 326
314 314 314 312 312 313 313 312 312 313 313 314 314 315 315 314 313 313 312 312 312 313 319 328 330 332 333 332 330 327 330 331 332 334 333 332 331 329 328 329 328 328 327 326 326 326 327 325 325
313 314 312 314 312 312 312 312 313 312 313 313 313 313 312 312 313 312 311 311 311 311 311 314 325 330 332 333 332 334 334 333 332 333 331 331 331 327 327 326 329 327 327 326 327 327 326 326 325
312 312 313 312 312 311 311 307 312 309 309 310 311 310 311 311 312 312 312 311 311 311 310 310 312 323 329 331 332 329 333 330 329 327 329 327 327 326 325 326 325 326 327 327 325 324 324 326 325
313 312 313 314 313 313 311 309 311 309 310 310 312 313 313 313 312 312 312 312 312 312 312 311 310 312 324 329 330 331 330 328 326 325 325 324 325 325 325 324 324 323 323 324 323 324 325 323 325
310 311 312 312 311 310 310 308 309 308 309 311 313 314 313 313 312 312 311 311 312 312 312 311 309 310 313 322 327 327 327 325 325 323 323 323 323 323 322 322 322 322 322 321 322 321 321 321 319
311 310 310 310 310 310 306 310 310 310 312 312 312 313 312 312 311 311 311 311 311 312 313 313 312 310 310 312 315 321 320 323 324 323 324 323 322 320 318 316 315 316 316 315 315 317 316 317 318
310 309 312 312 314 311 306 309 309 308 311 314 313 312 312 312 312 311 311 311 311 311 313 313 314 314 314 314 314 315 316 316 315 314 312 312 311 311 311 311 311 311 310 310 310 310 310 309 309
310 310 311 308 303 311 308 309 309 308 310 312 312 312 312 312 311 311 310 311 311 311 311 312 312 313 313 312 312 312 311 311 311 311 311 311 311 310 309 309 309 308 308 308 308 308 307 307 307
309 308 309 310 307 310 310 310 309 309 309 310 310 311 312 312 311 310 310 310 310 310 311 311 311 311 311 311 311 311 311 311 310 308 308 307 307 306 305 304 303 302 301 301 301 301 301 300 300
308 309 310 309 312 313 311 308 309 309 309 311 310 311 312 312 311 310 310 310 310 310 310 311 311 311 311 310 309 308 307 306 305 305 303 302 301 301 301 301 300 299 298 297 297 297 297 296 296
308 310 309 310 310 308 312 310 309 309 308 311 311 311 312 312 310 310 310 310 310 310 310 310 309 308 307 306 305 304 303 302 302 301 301 299 298 298 297 296 296 296 296 296 296 296 296 296 296

GFSSGP_850_thetae_099.txt.gz
Theta_e
322 321 322 322 323 318 322 326 325 326 325 324 326 328 332 334 336 336 337 338 335 326 327 324 317 320 318 332 332 332 329 315 312 313 312 321 321 314 311 313 317 313 314 314 313 313 316 316 317
321 321 322 323 319 321 317 322 324 325 326 324 325 328 330 334 336 337 337 337 335 327 324 318 317 318 319 330 331 333 328 313 311 315 311 318 330 321 315 312 312 315 312 312 311 311 313 314 316
321 321 321 320 319 318 319 321 323 326 326 325 324 327 331 335 335 337 336 336 335 324 318 313 312 315 319 330 332 331 324 312 313 325 310 317 330 325 320 312 311 311 311 313 312 311 311 313 318
321 321 321 318 322 317 317 320 323 322 324 323 325 327 334 335 336 336 335 337 335 319 314 312 312 313 323 331 330 331 319 315 310 309 309 310 321 328 325 313 311 313 312 312 311 311 312 314 318
319 321 320 320 318 317 318 323 323 319 322 322 325 328 333 334 335 336 336 335 323 316 315 313 313 314 322 331 331 328 319 315 314 312 310 310 314 318 322 317 315 317 328 323 313 313 313 315 317
319 321 321 321 317 317 319 322 321 320 321 323 328 332 333 334 335 336 335 334 323 317 317 317 316 315 316 327 329 321 318 316 315 315 314 312 311 313 328 324 325 321 314 311 314 312 312 315 316
318 319 320 321 317 318 319 321 319 318 319 319 325 328 333 334 334 335 335 335 325 318 318 318 319 318 316 316 319 319 319 318 318 317 315 314 312 313 322 326 325 320 315 310 311 311 311 312 314
319 318 321 321 317 318 319 320 318 319 320 322 324 327 331 334 333 335 336 337 330 319 319 319 318 319 319 318 318 319 319 320 320 319 318 316 314 313 313 318 319 316 312 312 311 311 312 312 313
319 318 321 322 318 318 319 317 318 319 321 320 326 327 327 334 333 334 336 337 335 326 321 321 320 319 319 320 320 320 320 321 321 322 321 320 319 317 314 313 312 312 312 312 311 312 312 313 314
316 318 321 318 316 316 318 318 317 318 320 322 330 328 331 333 332 333 335 336 336 333 327 324 322 321 321 321 321 321 322 322 322 323 323 323 322 322 321 316 314 314 314 313 312 313 313 316 317
316 317 319 318 319 320 317 317 317 317 316 320 332 333 333 332 332 332 333 334 335 334 331 332 328 327 325 323 323 323 323 323 323 324 324 324 324 323 323 321 318 317 317 316 315 315 316 317 318
317 318 318 317 317 319 317 317 316 317 317 318 318 323 331 333 333 333 333 334 336 335 331 332 331 328 328 327 326 325 325 324 324 324 325 325 325 325 325 324 324 321 320 320 318 318 318 319 319
316 315 316 316 318 318 318 316 316 316 317 318 319 323 324 331 332 332 333 333 335 335 334 334 333 331 329 329 328 327 327 327 326 326 326 326 326 326 326 326 326 325 324 322 321 321 320 321 321
316 315 315 315 315 316 315 315 316 316 315 320 321 322 324 327 330 333 333 334 334 334 334 334 333 331 331 331 330 330 328 328 328 327 327 327 327 327 327 327 326 326 326 325 324 323 323 322 321
315 313 313 314 314 314 315 314 314 316 316 316 323 323 324 328 330 330 332 332 333 334 334 333 333 331 331 331 331 331 331 331 331 328 328 328 328 328 328 327 327 325 325 325 324 324 323 323 322
314 312 313 313 314 313 314 315 313 315 315 315 314 318 325 327 329 329 329 330 331 333 334 333 333 331 331 329 329 330 331 331 330 332 332 326 328 328 327 326 326 324 323 323 323 324 323 323 323
312 312 313 313 313 312 313 314 312 312 313 313 313 314 317 321 324 327 328 329 329 330 331 332 332 330 329 327 326 328 330 330 331 331 332 330 328 327 327 327 326 327 325 324 324 324 324 323 323
311 313 313 311 311 312 311 313 309 313 313 313 313 314 315 315 319 325 327 330 330 330 330 330 331 332 332 330 325 328 330 328 328 328 331 334 331 330 329 329 327 327 326 325 324 323 323 322 323
312 312 312 310 311 312 310 310 309 311 312 313 312 313 314 314 315 316 326 328 329 330 331 331 331 331 333 332 328 327 327 328 329 330 333 331 328 328 327 327 328 326 325 325 325 324 324 324 326
311 311 311 311 311 311 310 311 310 309 311 313 314 313 314 313 313 313 313 321 327 329 330 331 332 332 332 332 332 326 331 333 332 329 328 329 328 327 326 326 326 326 326 325 328 328 327 327 324
310 311 309 311 311 311 311 309 312 311 312 312 313 313 313 314 313 313 313 312 312 320 328 329 331 332 332 332 333 331 330 330 329 329 328 328 327 327 325 325 325 327 328 325 324 324 327 326 323
311 311 310 311 309 308 307 306 307 308 308 309 311 312 312 312 312 313 312 312 311 311 311 316 328 330 331 332 332 330 330 327 327 326 326 326 326 325 324 323 324 324 324 326 324 324 323 324 324
311 311 311 310 311 308 310 306 305 306 309 308 309 311 310 311 312 312 312 312 311 311 311 310 311 325 328 330 330 330 329 326 325 325 324 324 323 323 323 323 323 322 322 322 322 321 320 320 321
309 310 309 308 307 308 307 305 305 307 308 307 309 311 312 312 312 312 312 311 311 312 312 311 310 311 325 328 329 328 326 326 324 323 322 322 322 322 321 321 321 320 321 320 318 319 318 316 316
309 308 308 308 309 308 306 307 306 308 307 308 309 312 313 312 312 312 311 311 312 312 313 310 309 310 317 325 327 327 325 321 321 321 321 321 321 320 317 314 314 314 313 312 310 310 309 309 309
307 308 308 308 310 308 305 308 308 308 310 311 312 313 313 312 311 311 311 311 312 313 313 313 310 310 314 319 324 325 323 320 322 320 318 314 312 310 310 310 309 309 308 308 307 307 306 306 305
308 309 308 307 297 307 306 305 307 308 310 310 311 312 311 311 311 311 311 310 311 313 314 314 313 312 312 313 315 318 315 314 312 310 310 310 309 308 307 306 305 304 302 301 300 299 298 298 297
308 307 309 307 309 307 307 307 306 307 306 308 309 310 311 311 311 310 310 310 310 311 312 313 314 314 314 314 313 311 310 310 310 309 308 307 305 303 302 301 301 299 298 297 296 296 296 296 296
308 307 308 309 307 307 306 306 304 307 307 309 309 311 311 311 311 310 309 309 310 310 310 311 311 311 310 310 310 310 309 307 306 305 303 302 301 300 298 297 297 296 296 296 296 296 295 295 295
308 308 308 308 308 308 308 308 307 306 305 310 309 311 311 311 311 310 309 309 309 309 309 310 310 310 310 309 307 306 305 303 302 301 300 298 297 297 296 296 296 296 296 295 295 295 295 295 294

GFSSGP_850_thetae_102.txt.gz
Theta_e
323 319 319 321 321 317 321 327 324 325 324 324 325 328 332 333 334 333 335 336 334 329 325 327 327 321 331 332 330 324 313 312 312 316 323 317 313 313 316 320 317 312 318 314 315 316 317 317 324
322 319 320 323 319 321 317 321 325 324 325 328 328 330 332 334 336 336 336 336 327 326 327 317 320 321 333 332 331 322 311 310 311 317 330 328 316 311 312 311 311 313 314 314 313 313 315 320 324
320 319 320 317 316 317 320 322 323 324 324 323 327 330 334 335 337 337 336 335 328 326 319 317 319 321 329 330 328 322 310 312 313 317 330 328 318 313 311 311 311 316 317 315 312 314 317 322 324
318 319 320 317 320 316 319 321 321 321 322 324 328 329 334 334 333 336 336 335 326 320 315 313 316 320 331 330 328 316 313 310 312 313 314 319 320 316 311 311 312 312 317 313 311 313 317 319 319
318 319 318 319 317 318 320 322 322 319 321 323 326 329 334 334 335 335 335 336 326 315 312 312 314 327 330 328 324 315 314 312 311 310 310 312 318 315 313 313 313 321 311 310 310 312 315 316 318
318 319 318 320 316 318 319 321 320 319 322 326 330 331 333 335 335 335 336 332 318 314 313 313 313 327 330 331 321 317 315 314 313 313 312 312 314 324 320 315 313 310 310 310 310 311 313 314 317
316 316 319 318 315 317 318 320 320 319 320 321 326 328 334 336 335 335 335 328 317 315 316 316 315 316 325 325 318 318 317 317 316 315 314 313 314 320 324 319 314 312 310 310 311 311 312 313 314
319 316 319 319 315 318 318 318 318 319 319 324 326 329 333 336 335 335 334 332 318 317 317 318 317 316 317 318 319 319 319 319 319 318 317 315 313 314 315 314 313 312 311 311 311 312 312 313 314
318 316 318 321 315 317 318 316 317 319 320 321 326 325 326 335 334 334 336 334 321 318 318 318 318 318 318 318 319 319 320 321 321 321 320 320 317 315 314 313 312 313 313 312 312 313 313 314 314
315 316 319 318 315 315 317 317 318 320 321 329 327 326 331 334 334 335 335 334 328 319 319 319 319 318 319 320 320 320 321 321 322 322 322 322 322 321 318 315 315 315 315 314 314 314 316 317 317
315 316 318 318 317 318 317 316 315 318 316 327 328 329 333 333 334 335 335 333 330 325 322 321 321 320 320 320 321 321 322 322 323 323 324 324 323 323 323 320 319 318 318 317 316 316 317 318 318
315 316 316 317 318 317 315 316 315 316 316 319 322 325 332 333 333 334 334 334 334 333 328 326 324 324 324 323 322 322 322 323 323 324 324 324 325 325 324 324 324 322 320 320 319 318 319 319 321
314 315 315 316 317 317 316 315 315 316 317 320 327 330 330 332 332 333 332 332 334 334 331 329 329 328 327 326 326 325 325 325 325 325 325 325 325 325 326 325 325 325 324 322 321 321 321 321 321
315 315 314 315 315 315 314 314 316 316 318 324 327 330 330 329 331 332 332 332 333 333 332 332 331 329 328 329 328 328 327 327 326 326 326 326 326 326 326 326 326 326 326 325 325 324 323 322 321
315 314 313 313 314 314 315 314 312 316 318 323 326 326 326 328 330 331 331 332 332 332 332 333 333 332 330 329 330 329 329 328 327 327 327 327 327 327 327 326 326 322 321 324 323 323 323 323 322
312 311 312 312 313 313 313 313 313 314 319 324 326 326 326 327 327 328 330 330 332 332 333 333 333 333 331 330 330 330 330 330 330 328 328 328 327 327 326 326 326 324 324 324 323 323 324 323 323
311 312 312 313 312 311 312 313 312 313 315 322 324 325 326 327 329 328 328 330 332 332 333 333 333 333 332 331 330 330 330 332 330 331 331 331 327 326 326 326 326 326 325 325 324 323 323 322 322
311 311 311 311 311 310 311 311 310 311 312 313 314 316 322 326 327 328 329 329 329 330 331 332 332 332 331 331 331 329 330 334 333 330 329 330 330 328 328 328 328 326 325 324 323 322 322 322 323
310 311 312 311 310 311 309 311 308 311 311 310 311 312 314 318 321 324 327 329 329 329 329 330 330 330 331 331 331 326 332 333 334 332 329 326 327 327 326 326 326 325 326 325 325 324 325 325 326
310 310 310 310 310 310 309 310 309 308 309 311 312 312 313 315 316 319 325 327 329 329 330 330 330 329 330 330 330 332 327 331 329 327 327 327 327 327 326 325 325 325 325 323 324 322 324 322 325
309 309 308 311 310 310 309 309 310 309 310 311 311 312 313 314 313 315 318 326 328 329 329 330 330 331 331 331 332 332 330 326 327 327 327 327 326 326 325 324 324 324 323 325 325 323 324 323 321
309 308 309 309 308 308 307 308 304 308 308 308 311 312 312 313 312 313 313 314 320 326 327 329 330 331 331 332 332 330 327 326 326 326 325 325 325 325 324 323 323 323 323 323 324 323 322 322 321
310 309 310 309 307 308 308 305 304 306 307 307 309 311 312 313 313 313 312 312 312 312 315 325 328 329 331 332 331 329 328 327 326 325 324 324 324 323 322 322 322 322 322 321 321 320 319 319 318
308 308 307 306 306 308 306 306 305 305 307 308 308 310 311 311 312 312 312 312 312 312 311 311 311 320 327 329 330 328 328 327 325 324 323 322 322 322 321 321 321 321 320 320 318 316 315 313 311
309 309 308 307 309 309 305 304 307 305 305 306 307 309 310 310 311 311 311 311 311 311 311 311 310 310 314 326 329 327 327 325 323 322 321 321 320 320 319 317 316 315 314 312 310 309 308 307 306
307 308 307 307 308 306 305 307 308 305 307 308 309 311 311 311 311 312 312 311 311 311 312 311 309 309 309 320 327 328 326 324 322 321 320 319 319 314 310 310 310 309 308 306 304 302 300 299 298
309 308 306 307 297 307 306 304 305 306 307 309 309 310 311 312 312 312 311 311 311 312 314 312 309 310 313 319 325 327 324 324 319 321 319 314 310 309 308 307 305 302 300 299 298 297 296 296 296
308 307 310 307 308 309 307 306 305 307 306 307 307 309 311 311 311 311 310 310 311 313 315 314 311 312 315 318 323 325 325 318 316 312 310 309 308 306 303 301 300 298 297 296 296 296 296 295 295
307 307 307 307 308 309 306 306 303 306 307 307 307 309 311 311 310 310 310 310 310 312 314 315 314 314 315 317 318 319 314 311 310 309 307 305 302 301 299 297 296 296 296 296 296 295 295 295 295
307 307 307 310 308 306 307 307 305 304 305 307 309 310 311 311 311 310 310 310 310 311 313 314 315 315 316 315 312 310 310 308 307 304 302 301 298 297 296 296 296 296 296 295 295 295 295 294 294

GFSSGP_850_thetae_105.txt.gz
Theta_e
323 321 319 320 320 316 321 325 323 325 322 325 326 328 329 333 331 330 334 335 333 326 328 328 326 330 332 329 321 312 312 312 316 315 313 312 314 317 319 319 313 312 320 321 321 321 319 319 322
323 320 319 322 318 320 318 318 324 323 328 328 328 331 331 333 335 335 335 335 328 324 327 325 325 329 332 329 318 311 311 310 327 329 316 312 310 311 311 311 312 315 317 319 319 316 315 318 319
322 320 319 316 314 318 318 322 322 324 326 322 330 331 333 335 335 334 335 333 330 324 325 320 321 331 330 328 318 310 310 311 328 330 318 314 311 311 311 313 318 317 318 318 314 314 317 319 321
320 319 318 317 319 315 318 321 322 320 321 324 330 330 334 335 334 335 334 329 326 326 318 319 321 329 329 326 316 311 311 310 317 329 322 314 311 310 310 310 311 310 311 311 313 316 317 317 317
319 319 317 318 316 316 317 322 320 319 319 324 325 330 333 335 335 335 334 333 325 320 316 318 321 330 328 321 314 313 312 310 311 313 311 311 310 310 311 315 310 310 310 311 314 316 315 315 316
317 317 317 320 316 318 320 322 320 319 321 327 331 332 334 334 335 335 335 328 322 315 315 317 321 330 327 319 315 314 313 313 312 312 312 315 316 314 314 312 310 310 310 311 313 314 314 314 314
316 315 318 318 315 319 318 320 318 320 324 324 330 329 333 335 335 334 336 332 316 313 314 316 326 329 330 320 317 316 315 314 314 313 313 314 316 317 314 313 312 311 310 311 311 312 313 313 313
318 315 318 315 314 318 316 318 320 321 317 326 324 329 333 335 335 334 331 322 315 313 314 315 321 325 326 319 319 318 318 317 317 316 314 314 314 315 314 313 312 312 311 312 312 312 312 313 314
317 315 318 319 314 316 316 315 317 318 322 323 327 326 326 335 335 334 332 323 316 315 315 315 315 317 317 318 319 319 319 319 319 319 318 317 316 315 314 313 313 314 313 312 313 313 315 315 316
314 315 318 317 313 315 316 316 317 319 323 327 327 326 329 335 335 333 331 328 317 317 317 317 317 317 318 318 319 320 320 321 321 322 321 321 321 319 316 316 315 315 315 315 314 315 316 317 318
314 314 317 318 316 316 316 315 317 318 318 325 326 327 332 335 335 334 332 328 319 318 319 318 317 318 318 319 320 320 321 321 322 323 323 323 322 322 322 320 319 319 318 318 316 317 318 318 319
313 314 314 316 316 316 314 316 315 318 318 319 322 321 331 333 334 334 334 331 324 319 320 319 319 319 319 320 320 321 321 322 322 323 323 324 324 324 324 323 323 322 321 320 319 319 319 320 321
314 314 314 315 315 316 316 314 314 317 316 319 324 326 331 332 333 333 333 333 329 325 322 322 321 321 321 321 322 322 322 323 323 324 324 324 325 325 325 325 325 324 324 322 321 321 321 321 321
316 316 314 314 314 315 314 313 314 316 316 323 325 326 330 331 331 332 333 333 333 332 331 327 326 325 326 325 324 324 324 325 325 325 325 325 325 325 326 326 325 325 325 325 324 323 323 322 321
319 318 315 312 314 313 314 314 312 315 317 325 327 327 329 331 331 330 330 331 331 330 332 330 328 329 327 327 327 327 327 327 327 327 326 326 326 326 326 326 325 323 320 321 322 322 322 322 323
317 311 312 311 312 312 313 313 312 314 318 328 329 329 330 329 329 330 331 331 331 330 331 331 331 330 330 329 328 329 329 329 328 327 327 327 327 326 326 325 325 324 324 324 323 323 323 322 322
313 315 309 312 311 311 311 312 311 313 318 327 329 329 329 328 330 329 330 330 330 330 330 332 332 331 330 331 330 329 330 330 328 329 328 329 329 324 325 325 325 325 325 325 323 323 321 321 321
315 311 311 311 311 310 311 311 310 311 316 321 325 327 327 326 323 325 328 330 330 329 330 332 332 332 332 332 331 331 329 329 329 328 327 327 327 327 327 326 327 325 324 324 323 323 322 322 322
311 311 312 310 309 310 309 310 309 309 309 313 321 324 325 324 322 324 325 328 329 330 331 332 333 333 333 333 332 332 329 330 329 328 328 327 327 325 325 325 324 324 323 324 323 323 323 322 323
309 311 311 310 309 310 308 309 308 307 308 310 313 315 317 321 324 325 327 329 329 330 330 331 331 333 332 332 330 330 329 325 328 327 327 327 326 325 325 325 325 324 324 323 323 323 325 323 325
309 311 310 312 309 309 309 309 310 309 309 310 311 311 311 312 315 321 324 324 327 328 328 329 329 330 331 330 330 332 330 328 326 326 326 326 325 325 325 325 325 324 323 322 323 323 323 324 322
312 308 309 309 309 310 308 309 306 307 308 307 310 311 312 312 313 315 319 323 326 327 328 329 329 330 330 330 330 332 329 328 326 325 325 325 326 326 325 324 323 323 322 321 322 322 321 320 320
311 308 309 309 308 308 307 306 305 305 307 307 308 312 312 312 312 314 314 316 324 328 328 329 329 329 330 330 331 330 329 328 325 325 325 324 324 324 323 322 322 321 321 321 320 320 319 318 317
308 308 307 306 306 308 307 307 306 304 306 307 310 311 313 313 312 312 312 313 315 321 326 327 328 328 329 330 331 330 329 328 326 324 324 323 323 322 321 321 321 320 320 320 319 318 316 314 311
309 309 310 310 310 311 304 304 311 305 303 304 306 310 312 312 312 312 312 312 312 312 312 312 313 319 324 328 330 332 329 327 326 325 324 322 322 321 320 320 319 318 317 316 314 310 308 306 304
308 310 309 309 308 308 304 306 306 304 306 307 308 309 310 311 311 312 312 312 312 312 312 311 311 311 311 313 324 331 332 326 326 324 322 321 320 319 319 318 314 312 310 308 306 303 300 298 297
307 307 307 307 298 306 305 304 304 305 303 306 308 308 309 310 310 311 311 311 311 311 311 311 311 311 310 309 317 329 329 326 325 322 321 319 319 319 314 310 309 307 304 301 299 297 296 296 296
308 307 309 307 307 307 306 305 306 305 307 305 306 308 309 309 310 310 310 311 311 311 311 311 312 310 310 311 317 329 327 326 323 321 318 318 317 311 309 306 303 301 298 297 296 296 296 295 295
306 307 307 308 308 308 306 306 302 305 307 306 306 308 309 309 310 311 311 311 311 310 311 313 313 310 312 318 325 328 327 326 322 319 318 314 309 307 303 301 299 297 296 296 296 295 295 295 294
307 307 309 311 309 304 306 306 305 303 303 306 307 309 310 310 311 311 311 310 310 310 312 314 313 313 317 321 324 326 326 324 319 314 311 308 306 302 300 297 296 296 296 296 296 295 295 294 294

GFSSGP_850_thetae_108.txt.gz
Theta_e
323 322 320 321 317 316 321 325 322 323 322 324 325 325 328 331 330 330 334 330 330 324 330 327 328 331 326 316 312 312 311 311 311 312 314 320 321 321 320 315 313 325 328 331 322 315 317 317 316
323 321 320 322 317 320 319 318 324 322 329 329 329 330 331 333 334 335 334 334 329 325 327 328 327 332 327 315 310 311 315 330 321 311 311 315 314 315 311 312 314 321 327 322 317 313 316 316 316
322 320 320 315 314 319 318 319 321 325 326 321 330 331 332 334 334 334 335 333 326 325 328 326 327 331 328 316 310 311 324 332 325 317 311 311 311 312 312 312 316 315 321 323 316 315 318 318 318
321 320 318 316 320 317 316 320 320 324 321 325 330 330 334 334 334 335 334 330 325 325 321 323 331 331 327 317 311 311 318 331 324 319 311 310 310 310 310 310 311 314 318 317 313 315 315 315 316
321 319 315 317 317 315 313 321 323 317 319 326 325 330 332 335 335 334 330 331 326 325 319 322 331 330 324 314 312 311 311 316 316 316 311 310 315 315 314 310 309 310 311 311 313 314 315 315 315
319 317 316 318 316 316 319 321 320 318 321 326 330 332 333 335 335 334 332 325 326 319 316 323 330 330 320 314 313 312 311 312 313 314 314 316 313 311 311 310 310 309 311 312 313 314 314 314 314
316 314 317 317 316 320 320 320 317 319 324 325 330 329 333 335 335 334 331 326 322 316 313 319 331 329 320 315 314 314 313 313 313 313 316 315 314 313 313 311 311 310 311 312 313 313 313 313 315
317 315 317 315 315 320 316 318 319 321 317 328 329 328 333 335 335 334 334 329 318 314 313 319 331 329 321 317 317 317 316 315 314 313 314 315 315 314 313 313 312 311 312 312 312 312 313 314 315
317 317 317 319 313 317 316 315 317 319 324 325 324 326 329 335 335 335 333 325 315 314 313 318 329 331 323 318 318 318 318 318 317 317 316 317 316 314 313 314 314 313 313 313 313 315 316 316 317
315 316 317 316 312 314 315 316 316 319 323 324 326 327 328 334 334 333 326 318 315 314 315 315 320 324 320 319 319 319 320 320 320 320 320 320 320 318 316 316 316 315 315 314 315 316 317 318 319
313 316 315 317 315 315 315 314 318 318 321 323 324 324 331 334 334 332 327 318 316 316 317 316 316 317 318 319 319 320 320 321 322 322 322 322 321 321 320 320 319 319 318 317 317 318 319 319 320
315 314 313 313 314 314 313 315 314 319 319 320 321 322 328 333 333 332 330 322 317 317 318 317 317 317 318 319 319 320 321 321 322 322 323 323 323 323 323 323 322 321 320 320 319 319 320 320 320
315 313 316 315 313 314 314 313 313 317 316 317 321 324 326 331 332 332 330 330 318 318 319 318 317 318 318 319 320 320 321 321 322 323 323 324 324 324 324 324 324 324 323 322 321 321 322 321 320
317 317 318 318 313 314 312 312 314 316 316 319 322 323 327 329 331 332 332 331 323 320 320 320 320 320 320 320 321 321 322 322 323 324 324 324 324 324 325 325 325 324 324 324 324 323 322 321 321
319 320 319 317 313 313 313 313 312 314 315 322 324 323 327 330 331 331 331 332 329 325 322 322 322 321 323 323 323 323 323 324 325 325 325 325 325 325 325 325 324 323 321 320 321 321 322 322 322
321 316 321 319 311 313 312 313 312 314 315 325 326 326 328 329 329 330 331 332 331 331 331 330 327 327 326 326 326 326 326 326 327 327 327 327 326 326 325 325 324 324 323 324 324 323 322 320 321
319 325 320 320 311 310 311 312 311 313 316 323 326 327 327 328 329 329 330 331 330 330 330 331 331 330 329 329 328 328 329 328 329 328 328 327 327 326 325 325 325 325 325 324 323 322 321 321 321
321 322 314 321 311 309 310 310 309 310 316 320 325 326 327 328 326 326 328 329 330 330 330 330 330 331 331 331 331 331 330 330 330 328 326 326 326 326 326 325 325 324 323 322 322 322 322 321 322
316 317 318 310 310 310 309 310 310 309 309 315 322 325 326 326 323 326 327 329 330 330 330 330 331 331 332 332 332 332 331 329 328 327 327 327 326 325 324 323 323 323 323 323 322 322 322 320 323
311 311 314 311 309 308 309 309 307 306 308 311 315 320 323 322 323 322 323 328 329 330 330 330 330 331 332 332 332 331 330 329 328 327 327 327 326 325 325 324 323 323 323 322 322 322 321 322 322
314 312 310 312 309 308 309 309 308 307 308 309 311 314 317 319 320 319 321 323 325 328 329 329 330 331 332 333 333 333 332 329 328 326 325 325 325 324 324 324 324 323 323 323 322 322 322 321 321
313 310 309 310 314 315 308 312 308 306 307 305 310 311 313 314 315 315 317 321 324 326 328 328 329 329 331 331 333 333 331 329 328 326 325 325 324 324 324 326 326 323 323 322 321 320 320 320 319
312 308 309 309 309 307 308 307 308 305 306 306 307 311 313 314 313 313 313 314 319 322 323 326 328 328 329 330 332 332 331 330 328 326 324 325 325 324 324 324 323 322 321 320 320 319 319 318 317
309 311 308 306 307 310 310 308 308 305 306 306 309 312 313 314 314 313 312 312 316 319 322 325 326 328 328 329 330 331 330 329 328 327 325 323 323 323 323 323 321 320 320 319 319 318 318 316 313
310 313 314 311 309 312 302 305 310 307 303 305 308 313 315 314 313 312 313 312 313 315 319 324 326 327 328 329 329 329 330 329 328 327 325 323 323 322 321 321 320 319 319 319 319 316 311 308 304
311 313 313 313 311 310 304 307 307 305 307 308 308 309 310 311 313 313 313 312 313 313 314 318 323 325 326 327 327 328 330 330 328 327 326 324 323 322 320 319 318 319 317 315 311 307 303 299 297
306 312 310 307 299 306 306 305 304 304 305 305 306 308 310 311 311 311 312 312 312 312 312 312 312 312 311 311 312 320 327 330 328 326 324 324 322 320 318 318 318 314 310 308 304 300 297 297 296
307 307 309 307 310 308 306 305 307 307 306 307 305 308 312 311 310 309 310 311 311 311 311 311 312 311 311 311 311 310 318 329 327 327 324 322 320 318 317 317 310 308 305 301 298 297 296 296 296
305 307 307 308 308 310 307 308 302 306 306 307 307 306 307 309 310 309 309 310 311 311 311 311 311 311 311 311 310 310 314 328 329 326 323 321 318 317 317 310 307 302 299 297 296 296 296 295 295
305 306 308 310 309 304 307 310 303 303 303 304 306 307 308 309 311 310 309 310 310 310 311 311 310 311 312 310 310 312 323 323 324 324 323 320 316 317 310 306 301 298 296 296 296 296 295 295 294

GFSSGP_850_thetae_111.txt.gz
Theta_e
323 322 319 321 320 321 323 325 322 323 322 323 325 327 330 330 331 332 333 330 328 326 330 328 330 326 317 314 313 311 311 312 316 321 326 327 326 322 316 316 328 331 319 323 321 316 313 314 315
323 321 320 321 320 322 322 318 324 321 329 329 329 330 330 334 335 334 331 330 324 328 320 328 332 327 315 312 314 325 325 313 314 314 313 318 318 314 313 323 331 329 330 325 326 315 313 313 314
323 321 319 316 317 321 321 317 321 326 324 324 329 330 331 333 336 332 332 329 326 325 328 327 332 329 316 310 314 331 330 321 314 316 312 316 313 314 319 322 330 331 323 315 315 313 313 314 315
322 320 318 318 320 318 316 319 321 326 322 324 329 331 333 333 334 334 334 329 326 327 326 327 332 329 316 311 313 331 330 319 313 311 313 314 317 311 311 313 320 324 318 313 313 313 314 315 315
321 319 317 317 317 315 312 319 325 320 321 328 327 330 332 334 334 334 333 326 325 325 322 328 332 327 315 312 311 318 329 319 310 310 312 314 312 310 310 309 310 314 313 312 313 313 314 314 315
320 317 317 318 317 315 317 320 322 317 321 325 330 332 334 334 335 332 330 326 325 322 320 329 330 325 314 312 311 311 312 314 313 313 313 311 315 310 310 310 310 312 313 312 313 313 313 314 315
318 317 317 316 316 320 320 320 318 319 323 326 330 330 332 335 335 330 329 326 326 319 320 329 330 323 314 313 313 312 312 312 312 313 314 313 313 312 311 311 310 311 312 312 313 313 314 316 316
318 315 316 315 316 321 317 318 318 321 322 327 330 328 333 334 334 332 326 325 321 316 321 329 331 323 315 314 314 314 314 314 313 314 313 314 313 313 312 312 311 311 312 312 313 314 315 316 317
317 317 318 318 314 318 316 315 317 319 324 327 328 325 329 334 334 332 328 324 319 314 319 325 330 326 318 316 316 315 316 316 316 316 316 316 314 313 314 314 313 313 313 313 315 316 317 318 319
315 318 318 316 312 314 314 316 317 320 324 323 324 325 331 334 334 333 329 324 316 313 316 324 328 329 319 318 317 317 318 318 318 318 319 318 316 316 315 315 315 315 314 314 316 317 318 319 320
314 318 313 312 314 314 314 314 317 318 321 323 323 325 331 333 334 334 332 324 315 313 314 320 327 324 319 319 319 319 319 320 320 320 320 320 320 320 319 318 318 317 317 316 317 318 319 320 320
316 313 313 315 313 313 313 314 315 319 319 320 321 323 328 332 333 333 331 320 315 315 315 315 317 318 318 319 319 319 320 321 322 322 322 322 322 322 322 322 321 321 320 319 319 319 320 321 320
316 313 316 317 315 313 313 313 314 317 318 318 321 323 326 331 332 331 326 320 316 315 317 317 316 316 317 318 319 319 320 321 322 322 323 323 323 323 323 323 323 323 323 322 321 321 322 321 320
318 317 318 318 318 313 312 311 313 315 318 316 320 322 324 328 330 331 329 325 317 316 317 317 317 316 317 318 319 319 320 321 322 323 323 323 324 324 324 324 324 323 322 323 323 322 321 321 322
319 320 319 319 313 312 312 312 311 314 316 317 320 323 325 327 330 329 329 328 325 317 318 318 318 318 318 319 319 320 321 322 322 323 324 324 324 324 324 325 324 323 321 321 321 321 322 322 321
321 319 323 319 312 311 312 315 312 313 315 318 321 324 326 327 327 330 330 330 330 322 319 319 319 320 320 321 321 321 322 323 324 325 325 326 326 326 325 325 324 323 323 324 323 322 321 320 320
321 325 320 322 314 312 311 314 311 312 315 319 321 324 324 326 328 329 330 330 331 330 325 322 322 323 322 323 325 325 325 326 326 327 327 326 326 327 325 325 324 324 324 323 322 321 321 320 320
323 324 319 323 313 309 310 311 310 310 315 317 321 324 324 323 322 323 327 329 331 332 332 331 331 330 328 328 328 328 328 329 329 329 327 326 325 325 325 323 324 324 323 322 321 321 321 321 321
321 323 323 311 317 311 309 310 311 311 309 315 319 322 324 324 320 322 324 326 328 330 331 331 331 331 331 331 330 330 330 330 329 329 327 326 325 325 324 323 322 321 322 321 321 321 321 321 321
316 317 318 317 309 308 308 309 309 307 309 310 314 319 321 323 321 322 322 323 325 327 328 330 330 331 331 331 331 331 331 330 328 327 326 325 325 325 325 323 323 322 322 322 322 321 321 321 322
314 312 311 311 309 308 308 311 309 307 308 310 311 313 316 320 319 320 321 320 320 323 326 327 328 329 330 330 331 332 332 331 329 327 325 326 325 325 325 323 323 322 323 323 322 321 320 320 320
319 311 312 310 312 315 309 313 310 308 307 305 311 311 313 315 317 318 319 319 318 318 320 324 326 328 328 330 331 332 332 331 328 327 326 326 324 324 323 323 323 324 325 323 321 321 320 319 319
311 307 307 310 310 308 307 309 307 305 306 306 308 312 314 314 315 316 316 317 317 318 319 321 323 325 327 328 329 330 331 331 329 329 326 326 324 323 323 323 323 324 324 322 320 320 319 318 318
309 312 312 307 307 311 310 310 308 310 306 308 308 312 315 315 315 315 315 314 313 314 318 321 324 325 326 327 328 329 330 331 330 330 327 326 324 323 323 323 323 322 321 320 319 319 318 318 317
311 314 316 316 314 314 303 308 313 308 304 306 309 313 315 316 315 315 314 314 314 312 312 317 321 323 324 326 327 327 328 330 331 330 327 327 326 323 322 322 322 321 320 319 318 318 318 315 308
313 314 312 313 311 310 303 308 309 306 310 308 310 310 310 312 314 315 315 315 314 312 312 314 317 318 321 324 325 327 328 329 331 331 328 327 326 324 322 321 321 319 318 318 318 318 311 305 299
310 315 308 306 297 306 306 306 305 303 304 306 307 309 312 312 312 313 313 313 312 311 311 313 314 315 320 324 325 327 328 329 329 330 330 327 326 324 322 321 319 318 317 318 314 309 302 298 297
310 309 314 309 306 307 307 305 310 306 306 306 306 309 311 310 311 311 311 311 311 311 311 312 313 315 318 321 322 321 321 322 326 328 331 328 326 323 322 320 318 317 317 312 307 300 297 296 296
305 310 307 310 307 308 307 308 303 307 306 307 306 308 310 310 310 310 311 311 310 309 310 311 311 312 311 311 311 311 311 310 311 329 328 328 325 323 321 318 317 317 309 305 300 297 296 296 296
305 307 308 310 307 304 306 308 305 303 305 306 307 310 309 309 309 309 310 310 310 310 309 310 311 311 311 311 311 310 310 310 309 323 326 326 324 321 319 316 317 309 304 299 296 296 296 295 295

GFSSGP_850_thetae_114.txt.gz
Theta_e
323 322 320 321 324 327 330 330 328 329 328 325 330 331 333 334 334 336 333 330 333 333 332 326 327 320 318 317 313 317 321 326 333 333 333 331 325 319 323 330 328 326 327 319 313 311 311 312 313
323 322 320 322 324 326 329 327 329 328 329 329 330 331 333 336 333 334 332 330 333 333 331 331 327 319 313 313 316 313 312 316 319 321 317 320 316 312 328 328 328 324 331 327 314 312 313 313 314
323 321 322 323 324 326 326 326 329 330 327 328 331 332 333 335 334 335 332 329 333 332 331 332 329 318 311 323 331 327 316 312 313 316 314 315 314 318 330 329 327 322 329 329 314 314 314 314 314
323 320 320 325 323 323 323 326 326 329 324 326 330 332 333 333 334 334 330 331 333 332 331 332 330 318 311 329 332 330 318 312 311 314 318 312 313 311 321 328 327 313 320 319 314 314 314 314 314
322 321 325 324 323 322 318 322 328 327 325 329 329 332 334 334 333 333 330 332 331 332 331 332 330 318 313 327 331 328 314 311 311 312 312 310 310 311 312 322 322 315 313 314 314 314 315 315 316
323 321 326 328 323 320 321 323 328 324 325 327 329 332 335 334 334 334 330 331 330 332 331 332 330 318 313 319 327 326 313 311 311 313 315 313 310 310 310 314 316 314 313 313 313 314 315 316 316
323 324 327 324 323 322 324 323 326 324 325 326 331 333 334 337 334 333 329 326 327 329 330 332 329 316 313 314 323 325 314 314 315 314 314 314 313 314 311 311 312 313 313 313 313 315 316 317 317
321 323 323 323 323 322 323 322 320 323 324 324 331 331 335 335 333 331 327 326 325 322 329 332 329 316 313 314 313 317 315 314 314 314 314 313 313 313 312 312 312 312 313 313 314 316 317 318 318
318 324 325 324 321 322 321 321 319 320 326 328 328 329 332 334 332 330 328 326 322 319 323 333 329 317 314 314 314 313 314 314 316 316 315 314 313 313 313 313 313 313 313 315 316 317 318 319 319
319 325 325 320 318 319 321 322 319 323 326 326 328 325 332 334 333 330 326 325 320 316 319 331 329 320 316 316 315 315 315 315 316 318 317 315 315 314 315 315 314 314 314 316 317 318 320 320 319
316 327 320 315 316 315 317 317 320 322 325 324 326 327 333 334 333 331 327 325 318 314 314 324 329 325 318 317 317 317 318 318 318 319 319 319 317 317 317 317 317 317 316 316 318 319 320 320 320
321 314 314 316 312 314 316 316 318 321 322 321 324 323 331 333 333 331 328 325 321 314 313 320 328 326 318 318 318 319 319 320 320 320 321 321 321 320 321 320 320 320 319 318 319 319 320 320 319
320 317 315 317 316 314 313 315 319 319 317 318 322 323 327 333 333 333 331 328 317 315 314 316 322 322 319 318 319 319 320 321 321 322 322 322 322 323 323 323 323 322 322 321 321 321 321 320 320
319 316 318 317 317 313 315 314 314 318 318 317 321 323 324 329 332 332 333 330 317 314 315 315 317 318 318 319 319 319 320 321 321 322 323 323 323 323 324 324 324 323 322 323 323 322 321 321 322
319 320 319 317 314 312 312 315 315 315 318 322 325 328 327 330 331 331 331 326 317 315 316 316 316 317 317 318 319 319 320 321 321 322 323 323 324 324 324 324 324 323 321 320 320 321 322 321 320
324 323 324 317 314 311 314 322 317 314 319 321 324 328 329 329 328 330 331 326 322 317 317 317 317 316 317 318 318 319 320 321 321 323 324 325 325 325 325 325 324 323 322 323 323 322 321 321 321
324 328 327 326 314 313 314 319 313 312 318 320 324 326 329 329 327 329 330 329 327 323 317 318 319 319 318 318 319 320 320 321 322 324 325 326 327 326 325 325 324 324 324 323 321 321 320 321 321
326 329 325 328 319 313 319 318 318 312 315 318 321 325 326 328 329 326 329 330 329 329 326 319 319 319 320 320 321 322 323 324 325 326 327 327 326 325 324 324 325 324 323 322 321 321 321 321 321
324 328 328 321 322 319 319 322 322 320 312 315 318 322 325 325 324 325 327 329 330 330 331 329 325 323 323 324 325 326 327 327 327 328 328 327 326 324 324 323 323 322 322 322 321 321 321 321 320
326 328 328 324 313 314 319 320 320 318 314 313 315 318 322 324 325 321 322 327 330 330 329 331 331 331 331 330 329 329 329 328 329 329 327 327 326 325 325 323 323 322 322 321 321 321 321 320 320
321 327 322 321 312 312 315 322 319 316 315 313 311 313 317 322 322 322 321 322 324 326 327 328 329 329 330 330 331 331 331 331 330 328 327 326 325 325 324 324 324 323 323 322 322 322 321 321 320
317 313 313 314 315 323 318 329 324 320 319 312 312 312 313 314 316 322 319 320 320 320 322 325 326 327 328 329 331 331 330 330 330 328 327 326 324 325 325 325 324 323 323 323 324 323 321 320 319
316 315 316 314 314 313 314 317 322 315 317 318 312 312 312 314 315 315 317 317 317 317 317 318 322 325 326 328 329 330 331 331 332 331 329 327 325 325 324 323 323 323 323 323 325 321 320 319 318
311 314 314 311 312 320 319 316 322 319 316 316 316 314 315 315 315 315 315 316 316 317 317 317 319 321 324 326 327 328 329 330 330 331 331 330 326 325 324 323 322 323 323 323 322 320 319 318 318
313 317 319 319 317 322 308 314 319 317 314 315 316 315 316 316 316 316 314 315 315 316 316 317 317 319 321 324 325 327 328 329 330 330 330 328 327 326 324 324 323 322 322 322 320 319 318 318 318
315 318 319 322 321 320 305 314 317 312 315 312 310 312 312 313 314 315 316 315 314 315 315 313 314 316 320 322 324 326 327 328 329 328 329 329 328 326 325 324 322 321 321 320 319 318 317 318 313
314 317 311 311 305 311 313 312 311 312 309 309 309 308 310 312 312 313 314 315 314 314 313 313 312 311 314 320 323 324 325 327 327 327 329 330 332 329 326 325 323 322 320 319 318 317 318 312 303
314 314 315 315 318 316 314 311 314 313 312 311 309 309 310 311 312 312 312 312 312 313 313 313 312 311 312 317 319 320 322 324 326 327 328 330 331 331 327 326 323 321 320 318 317 317 312 302 297
313 315 314 316 313 318 317 317 311 311 312 312 311 309 310 310 310 311 310 311 312 312 311 311 311 311 311 315 317 319 322 324 325 327 327 328 329 330 327 326 323 321 319 317 317 311 303 297 296
312 314 314 317 316 313 311 316 309 309 309 308 309 309 310 310 310 310 310 310 310 311 311 311 310 310 311 314 316 318 318 317 316 314 314 324 326 328 328 325 322 320 317 316 312 304 297 296 296

GFSSGP_850_thetae_117.txt.gz
Theta_e
323 322 320 323 327 327 332 331 331 330 330 329 332 332 334 336 336 343 336 337 337 335 333 326 324 319 318 314 319 328 332 334 334 334 333 332 322 324 330 326 331 329 325 317 311 312 313 313 313
324 322 322 324 328 330 331 330 331 330 330 330 332 332 332 339 336 336 336 337 336 338 336 324 324 316 314 312 313 318 327 329 330 326 324 319 319 329 328 324 330 330 326 316 312 313 313 313 313
324 321 324 326 329 331 330 329 330 331 330 331 333 334 333 337 335 336 336 336 335 336 336 329 323 313 314 323 323 315 315 316 316 318 324 317 329 329 328 322 329 329 328 320 313 314 314 313 313
323 323 323 326 329 326 325 328 329 330 327 330 330 332 335 336 335 336 336 335 336 335 335 331 324 312 322 331 327 324 316 317 317 322 322 323 327 327 329 322 328 327 325 314 314 314 315 315 314
323 324 327 329 329 325 322 325 329 330 328 329 329 332 335 335 335 335 335 335 333 334 334 331 324 312 327 331 330 326 317 319 325 317 318 317 317 324 328 321 317 318 314 314 314 315 315 316 316
325 324 328 331 330 324 323 323 328 329 328 329 328 330 336 335 336 335 335 334 334 334 333 331 324 314 325 330 330 325 321 325 316 313 323 314 310 314 326 326 317 314 313 313 314 315 316 316 316
325 327 329 330 332 325 324 325 328 327 327 327 328 330 336 335 336 335 335 334 334 334 334 332 324 315 322 327 327 326 323 328 328 328 326 313 312 311 315 321 314 313 313 314 315 316 317 317 316
327 326 329 329 329 327 325 326 327 326 326 328 329 331 335 335 340 334 335 333 333 332 334 332 328 322 315 321 325 324 322 326 322 322 316 313 312 312 312 312 313 313 313 315 316 317 318 318 318
322 327 329 328 328 327 324 325 324 324 327 328 330 329 334 333 335 334 334 333 328 333 336 333 329 328 327 313 316 316 316 319 319 318 315 315 317 316 316 313 313 313 314 316 317 319 319 318 318
327 329 329 326 325 324 324 324 323 324 327 327 329 331 335 333 334 333 331 331 327 327 333 333 329 326 326 316 314 314 315 318 322 318 319 320 320 318 314 314 314 314 315 317 318 319 320 319 320
322 330 327 320 320 318 322 324 323 324 327 325 328 333 332 333 332 333 331 331 327 320 333 335 329 322 318 317 316 316 316 317 322 321 317 316 316 316 317 316 317 316 316 317 319 320 320 320 319
323 318 319 318 315 316 319 322 322 323 323 323 324 331 329 336 334 333 331 330 327 326 331 335 330 324 320 317 317 318 318 318 318 319 319 319 319 319 319 319 319 319 318 318 319 320 320 320 319
325 321 315 317 317 316 316 318 322 322 322 319 325 331 328 335 334 334 331 330 328 327 328 328 332 326 321 321 321 320 321 320 320 320 321 321 322 321 322 322 322 322 321 321 321 321 321 320 321
324 321 322 318 316 314 317 319 317 320 321 321 327 331 333 332 334 334 333 331 328 326 318 318 328 330 320 319 323 321 322 321 321 322 322 322 322 323 323 323 323 323 322 322 323 322 321 320 321
321 320 320 319 315 313 314 318 317 319 320 322 326 329 332 333 334 335 334 332 328 322 320 315 320 326 324 318 319 319 319 320 321 322 322 323 323 323 324 324 324 322 320 320 320 321 321 321 320
323 322 322 320 318 314 315 326 321 319 320 321 324 326 330 332 333 334 334 334 330 323 317 315 316 317 318 319 319 319 319 320 320 321 322 323 324 324 324 324 324 323 322 323 323 322 321 321 320
327 329 326 325 317 315 318 324 320 315 318 321 323 325 328 330 332 333 333 334 329 322 319 317 317 317 316 316 318 319 320 320 321 321 322 324 325 325 325 325 325 324 323 324 322 321 321 320 321
329 331 331 330 323 319 322 324 323 317 316 319 320 323 325 329 330 331 333 334 330 324 320 318 318 318 317 317 317 319 319 320 321 322 323 325 326 327 324 324 325 324 324 322 322 321 320 321 320
330 331 332 329 321 323 325 325 325 324 318 318 318 320 323 325 327 329 331 333 333 329 325 319 318 319 319 319 319 320 321 321 322 323 324 327 327 326 325 324 323 324 323 322 322 321 321 320 320
330 331 332 328 318 322 327 328 325 325 325 322 319 318 319 323 324 328 330 332 333 333 332 329 321 319 319 320 320 321 322 323 325 325 326 328 327 326 325 323 323 322 322 321 321 321 321 321 321
329 331 331 330 324 318 321 325 324 324 323 323 321 318 317 319 323 325 329 331 333 333 333 331 330 327 323 322 323 325 326 327 328 327 328 329 327 326 325 324 323 323 322 322 322 321 322 321 320
326 318 324 317 320 329 321 331 330 328 327 324 322 321 319 316 319 323 326 328 327 326 330 330 331 331 330 329 329 330 329 329 329 329 329 328 327 325 325 324 324 324 324 323 323 323 323 323 321
320 315 316 315 316 316 320 321 325 324 324 325 324 320 321 317 316 319 323 324 320 324 322 326 328 329 331 331 329 330 330 330 330 329 329 328 326 326 325 323 325 324 325 324 324 323 324 322 320
315 315 313 313 313 320 322 321 325 325 322 321 322 322 320 318 316 316 317 321 322 321 319 319 321 324 329 331 329 329 329 330 331 331 331 331 329 328 326 324 324 323 323 323 322 321 323 321 319
314 320 323 323 321 326 313 324 323 323 322 320 320 320 320 319 318 316 316 316 316 318 317 317 318 318 320 324 327 327 328 329 329 329 331 331 331 331 328 325 323 323 323 322 321 321 322 319 318
316 322 325 328 326 324 309 319 320 316 312 315 316 315 316 317 316 316 316 317 316 315 315 316 317 318 319 320 320 323 324 326 328 328 330 330 329 330 328 326 325 324 323 322 321 321 320 319 318
316 320 318 314 309 315 318 316 316 315 315 312 314 313 312 312 312 313 314 314 314 315 315 315 315 316 318 319 319 321 323 324 325 327 328 329 329 328 330 329 326 325 323 322 321 320 319 318 318
318 316 318 318 325 322 321 317 317 317 316 315 313 314 313 312 312 312 311 312 312 313 313 313 313 314 314 314 315 316 319 322 323 325 327 328 331 328 329 329 329 325 323 323 321 320 318 317 317
314 317 317 319 319 323 323 321 315 313 312 314 314 312 311 311 310 310 310 311 311 312 311 311 311 313 313 312 312 311 314 320 323 324 325 326 329 327 329 331 330 326 325 323 321 319 318 317 316
315 317 317 320 320 319 317 319 312 312 311 311 311 311 311 310 310 310 310 310 310 310 310 311 310 310 310 311 311 310 313 318 321 321 322 324 325 327 328 330 329 326 325 322 320 318 317 317 309

GFSSGP_850_thetae_120.txt.gz
Theta_e
323 322 320 324 327 327 332 332 329 330 330 331 331 333 335 336 339 343 337 338 339 335 329 328 326 319 316 318 326 332 334 334 334 334 332 326 329 328 329 329 327 326 325 317 313 313 314 314 315
323 322 323 325 327 331 331 329 330 330 329 332 331 331 334 337 336 337 337 338 337 336 333 325 321 314 312 313 321 326 332 333 331 332 329 327 329 325 330 330 327 329 320 314 313 313 313 313 313
323 322 322 327 328 330 330 328 329 330 330 332 333 334 336 336 337 336 337 337 336 335 325 325 318 312 314 314 314 319 326 323 327 330 329 330 329 326 328 329 327 322 317 314 314 313 313 313 313
325 323 323 325 329 326 326 328 331 329 328 331 330 335 334 336 336 336 336 336 335 333 331 325 314 316 328 327 323 323 327 328 330 330 330 329 328 326 324 328 327 315 314 314 314 315 315 315 315
326 324 326 327 328 324 322 326 331 328 328 329 329 333 335 335 335 336 336 335 336 334 331 326 314 325 331 329 326 323 327 329 329 327 320 324 328 326 323 320 314 314 313 314 315 316 315 315 315
327 324 327 329 329 325 323 323 328 329 329 329 328 334 334 334 334 336 335 334 334 334 331 326 315 328 331 327 328 318 327 327 326 325 321 315 327 328 321 313 313 313 314 315 315 316 316 315 315
327 328 327 328 330 324 323 324 326 328 328 328 328 333 335 334 334 334 334 334 331 334 331 327 315 325 330 329 322 318 324 327 326 324 315 315 320 319 316 312 313 313 314 315 317 317 317 317 317
325 328 328 328 329 328 325 326 327 326 327 328 327 333 333 334 334 334 333 334 333 333 332 327 316 320 325 327 324 316 320 322 319 315 315 313 312 312 312 312 313 313 315 316 317 319 318 317 317
322 327 328 328 329 328 324 325 325 325 327 328 328 331 334 332 334 334 333 334 332 332 332 330 318 316 316 320 319 315 314 315 315 314 314 314 313 313 312 312 313 314 316 317 319 319 318 318 318
320 329 329 327 325 323 324 324 324 324 327 329 330 335 334 333 333 334 333 333 333 332 332 331 326 325 317 313 314 314 315 316 316 315 318 321 318 314 314 314 314 315 317 318 319 320 319 319 319
322 330 328 322 319 318 323 324 324 324 325 327 330 336 333 336 334 334 333 332 331 333 333 331 328 324 318 313 314 314 315 321 318 318 319 316 316 316 316 316 316 316 317 318 319 320 320 319 319
327 325 318 318 317 317 319 323 323 324 323 323 327 328 332 336 336 335 332 332 327 326 332 332 329 322 316 315 316 316 316 317 321 320 318 317 317 318 318 319 319 318 318 318 319 320 320 319 320
326 322 317 317 317 316 317 318 322 322 323 322 327 329 328 337 333 333 332 331 329 323 331 333 331 323 318 317 319 320 318 318 319 319 319 319 319 320 320 320 321 320 320 320 320 321 321 320 321
326 324 316 317 316 315 316 318 318 320 321 321 327 328 325 332 334 334 332 331 329 324 328 331 333 329 323 319 321 321 319 319 320 320 320 321 321 321 322 322 322 321 320 321 321 321 321 320 321
326 324 322 320 318 314 314 317 316 319 320 321 329 330 329 330 335 334 333 331 330 323 319 327 334 334 328 323 324 323 320 320 320 320 321 322 322 322 322 323 323 321 319 319 320 319 321 321 320
323 322 324 321 315 315 315 327 321 320 320 321 324 330 331 332 332 334 334 332 330 325 319 317 320 330 327 318 321 322 321 320 320 321 321 322 322 323 323 323 323 323 321 321 321 321 321 320 320
323 326 322 322 319 314 313 323 322 318 318 320 322 326 329 331 333 333 335 334 332 327 322 317 315 319 321 319 318 319 319 319 320 320 321 322 323 323 324 324 324 324 322 322 322 321 320 320 320
328 329 323 325 318 317 316 318 316 316 317 318 320 323 327 329 331 332 334 334 334 331 324 318 315 316 316 317 317 319 318 318 319 320 320 321 323 324 325 325 324 325 324 323 322 321 320 320 320
327 329 329 327 321 320 319 320 320 321 316 317 318 319 324 327 328 331 332 333 333 332 326 321 317 317 317 316 316 316 317 318 319 320 321 322 323 324 326 324 323 324 324 323 322 321 320 320 320
330 330 332 325 321 323 325 324 322 323 324 322 318 318 318 323 325 327 330 332 333 332 328 323 320 318 318 318 317 317 318 319 320 321 321 322 323 325 326 326 324 322 321 322 322 320 320 320 320
331 331 331 328 318 317 319 323 322 322 325 324 324 321 319 318 322 324 328 329 331 333 331 327 323 319 318 319 319 319 319 321 321 321 323 324 325 327 327 326 324 322 322 321 321 321 321 320 320
331 323 324 319 322 327 321 328 327 325 323 322 324 324 320 317 318 322 324 327 328 327 331 331 328 326 323 319 319 320 320 321 322 324 325 326 326 328 327 325 324 323 323 322 322 322 322 322 321
324 317 315 315 315 319 317 319 321 322 325 323 323 323 321 319 318 318 322 324 322 326 329 332 332 330 328 328 325 322 321 322 325 327 327 327 328 329 327 326 324 324 323 323 323 323 324 323 322
313 315 315 313 317 322 322 319 321 322 321 322 323 323 322 322 319 318 318 322 322 323 323 326 330 330 330 330 330 328 327 327 329 329 328 328 328 328 327 325 325 323 323 323 322 323 323 322 322
316 321 322 324 322 325 316 320 322 321 319 318 318 319 321 323 321 318 317 319 321 322 321 321 323 325 328 331 331 329 329 329 329 329 328 328 328 328 329 327 327 324 323 322 322 322 321 320 320
317 322 321 324 322 321 309 318 318 316 315 315 314 318 316 315 320 320 316 316 318 320 319 320 321 320 322 325 326 327 327 328 328 328 328 329 328 327 327 329 329 327 324 323 323 322 321 320 320
317 322 315 312 305 313 314 314 314 313 313 313 312 314 313 313 315 316 316 315 315 317 318 318 317 318 320 320 321 324 323 323 323 325 327 328 328 328 326 328 330 330 326 324 324 323 321 320 320
318 316 320 317 316 316 317 317 316 313 312 312 311 312 314 313 313 313 313 313 313 313 313 314 315 317 318 320 321 321 320 321 321 323 325 326 328 329 328 326 328 330 329 326 325 324 323 321 319
315 317 317 318 318 319 319 318 312 313 311 312 311 312 312 311 311 311 311 311 311 311 311 311 311 312 312 312 315 319 322 323 324 324 325 327 329 331 331 329 327 328 330 329 326 324 323 322 319
314 317 317 320 319 317 316 315 309 309 309 310 310 311 311 310 310 310 310 310 310 310 310 310 309 309 309 310 310 311 316 323 325 326 327 328 328 330 331 330 330 328 329 329 327 324 323 321 319

GFSSGP_850_thetae_123.txt.gz
Theta_e
323 323 321 324 321 319 326 330 326 328 328 331 331 332 335 336 338 340 338 338 333 332 328 325 322 320 322 329 332 333 333 333 334 333 330 327 328 330 324 323 328 322 314 313 313 313 314 315 316
323 322 322 323 321 325 326 327 327 328 330 330 332 334 336 335 336 338 339 338 337 332 328 323 317 316 317 325 331 333 334 332 330 333 330 328 327 329 326 327 326 317 313 313 312 313 313 313 313
325 323 322 322 322 325 326 326 327 328 331 331 332 336 336 336 336 337 337 337 336 332 324 320 314 313 313 317 323 330 330 328 327 328 329 329 326 329 327 324 324 317 313 313 313 313 313 313 316
329 323 322 321 324 324 324 326 328 328 329 330 332 333 335 336 336 336 337 337 335 331 325 317 314 318 315 313 315 318 322 325 329 329 328 327 323 326 327 321 314 313 313 314 315 315 315 315 316
328 324 322 323 324 323 321 329 329 326 328 330 331 333 334 336 335 336 336 336 335 332 327 315 320 328 324 318 317 317 325 327 327 328 328 327 323 327 322 313 313 313 314 315 315 315 315 315 316
326 324 322 325 325 321 320 326 329 327 327 328 333 333 333 334 335 335 335 335 335 333 328 315 325 330 326 321 316 311 314 322 325 320 324 327 323 319 313 312 313 314 315 315 316 315 315 315 316
325 326 324 325 326 321 321 323 325 326 328 327 331 334 333 332 334 335 334 334 334 333 329 315 324 330 326 324 314 311 311 310 314 311 310 317 321 313 313 313 313 314 315 317 317 316 317 317 318
321 325 327 324 326 327 323 325 326 327 327 327 328 333 332 333 334 335 333 333 331 332 329 318 319 328 328 323 316 314 314 316 313 311 311 311 311 312 312 313 314 315 316 318 318 318 317 317 318
321 323 326 326 327 325 324 323 324 326 327 328 328 333 333 332 333 334 333 333 331 332 331 321 315 320 325 324 316 314 314 314 313 312 312 312 312 312 312 313 314 316 317 318 319 317 317 318 318
324 325 325 322 318 318 323 323 324 325 328 329 328 331 333 332 333 333 333 334 332 331 331 325 315 315 316 319 316 313 312 313 313 313 313 314 314 313 313 314 315 316 318 319 319 319 318 317 317
323 328 323 321 319 318 321 323 324 323 325 327 328 330 332 333 333 333 333 333 332 331 331 330 319 319 314 313 314 314 314 313 313 314 315 316 316 315 315 315 315 316 318 318 319 319 319 318 318
324 327 324 319 317 318 318 321 323 323 323 325 327 325 330 332 334 333 333 333 332 332 332 331 325 322 317 313 313 314 316 318 316 317 316 317 316 317 317 317 317 317 317 318 318 319 319 318 319
326 327 321 322 318 316 317 318 321 322 323 323 326 329 324 332 333 333 332 332 332 330 332 331 329 321 318 314 315 315 316 317 318 319 318 317 318 318 318 319 319 319 319 319 319 320 320 319 320
327 327 323 321 318 315 315 317 318 320 321 325 327 329 325 328 333 333 333 332 331 327 329 331 331 324 318 319 318 317 317 317 318 318 318 318 319 319 320 320 320 320 319 319 320 320 320 320 320
325 325 320 319 322 315 314 317 315 319 320 326 329 329 326 324 333 332 332 332 331 328 324 332 332 330 320 319 319 321 319 319 319 319 319 320 320 321 321 321 321 321 319 319 320 319 320 320 320
324 322 326 322 318 316 314 324 322 320 318 329 329 328 326 323 330 333 332 332 331 330 324 325 332 331 326 322 320 320 320 320 320 320 320 321 321 321 321 321 322 322 320 319 319 320 320 320 320
321 324 325 323 317 313 315 323 321 322 319 320 328 328 328 327 330 333 334 333 330 330 326 319 322 330 327 326 322 320 319 318 319 320 320 320 321 321 322 322 323 323 323 320 320 321 320 320 320
325 328 323 325 319 314 313 314 315 319 317 319 321 326 328 329 328 327 331 333 331 331 329 323 317 320 326 326 323 320 320 319 319 319 319 319 320 321 322 323 324 324 324 323 322 321 320 320 320
323 326 327 321 318 315 315 314 315 317 315 316 318 319 324 328 326 327 327 333 334 333 331 327 321 319 317 321 323 319 317 318 318 319 319 319 320 321 323 324 325 323 322 324 323 321 321 320 319
325 328 326 321 317 317 318 317 316 317 316 316 317 318 318 325 328 328 329 332 335 334 333 331 326 320 316 316 317 320 317 316 317 318 318 319 320 321 322 324 325 324 323 323 323 322 321 320 319
330 329 328 323 318 319 319 322 319 319 320 322 322 321 321 319 326 328 329 330 331 332 331 332 330 323 317 316 317 317 318 318 318 319 319 320 321 321 322 325 326 325 323 321 321 321 320 320 319
330 328 330 320 324 327 320 328 321 322 321 321 322 322 321 320 318 326 327 328 328 326 325 329 330 328 321 318 318 318 318 318 318 318 320 320 321 322 323 325 327 325 324 322 322 321 321 321 320
329 320 320 320 315 319 317 320 318 317 322 322 322 323 324 320 320 319 324 324 323 326 324 325 328 328 326 322 319 318 319 319 319 320 320 321 322 323 325 325 327 326 324 324 322 322 321 321 322
314 317 318 316 319 326 318 321 320 319 319 321 320 322 324 324 322 319 318 321 322 324 325 325 327 328 329 327 325 323 320 319 319 320 320 321 324 326 326 327 328 326 324 324 323 323 322 323 323
318 324 324 325 326 327 316 318 323 318 317 317 318 319 323 323 323 323 318 318 322 323 323 324 325 325 329 329 329 328 327 326 325 324 323 324 326 327 326 327 328 326 325 325 323 323 322 322 322
320 325 325 326 323 320 310 320 318 316 319 319 317 319 317 316 319 322 322 321 318 319 322 324 324 324 326 328 326 327 328 328 328 327 327 327 327 327 327 326 326 327 326 326 323 323 322 322 321
318 323 316 311 301 313 313 313 312 313 313 312 311 313 314 315 315 319 322 321 318 317 319 322 322 322 325 326 327 329 329 329 327 327 328 328 327 327 327 327 327 327 328 327 326 323 323 323 322
319 316 320 316 314 316 315 314 315 312 313 311 310 311 313 313 313 315 318 318 317 316 316 318 322 322 321 323 326 327 329 329 329 330 328 327 327 327 327 328 329 329 328 330 328 326 324 323 323
317 320 317 315 314 315 316 315 310 313 310 310 310 312 313 313 312 312 312 312 312 313 314 315 316 317 319 321 322 324 325 326 327 328 327 326 327 328 328 328 329 330 326 327 329 329 327 325 324
315 320 317 322 318 314 314 314 310 309 307 310 309 310 310 310 310 310 310 310 310 310 310 310 310 311 311 311 312 313 315 320 324 325 325 326 331 329 328 327 328 328 327 328 328 328 328 326 325

GFSSGP_850_thetae_126.txt.gz
Theta_e
321 322 322 324 321 319 323 328 326 327 329 330 331 333 334 335 336 336 337 338 333 333 330 322 322 329 331 332 333 333 333 333 333 331 326 328 327 321 318 312 311 312 312 312 313 314 317 318 321
322 322 322 323 320 324 324 325 327 327 329 333 334 334 334 334 336 337 338 336 333 331 325 322 320 325 330 332 333 333 333 332 332 331 327 328 325 319 316 314 313 312 312 312 313 313 313 315 316
324 323 322 319 318 324 326 326 326 329 330 331 335 335 335 335 337 338 337 335 332 329 327 318 315 319 327 331 332 333 332 325 332 330 326 329 327 321 317 316 312 312 313 313 312 312 313 315 316
325 324 321 320 323 322 323 326 327 327 329 330 332 333 335 336 337 336 337 337 334 327 322 314 313 314 319 323 327 327 323 320 329 328 324 327 326 322 316 312 313 313 314 314 314 314 314 315 317
328 324 320 323 323 322 325 327 328 326 328 331 332 333 335 335 335 336 335 336 334 325 321 314 319 316 314 313 315 314 313 318 328 326 323 325 326 314 313 313 313 314 315 314 314 314 315 317 317
326 324 321 324 324 322 323 328 326 325 327 331 333 334 335 334 335 335 335 335 334 327 319 317 326 324 319 314 313 313 312 316 317 324 319 320 319 313 313 313 314 314 315 315 314 315 316 317 317
325 324 323 324 324 322 320 327 325 325 327 327 331 332 332 334 334 334 334 335 334 330 321 317 325 326 320 316 312 312 311 310 310 310 316 315 315 312 312 313 314 315 316 316 316 316 317 317 318
321 323 327 324 325 326 322 324 325 328 326 331 332 329 331 331 333 333 334 334 334 331 324 317 321 327 323 315 314 312 310 310 309 309 311 311 312 312 313 313 314 316 317 317 317 317 317 318 318
321 323 326 327 325 324 323 323 325 326 327 328 329 331 332 332 333 333 333 332 332 332 328 317 321 326 325 316 316 315 313 311 310 311 311 311 312 312 313 314 315 316 318 318 317 317 317 317 318
328 325 325 324 317 317 320 322 325 326 328 329 329 332 331 332 333 333 333 332 332 331 331 321 317 322 324 319 314 316 315 314 312 311 311 311 312 312 313 314 316 317 318 319 318 318 317 317 318
324 329 324 326 318 318 317 322 323 325 325 326 326 330 331 332 333 333 332 332 331 331 330 327 316 317 321 318 313 313 315 314 313 313 313 313 313 313 314 314 316 317 318 319 319 319 318 318 319
329 328 327 325 318 316 317 318 322 323 324 324 325 323 329 331 333 333 332 332 332 332 331 329 322 314 315 320 314 313 312 313 312 313 314 315 315 315 315 315 315 316 317 318 318 319 318 318 319
324 327 328 329 328 318 315 317 319 321 322 322 326 326 327 329 332 333 332 332 332 332 331 330 328 317 316 315 316 314 314 314 315 315 315 316 316 316 317 317 317 317 317 317 318 319 319 319 319
326 327 327 329 328 322 314 316 316 319 321 322 325 327 326 328 331 332 332 332 332 332 331 331 329 324 317 315 314 315 316 318 317 317 317 316 317 317 318 318 318 318 317 317 318 319 320 319 319
325 327 320 323 326 322 317 322 314 318 321 322 327 328 326 325 330 331 331 332 332 332 331 331 329 329 319 317 315 316 315 316 317 318 318 318 318 318 318 319 319 319 318 317 318 319 319 319 320
325 322 326 321 320 322 324 330 322 318 322 324 328 329 328 325 325 326 331 331 332 332 331 331 329 330 328 318 317 317 318 317 317 318 318 319 319 319 320 320 320 321 320 318 318 318 319 320 320
322 325 326 325 318 314 318 328 325 322 317 326 327 329 328 326 325 323 328 332 332 331 330 327 327 329 330 325 319 318 318 318 318 319 319 319 320 320 321 321 321 322 322 321 319 319 320 319 320
322 326 323 326 320 312 312 315 316 319 319 318 324 328 328 326 323 320 325 330 331 331 330 328 325 328 330 329 323 320 320 319 318 319 319 319 320 320 321 321 322 323 323 323 321 320 320 319 320
321 323 323 321 319 318 318 319 316 317 315 314 318 327 327 326 322 324 324 328 332 332 330 330 327 321 329 329 327 324 320 319 319 318 318 319 320 320 320 321 322 323 324 323 323 321 320 320 320
320 323 324 322 319 320 319 320 317 315 316 315 316 319 323 325 325 327 327 327 329 331 331 330 330 325 320 322 321 325 323 319 319 318 318 318 319 319 320 321 322 323 325 323 323 323 321 320 320
325 324 324 326 317 318 319 320 318 317 317 318 318 316 317 319 321 325 328 327 325 328 328 330 331 330 324 320 320 318 326 323 320 318 318 317 318 319 320 321 322 323 325 324 322 322 322 321 320
326 324 324 321 321 324 319 327 320 320 320 318 318 319 317 318 318 319 324 328 327 324 323 330 330 330 330 325 321 317 316 320 318 316 316 316 317 318 319 321 322 323 325 325 323 321 321 321 320
325 325 327 321 321 318 320 326 320 317 321 321 320 320 320 321 321 321 320 326 326 326 326 326 329 329 330 330 326 319 316 317 318 318 317 316 317 318 320 321 321 323 325 326 325 322 321 320 320
314 317 319 318 321 326 322 324 322 318 319 318 320 321 322 322 322 323 321 320 325 325 327 327 327 328 327 329 328 325 319 318 318 318 318 318 318 319 320 321 322 323 324 326 326 324 323 322 321
319 324 325 327 325 329 318 320 326 318 316 315 317 320 322 323 323 324 322 318 323 325 324 325 327 326 325 326 328 327 325 322 320 319 319 319 319 320 320 321 323 325 326 326 327 325 324 323 323
323 326 326 331 327 326 312 319 320 316 320 319 318 320 320 321 323 323 324 320 318 319 322 323 324 325 325 325 324 326 328 327 326 325 324 323 323 324 324 323 325 327 327 327 328 327 325 324 323
322 326 318 310 301 313 314 313 312 312 311 312 313 313 315 317 317 320 322 323 323 318 318 320 321 323 325 324 325 325 326 327 328 328 328 327 326 325 326 326 327 327 328 328 328 328 327 325 324
320 318 321 318 318 317 315 313 317 314 313 311 310 311 313 314 314 316 318 319 322 321 320 318 318 320 322 322 323 322 322 324 324 326 325 324 324 326 326 327 327 328 328 329 329 329 328 327 326
320 322 319 316 315 317 316 315 310 314 311 312 310 314 313 313 313 314 316 319 320 320 319 317 317 320 323 323 323 323 322 321 324 325 324 324 326 327 328 329 329 328 327 326 326 328 326 326 327
316 323 321 327 319 313 314 314 311 309 308 309 311 312 312 313 312 312 313 313 314 315 314 314 315 316 318 320 323 324 326 326 327 327 329 330 331 331 331 328 327 327 326 326 325 327 328 327 326